<?xml version="1.0" encoding="UTF-8"?>
<gpx xmlns:xsi="http://www.w3.org/2001/XMLSchema-instance" xmlns:gpxtpx="http://www.garmin.com/xmlschemas/TrackPointExtension/v1" xmlns="http://www.topografix.com/GPX/1/1" xmlns:gpxx="http://www.garmin.com/xmlschemas/GpxExtensions/v3" version="1.1" creator="Wanderatlas Verlag GmbH GPX Webservice" xsi:schemaLocation="http://www.topografix.com/GPX/1/1 http://www.topografix.com/GPX/1/1/gpx.xsd http://www.garmin.com/xmlschemas/GpxExtensions/v3 http://www.garmin.com/xmlschemas/GpxExtensionsv3.xsd http://www.garmin.com/xmlschemas/TrackPointExtension/v1 http://www.garmin.com/xmlschemas/TrackPointExtensionv1.xsd ">
  <metadata>
    <link href="http://www.ich-geh-wandern.de/rundwanderung-entlang-der-lahn-bei-limburg">
      <text>Rundwanderung entlang der Lahn bei Limburg</text>
    </link>
    <time>2010-05-10T17:35:13+02:00</time>
  </metadata>
    <trk>
      <name>Rundwanderung entlang der Lahn bei Limburg erstellt von: RS</name>
        <extensions>
          <gpxx:TrackExtension>
          <gpxx:DisplayColor>Red</gpxx:DisplayColor>
          </gpxx:TrackExtension>
        </extensions>
        <trkseg>
          <trkpt lon="8.05440903" lat="50.39076614">
            <ele>150.048</ele>
            <time>2010-08-05T09:14:37+02:00</time>
          </trkpt>
          <trkpt lon="8.0544014" lat="50.39082336">
            <ele>145.58</ele>
            <time>2010-08-05T09:14:42+02:00</time>
          </trkpt>
          <trkpt lon="8.05431747" lat="50.39079285">
            <ele>145.264</ele>
            <time>2010-08-05T09:14:47+02:00</time>
          </trkpt>
          <trkpt lon="8.05433846" lat="50.39076996">
            <ele>145.233</ele>
            <time>2010-08-05T09:14:52+02:00</time>
          </trkpt>
          <trkpt lon="8.05425262" lat="50.39062881">
            <ele>145.374</ele>
            <time>2010-08-05T09:14:57+02:00</time>
          </trkpt>
          <trkpt lon="8.05427933" lat="50.39066696">
            <ele>145.25</ele>
            <time>2010-08-05T09:15:02+02:00</time>
          </trkpt>
          <trkpt lon="8.05426121" lat="50.39075851">
            <ele>149.989</ele>
            <time>2010-08-05T09:15:07+02:00</time>
          </trkpt>
          <trkpt lon="8.05426502" lat="50.39070892">
            <ele>149.989</ele>
            <time>2010-08-05T09:15:12+02:00</time>
          </trkpt>
          <trkpt lon="8.05426693" lat="50.39065552">
            <ele>149.998</ele>
            <time>2010-08-05T09:15:17+02:00</time>
          </trkpt>
          <trkpt lon="8.05427074" lat="50.39054871">
            <ele>149.985</ele>
            <time>2010-08-05T09:15:22+02:00</time>
          </trkpt>
          <trkpt lon="8.05437279" lat="50.39043045">
            <ele>149.954</ele>
            <time>2010-08-05T09:15:27+02:00</time>
          </trkpt>
          <trkpt lon="8.05441189" lat="50.39037323">
            <ele>149.999</ele>
            <time>2010-08-05T09:15:32+02:00</time>
          </trkpt>
          <trkpt lon="8.05448723" lat="50.3903656">
            <ele>150.029</ele>
            <time>2010-08-05T09:15:37+02:00</time>
          </trkpt>
          <trkpt lon="8.05443192" lat="50.39041138">
            <ele>150</ele>
            <time>2010-08-05T09:15:42+02:00</time>
          </trkpt>
          <trkpt lon="8.05452824" lat="50.39034271">
            <ele>150</ele>
            <time>2010-08-05T09:15:47+02:00</time>
          </trkpt>
          <trkpt lon="8.05463791" lat="50.3902092">
            <ele>150.842</ele>
            <time>2010-08-05T09:15:52+02:00</time>
          </trkpt>
          <trkpt lon="8.05480576" lat="50.39028168">
            <ele>149.77</ele>
            <time>2010-08-05T09:15:57+02:00</time>
          </trkpt>
          <trkpt lon="8.05490208" lat="50.39027786">
            <ele>150.126</ele>
            <time>2010-08-05T09:16:02+02:00</time>
          </trkpt>
          <trkpt lon="8.05501366" lat="50.39026642">
            <ele>150.552</ele>
            <time>2010-08-05T09:16:07+02:00</time>
          </trkpt>
          <trkpt lon="8.05511093" lat="50.39025879">
            <ele>150.843</ele>
            <time>2010-08-05T09:16:12+02:00</time>
          </trkpt>
          <trkpt lon="8.05516243" lat="50.39026642">
            <ele>150.112</ele>
            <time>2010-08-05T09:16:17+02:00</time>
          </trkpt>
          <trkpt lon="8.05490208" lat="50.39015961">
            <ele>170.232</ele>
            <time>2010-08-05T09:16:22+02:00</time>
          </trkpt>
          <trkpt lon="8.05503941" lat="50.39028549">
            <ele>173.659</ele>
            <time>2010-08-05T09:16:27+02:00</time>
          </trkpt>
          <trkpt lon="8.05504036" lat="50.39039612">
            <ele>175.015</ele>
            <time>2010-08-05T09:16:32+02:00</time>
          </trkpt>
          <trkpt lon="8.05510044" lat="50.39047623">
            <ele>174.803</ele>
            <time>2010-08-05T09:16:37+02:00</time>
          </trkpt>
          <trkpt lon="8.05518627" lat="50.39051056">
            <ele>175.248</ele>
            <time>2010-08-05T09:16:42+02:00</time>
          </trkpt>
          <trkpt lon="8.05528927" lat="50.39061356">
            <ele>175.711</ele>
            <time>2010-08-05T09:16:47+02:00</time>
          </trkpt>
          <trkpt lon="8.05531979" lat="50.39061737">
            <ele>176.145</ele>
            <time>2010-08-05T09:16:52+02:00</time>
          </trkpt>
          <trkpt lon="8.05535316" lat="50.39062881">
            <ele>176.867</ele>
            <time>2010-08-05T09:16:57+02:00</time>
          </trkpt>
          <trkpt lon="8.05540466" lat="50.39065552">
            <ele>177.625</ele>
            <time>2010-08-05T09:17:02+02:00</time>
          </trkpt>
          <trkpt lon="8.05546379" lat="50.39068604">
            <ele>176.817</ele>
            <time>2010-08-05T09:17:07+02:00</time>
          </trkpt>
          <trkpt lon="8.05549526" lat="50.39073563">
            <ele>177.355</ele>
            <time>2010-08-05T09:17:12+02:00</time>
          </trkpt>
          <trkpt lon="8.05553246" lat="50.39078903">
            <ele>179.596</ele>
            <time>2010-08-05T09:17:17+02:00</time>
          </trkpt>
          <trkpt lon="8.05558681" lat="50.39083862">
            <ele>180.423</ele>
            <time>2010-08-05T09:17:22+02:00</time>
          </trkpt>
          <trkpt lon="8.05563068" lat="50.3908844">
            <ele>182.151</ele>
            <time>2010-08-05T09:17:27+02:00</time>
          </trkpt>
          <trkpt lon="8.05566978" lat="50.39096069">
            <ele>183.466</ele>
            <time>2010-08-05T09:17:32+02:00</time>
          </trkpt>
          <trkpt lon="8.05570889" lat="50.39102173">
            <ele>185.651</ele>
            <time>2010-08-05T09:17:37+02:00</time>
          </trkpt>
          <trkpt lon="8.05572414" lat="50.3910675">
            <ele>188.39</ele>
            <time>2010-08-05T09:17:42+02:00</time>
          </trkpt>
          <trkpt lon="8.0557642" lat="50.39112091">
            <ele>189.881</ele>
            <time>2010-08-05T09:17:47+02:00</time>
          </trkpt>
          <trkpt lon="8.0558176" lat="50.39117432">
            <ele>190.434</ele>
            <time>2010-08-05T09:17:52+02:00</time>
          </trkpt>
          <trkpt lon="8.05584908" lat="50.39122772">
            <ele>191.362</ele>
            <time>2010-08-05T09:17:57+02:00</time>
          </trkpt>
          <trkpt lon="8.05589771" lat="50.39126587">
            <ele>192.11</ele>
            <time>2010-08-05T09:18:02+02:00</time>
          </trkpt>
          <trkpt lon="8.0559063" lat="50.39126587">
            <ele>191.187</ele>
            <time>2010-08-05T09:18:07+02:00</time>
          </trkpt>
          <trkpt lon="8.05592537" lat="50.39131927">
            <ele>192.467</ele>
            <time>2010-08-05T09:18:12+02:00</time>
          </trkpt>
          <trkpt lon="8.05596256" lat="50.3915329">
            <ele>192.917</ele>
            <time>2010-08-05T09:18:17+02:00</time>
          </trkpt>
          <trkpt lon="8.05602837" lat="50.39173889">
            <ele>192.511</ele>
            <time>2010-08-05T09:18:22+02:00</time>
          </trkpt>
          <trkpt lon="8.05605602" lat="50.39177704">
            <ele>191.144</ele>
            <time>2010-08-05T09:18:27+02:00</time>
          </trkpt>
          <trkpt lon="8.05608082" lat="50.39180756">
            <ele>190.059</ele>
            <time>2010-08-05T09:18:32+02:00</time>
          </trkpt>
          <trkpt lon="8.05606842" lat="50.39173889">
            <ele>185.493</ele>
            <time>2010-08-05T09:18:37+02:00</time>
          </trkpt>
          <trkpt lon="8.05607796" lat="50.39180756">
            <ele>184.599</ele>
            <time>2010-08-05T09:18:42+02:00</time>
          </trkpt>
          <trkpt lon="8.05608368" lat="50.39186478">
            <ele>183.283</ele>
            <time>2010-08-05T09:18:47+02:00</time>
          </trkpt>
          <trkpt lon="8.05608559" lat="50.391922">
            <ele>183.473</ele>
            <time>2010-08-05T09:18:52+02:00</time>
          </trkpt>
          <trkpt lon="8.05610943" lat="50.3919487">
            <ele>183.004</ele>
            <time>2010-08-05T09:18:57+02:00</time>
          </trkpt>
          <trkpt lon="8.05618191" lat="50.39199066">
            <ele>179.877</ele>
            <time>2010-08-05T09:19:02+02:00</time>
          </trkpt>
          <trkpt lon="8.05626488" lat="50.39202881">
            <ele>178.772</ele>
            <time>2010-08-05T09:19:07+02:00</time>
          </trkpt>
          <trkpt lon="8.05628967" lat="50.39204025">
            <ele>178.42</ele>
            <time>2010-08-05T09:19:12+02:00</time>
          </trkpt>
          <trkpt lon="8.0563097" lat="50.39209366">
            <ele>177.448</ele>
            <time>2010-08-05T09:19:17+02:00</time>
          </trkpt>
          <trkpt lon="8.05634212" lat="50.39216232">
            <ele>176.523</ele>
            <time>2010-08-05T09:19:22+02:00</time>
          </trkpt>
          <trkpt lon="8.05638504" lat="50.39225769">
            <ele>175.661</ele>
            <time>2010-08-05T09:19:27+02:00</time>
          </trkpt>
          <trkpt lon="8.05642223" lat="50.39229965">
            <ele>174.701</ele>
            <time>2010-08-05T09:19:32+02:00</time>
          </trkpt>
          <trkpt lon="8.05645657" lat="50.39235306">
            <ele>173.072</ele>
            <time>2010-08-05T09:19:37+02:00</time>
          </trkpt>
          <trkpt lon="8.05647469" lat="50.39234543">
            <ele>171.719</ele>
            <time>2010-08-05T09:19:42+02:00</time>
          </trkpt>
          <trkpt lon="8.05651855" lat="50.39237976">
            <ele>172.032</ele>
            <time>2010-08-05T09:19:47+02:00</time>
          </trkpt>
          <trkpt lon="8.05656242" lat="50.39248657">
            <ele>173.809</ele>
            <time>2010-08-05T09:19:52+02:00</time>
          </trkpt>
          <trkpt lon="8.05658054" lat="50.39252472">
            <ele>172.573</ele>
            <time>2010-08-05T09:19:57+02:00</time>
          </trkpt>
          <trkpt lon="8.05662727" lat="50.39258575">
            <ele>172.655</ele>
            <time>2010-08-05T09:20:02+02:00</time>
          </trkpt>
          <trkpt lon="8.05666065" lat="50.39262772">
            <ele>173.449</ele>
            <time>2010-08-05T09:20:07+02:00</time>
          </trkpt>
          <trkpt lon="8.05670166" lat="50.3926506">
            <ele>174.466</ele>
            <time>2010-08-05T09:20:12+02:00</time>
          </trkpt>
          <trkpt lon="8.05673313" lat="50.39268112">
            <ele>174.77</ele>
            <time>2010-08-05T09:20:17+02:00</time>
          </trkpt>
          <trkpt lon="8.05675888" lat="50.39280319">
            <ele>172.823</ele>
            <time>2010-08-05T09:20:22+02:00</time>
          </trkpt>
          <trkpt lon="8.0568018" lat="50.39287567">
            <ele>173.008</ele>
            <time>2010-08-05T09:20:27+02:00</time>
          </trkpt>
          <trkpt lon="8.05683327" lat="50.39292908">
            <ele>173.976</ele>
            <time>2010-08-05T09:20:32+02:00</time>
          </trkpt>
          <trkpt lon="8.05684185" lat="50.39292145">
            <ele>172.86</ele>
            <time>2010-08-05T09:20:37+02:00</time>
          </trkpt>
          <trkpt lon="8.05687523" lat="50.39297485">
            <ele>172.29</ele>
            <time>2010-08-05T09:20:42+02:00</time>
          </trkpt>
          <trkpt lon="8.05692577" lat="50.39310455">
            <ele>172.91</ele>
            <time>2010-08-05T09:20:47+02:00</time>
          </trkpt>
          <trkpt lon="8.05694771" lat="50.39315796">
            <ele>171.316</ele>
            <time>2010-08-05T09:20:52+02:00</time>
          </trkpt>
          <trkpt lon="8.05695343" lat="50.39317322">
            <ele>169.742</ele>
            <time>2010-08-05T09:20:57+02:00</time>
          </trkpt>
          <trkpt lon="8.05696583" lat="50.39321518">
            <ele>168.968</ele>
            <time>2010-08-05T09:21:02+02:00</time>
          </trkpt>
          <trkpt lon="8.05702305" lat="50.39326477">
            <ele>168.83</ele>
            <time>2010-08-05T09:21:07+02:00</time>
          </trkpt>
          <trkpt lon="8.0570507" lat="50.39332962">
            <ele>167.891</ele>
            <time>2010-08-05T09:21:12+02:00</time>
          </trkpt>
          <trkpt lon="8.05708218" lat="50.39335251">
            <ele>167.801</ele>
            <time>2010-08-05T09:21:17+02:00</time>
          </trkpt>
          <trkpt lon="8.05714226" lat="50.39339828">
            <ele>167.71</ele>
            <time>2010-08-05T09:21:22+02:00</time>
          </trkpt>
          <trkpt lon="8.05717468" lat="50.39345932">
            <ele>167.1</ele>
            <time>2010-08-05T09:21:27+02:00</time>
          </trkpt>
          <trkpt lon="8.05723095" lat="50.39354324">
            <ele>165.551</ele>
            <time>2010-08-05T09:21:32+02:00</time>
          </trkpt>
          <trkpt lon="8.05728054" lat="50.39362717">
            <ele>166.123</ele>
            <time>2010-08-05T09:21:37+02:00</time>
          </trkpt>
          <trkpt lon="8.05728817" lat="50.39369583">
            <ele>165.632</ele>
            <time>2010-08-05T09:21:42+02:00</time>
          </trkpt>
          <trkpt lon="8.0573082" lat="50.39373779">
            <ele>165.764</ele>
            <time>2010-08-05T09:21:47+02:00</time>
          </trkpt>
          <trkpt lon="8.05731297" lat="50.39374542">
            <ele>166.018</ele>
            <time>2010-08-05T09:21:52+02:00</time>
          </trkpt>
          <trkpt lon="8.05733681" lat="50.39376068">
            <ele>166.16</ele>
            <time>2010-08-05T09:21:57+02:00</time>
          </trkpt>
          <trkpt lon="8.05737972" lat="50.39377213">
            <ele>167.123</ele>
            <time>2010-08-05T09:22:02+02:00</time>
          </trkpt>
          <trkpt lon="8.05740261" lat="50.39377594">
            <ele>167.81</ele>
            <time>2010-08-05T09:22:07+02:00</time>
          </trkpt>
          <trkpt lon="8.0574379" lat="50.39377213">
            <ele>165.677</ele>
            <time>2010-08-05T09:22:12+02:00</time>
          </trkpt>
          <trkpt lon="8.05748653" lat="50.39374924">
            <ele>164.223</ele>
            <time>2010-08-05T09:22:17+02:00</time>
          </trkpt>
          <trkpt lon="8.05753422" lat="50.39372253">
            <ele>163.672</ele>
            <time>2010-08-05T09:22:22+02:00</time>
          </trkpt>
          <trkpt lon="8.05755424" lat="50.39370728">
            <ele>163.101</ele>
            <time>2010-08-05T09:22:27+02:00</time>
          </trkpt>
          <trkpt lon="8.05755138" lat="50.39370346">
            <ele>162.926</ele>
            <time>2010-08-05T09:22:32+02:00</time>
          </trkpt>
          <trkpt lon="8.05758381" lat="50.39369202">
            <ele>162.89</ele>
            <time>2010-08-05T09:22:37+02:00</time>
          </trkpt>
          <trkpt lon="8.0576334" lat="50.3936615">
            <ele>163.11</ele>
            <time>2010-08-05T09:22:42+02:00</time>
          </trkpt>
          <trkpt lon="8.05767345" lat="50.39361572">
            <ele>163.765</ele>
            <time>2010-08-05T09:22:47+02:00</time>
          </trkpt>
          <trkpt lon="8.05773258" lat="50.39358902">
            <ele>164.765</ele>
            <time>2010-08-05T09:22:52+02:00</time>
          </trkpt>
          <trkpt lon="8.05779743" lat="50.39355087">
            <ele>165.908</ele>
            <time>2010-08-05T09:22:57+02:00</time>
          </trkpt>
          <trkpt lon="8.05786324" lat="50.3935318">
            <ele>167.25</ele>
            <time>2010-08-05T09:23:02+02:00</time>
          </trkpt>
          <trkpt lon="8.05792522" lat="50.39351273">
            <ele>168.856</ele>
            <time>2010-08-05T09:23:07+02:00</time>
          </trkpt>
          <trkpt lon="8.05798054" lat="50.39348602">
            <ele>165.185</ele>
            <time>2010-08-05T09:23:12+02:00</time>
          </trkpt>
          <trkpt lon="8.05805397" lat="50.39347458">
            <ele>163.842</ele>
            <time>2010-08-05T09:23:17+02:00</time>
          </trkpt>
          <trkpt lon="8.05812073" lat="50.39343643">
            <ele>164.091</ele>
            <time>2010-08-05T09:23:22+02:00</time>
          </trkpt>
          <trkpt lon="8.05817032" lat="50.39341354">
            <ele>164.971</ele>
            <time>2010-08-05T09:23:27+02:00</time>
          </trkpt>
          <trkpt lon="8.05821991" lat="50.39336014">
            <ele>165.704</ele>
            <time>2010-08-05T09:23:32+02:00</time>
          </trkpt>
          <trkpt lon="8.05828381" lat="50.39332581">
            <ele>167.089</ele>
            <time>2010-08-05T09:23:37+02:00</time>
          </trkpt>
          <trkpt lon="8.05832291" lat="50.39329529">
            <ele>168.781</ele>
            <time>2010-08-05T09:23:42+02:00</time>
          </trkpt>
          <trkpt lon="8.0583744" lat="50.3932724">
            <ele>170.018</ele>
            <time>2010-08-05T09:23:47+02:00</time>
          </trkpt>
          <trkpt lon="8.05840778" lat="50.39325714">
            <ele>171.416</ele>
            <time>2010-08-05T09:23:52+02:00</time>
          </trkpt>
          <trkpt lon="8.05845261" lat="50.39322281">
            <ele>173.31</ele>
            <time>2010-08-05T09:23:57+02:00</time>
          </trkpt>
          <trkpt lon="8.05849743" lat="50.39317322">
            <ele>173.478</ele>
            <time>2010-08-05T09:24:02+02:00</time>
          </trkpt>
          <trkpt lon="8.05853081" lat="50.39311981">
            <ele>173.708</ele>
            <time>2010-08-05T09:24:07+02:00</time>
          </trkpt>
          <trkpt lon="8.05859375" lat="50.39309692">
            <ele>175.086</ele>
            <time>2010-08-05T09:24:12+02:00</time>
          </trkpt>
          <trkpt lon="8.058671" lat="50.39307404">
            <ele>175.805</ele>
            <time>2010-08-05T09:24:17+02:00</time>
          </trkpt>
          <trkpt lon="8.05874443" lat="50.39304352">
            <ele>176.168</ele>
            <time>2010-08-05T09:24:22+02:00</time>
          </trkpt>
          <trkpt lon="8.05880642" lat="50.39300537">
            <ele>176.658</ele>
            <time>2010-08-05T09:24:27+02:00</time>
          </trkpt>
          <trkpt lon="8.05886936" lat="50.39296722">
            <ele>178.507</ele>
            <time>2010-08-05T09:24:32+02:00</time>
          </trkpt>
          <trkpt lon="8.05891705" lat="50.39291763">
            <ele>179.786</ele>
            <time>2010-08-05T09:24:37+02:00</time>
          </trkpt>
          <trkpt lon="8.05897045" lat="50.39288712">
            <ele>180.887</ele>
            <time>2010-08-05T09:24:42+02:00</time>
          </trkpt>
          <trkpt lon="8.05902863" lat="50.39286804">
            <ele>181.383</ele>
            <time>2010-08-05T09:24:47+02:00</time>
          </trkpt>
          <trkpt lon="8.05909824" lat="50.39283371">
            <ele>181.524</ele>
            <time>2010-08-05T09:24:52+02:00</time>
          </trkpt>
          <trkpt lon="8.05918407" lat="50.39278793">
            <ele>182.497</ele>
            <time>2010-08-05T09:24:57+02:00</time>
          </trkpt>
          <trkpt lon="8.0592432" lat="50.39275742">
            <ele>184.184</ele>
            <time>2010-08-05T09:25:02+02:00</time>
          </trkpt>
          <trkpt lon="8.05929661" lat="50.3927269">
            <ele>186.723</ele>
            <time>2010-08-05T09:25:07+02:00</time>
          </trkpt>
          <trkpt lon="8.05936527" lat="50.39268875">
            <ele>186.932</ele>
            <time>2010-08-05T09:25:12+02:00</time>
          </trkpt>
          <trkpt lon="8.05942345" lat="50.39265823">
            <ele>187.276</ele>
            <time>2010-08-05T09:25:17+02:00</time>
          </trkpt>
          <trkpt lon="8.05948925" lat="50.39262009">
            <ele>188.805</ele>
            <time>2010-08-05T09:25:22+02:00</time>
          </trkpt>
          <trkpt lon="8.05955696" lat="50.39258575">
            <ele>190.11</ele>
            <time>2010-08-05T09:25:27+02:00</time>
          </trkpt>
          <trkpt lon="8.05961418" lat="50.39255524">
            <ele>191.817</ele>
            <time>2010-08-05T09:25:32+02:00</time>
          </trkpt>
          <trkpt lon="8.05967522" lat="50.39251328">
            <ele>191.208</ele>
            <time>2010-08-05T09:25:37+02:00</time>
          </trkpt>
          <trkpt lon="8.05972672" lat="50.39248657">
            <ele>192.664</ele>
            <time>2010-08-05T09:25:42+02:00</time>
          </trkpt>
          <trkpt lon="8.05976868" lat="50.3924408">
            <ele>193.088</ele>
            <time>2010-08-05T09:25:47+02:00</time>
          </trkpt>
          <trkpt lon="8.05983353" lat="50.39240265">
            <ele>193.387</ele>
            <time>2010-08-05T09:25:52+02:00</time>
          </trkpt>
          <trkpt lon="8.05988121" lat="50.39239883">
            <ele>193.898</ele>
            <time>2010-08-05T09:25:57+02:00</time>
          </trkpt>
          <trkpt lon="8.05990982" lat="50.39237976">
            <ele>194.494</ele>
            <time>2010-08-05T09:26:02+02:00</time>
          </trkpt>
          <trkpt lon="8.05994606" lat="50.39232635">
            <ele>196.396</ele>
            <time>2010-08-05T09:26:07+02:00</time>
          </trkpt>
          <trkpt lon="8.05999947" lat="50.39229965">
            <ele>196.913</ele>
            <time>2010-08-05T09:26:12+02:00</time>
          </trkpt>
          <trkpt lon="8.06005383" lat="50.39224625">
            <ele>197.726</ele>
            <time>2010-08-05T09:26:17+02:00</time>
          </trkpt>
          <trkpt lon="8.0601244" lat="50.39217377">
            <ele>196.859</ele>
            <time>2010-08-05T09:26:22+02:00</time>
          </trkpt>
          <trkpt lon="8.06016445" lat="50.39212418">
            <ele>198.477</ele>
            <time>2010-08-05T09:26:27+02:00</time>
          </trkpt>
          <trkpt lon="8.06023979" lat="50.39207077">
            <ele>198.345</ele>
            <time>2010-08-05T09:26:32+02:00</time>
          </trkpt>
          <trkpt lon="8.06029987" lat="50.39202881">
            <ele>198.646</ele>
            <time>2010-08-05T09:26:37+02:00</time>
          </trkpt>
          <trkpt lon="8.06035614" lat="50.39198303">
            <ele>198.776</ele>
            <time>2010-08-05T09:26:42+02:00</time>
          </trkpt>
          <trkpt lon="8.06040478" lat="50.39193344">
            <ele>199.165</ele>
            <time>2010-08-05T09:26:47+02:00</time>
          </trkpt>
          <trkpt lon="8.06045532" lat="50.39189529">
            <ele>200.981</ele>
            <time>2010-08-05T09:26:52+02:00</time>
          </trkpt>
          <trkpt lon="8.06051922" lat="50.39185715">
            <ele>200.507</ele>
            <time>2010-08-05T09:26:57+02:00</time>
          </trkpt>
          <trkpt lon="8.06057835" lat="50.39182281">
            <ele>200.129</ele>
            <time>2010-08-05T09:27:02+02:00</time>
          </trkpt>
          <trkpt lon="8.06064415" lat="50.39178467">
            <ele>200.904</ele>
            <time>2010-08-05T09:27:07+02:00</time>
          </trkpt>
          <trkpt lon="8.06067753" lat="50.39176178">
            <ele>202.357</ele>
            <time>2010-08-05T09:27:12+02:00</time>
          </trkpt>
          <trkpt lon="8.06068707" lat="50.39175034">
            <ele>203.753</ele>
            <time>2010-08-05T09:27:17+02:00</time>
          </trkpt>
          <trkpt lon="8.06068897" lat="50.39175415">
            <ele>203.081</ele>
            <time>2010-08-05T09:27:22+02:00</time>
          </trkpt>
          <trkpt lon="8.06079388" lat="50.39173126">
            <ele>202.447</ele>
            <time>2010-08-05T09:27:27+02:00</time>
          </trkpt>
          <trkpt lon="8.06083107" lat="50.39165878">
            <ele>202.574</ele>
            <time>2010-08-05T09:27:32+02:00</time>
          </trkpt>
          <trkpt lon="8.06089211" lat="50.39161682">
            <ele>202.582</ele>
            <time>2010-08-05T09:27:37+02:00</time>
          </trkpt>
          <trkpt lon="8.06094265" lat="50.39157867">
            <ele>203.085</ele>
            <time>2010-08-05T09:27:42+02:00</time>
          </trkpt>
          <trkpt lon="8.06099892" lat="50.39155197">
            <ele>203.968</ele>
            <time>2010-08-05T09:27:47+02:00</time>
          </trkpt>
          <trkpt lon="8.06105328" lat="50.39149475">
            <ele>204.479</ele>
            <time>2010-08-05T09:27:52+02:00</time>
          </trkpt>
          <trkpt lon="8.06108856" lat="50.39144516">
            <ele>204.704</ele>
            <time>2010-08-05T09:27:57+02:00</time>
          </trkpt>
          <trkpt lon="8.06113815" lat="50.3913765">
            <ele>204.881</ele>
            <time>2010-08-05T09:28:02+02:00</time>
          </trkpt>
          <trkpt lon="8.06119823" lat="50.39133072">
            <ele>204.601</ele>
            <time>2010-08-05T09:28:07+02:00</time>
          </trkpt>
          <trkpt lon="8.06128693" lat="50.3912735">
            <ele>204.513</ele>
            <time>2010-08-05T09:28:12+02:00</time>
          </trkpt>
          <trkpt lon="8.06136036" lat="50.39123535">
            <ele>204.22</ele>
            <time>2010-08-05T09:28:17+02:00</time>
          </trkpt>
          <trkpt lon="8.06140518" lat="50.39120102">
            <ele>204.002</ele>
            <time>2010-08-05T09:28:22+02:00</time>
          </trkpt>
          <trkpt lon="8.06145763" lat="50.39117813">
            <ele>204.893</ele>
            <time>2010-08-05T09:28:27+02:00</time>
          </trkpt>
          <trkpt lon="8.06151485" lat="50.39113998">
            <ele>205.185</ele>
            <time>2010-08-05T09:28:32+02:00</time>
          </trkpt>
          <trkpt lon="8.06157875" lat="50.3911171">
            <ele>205.827</ele>
            <time>2010-08-05T09:28:37+02:00</time>
          </trkpt>
          <trkpt lon="8.06165504" lat="50.39109039">
            <ele>207.705</ele>
            <time>2010-08-05T09:28:42+02:00</time>
          </trkpt>
          <trkpt lon="8.06174278" lat="50.39103317">
            <ele>208.411</ele>
            <time>2010-08-05T09:28:47+02:00</time>
          </trkpt>
          <trkpt lon="8.06182957" lat="50.39101028">
            <ele>208.759</ele>
            <time>2010-08-05T09:28:52+02:00</time>
          </trkpt>
          <trkpt lon="8.06185722" lat="50.39097595">
            <ele>210.195</ele>
            <time>2010-08-05T09:28:57+02:00</time>
          </trkpt>
          <trkpt lon="8.06198978" lat="50.39094925">
            <ele>211.21</ele>
            <time>2010-08-05T09:29:02+02:00</time>
          </trkpt>
          <trkpt lon="8.06201172" lat="50.39094543">
            <ele>212.958</ele>
            <time>2010-08-05T09:29:07+02:00</time>
          </trkpt>
          <trkpt lon="8.06223488" lat="50.39089966">
            <ele>211.707</ele>
            <time>2010-08-05T09:29:12+02:00</time>
          </trkpt>
          <trkpt lon="8.06223106" lat="50.39082718">
            <ele>213.556</ele>
            <time>2010-08-05T09:29:17+02:00</time>
          </trkpt>
          <trkpt lon="8.0621109" lat="50.39073181">
            <ele>212.691</ele>
            <time>2010-08-05T09:29:22+02:00</time>
          </trkpt>
          <trkpt lon="8.06208134" lat="50.39066315">
            <ele>214.035</ele>
            <time>2010-08-05T09:29:27+02:00</time>
          </trkpt>
          <trkpt lon="8.06210804" lat="50.39066315">
            <ele>214.523</ele>
            <time>2010-08-05T09:29:32+02:00</time>
          </trkpt>
          <trkpt lon="8.06207561" lat="50.39059067">
            <ele>213.199</ele>
            <time>2010-08-05T09:29:37+02:00</time>
          </trkpt>
          <trkpt lon="8.06208515" lat="50.39056396">
            <ele>212.461</ele>
            <time>2010-08-05T09:29:42+02:00</time>
          </trkpt>
          <trkpt lon="8.06208324" lat="50.39053345">
            <ele>211.478</ele>
            <time>2010-08-05T09:29:47+02:00</time>
          </trkpt>
          <trkpt lon="8.06207943" lat="50.39048004">
            <ele>211.584</ele>
            <time>2010-08-05T09:29:52+02:00</time>
          </trkpt>
          <trkpt lon="8.06208801" lat="50.39043427">
            <ele>212.182</ele>
            <time>2010-08-05T09:29:57+02:00</time>
          </trkpt>
          <trkpt lon="8.06214428" lat="50.39037323">
            <ele>211.812</ele>
            <time>2010-08-05T09:30:02+02:00</time>
          </trkpt>
          <trkpt lon="8.06223583" lat="50.39027786">
            <ele>213.344</ele>
            <time>2010-08-05T09:30:07+02:00</time>
          </trkpt>
          <trkpt lon="8.06236267" lat="50.3902626">
            <ele>213.652</ele>
            <time>2010-08-05T09:30:12+02:00</time>
          </trkpt>
          <trkpt lon="8.06252193" lat="50.39037704">
            <ele>215.693</ele>
            <time>2010-08-05T09:30:17+02:00</time>
          </trkpt>
          <trkpt lon="8.06265163" lat="50.39050674">
            <ele>219.301</ele>
            <time>2010-08-05T09:30:22+02:00</time>
          </trkpt>
          <trkpt lon="8.06268883" lat="50.39051437">
            <ele>219.971</ele>
            <time>2010-08-05T09:30:27+02:00</time>
          </trkpt>
          <trkpt lon="8.06273365" lat="50.39052582">
            <ele>220.255</ele>
            <time>2010-08-05T09:30:32+02:00</time>
          </trkpt>
          <trkpt lon="8.06282425" lat="50.39054108">
            <ele>220.777</ele>
            <time>2010-08-05T09:30:37+02:00</time>
          </trkpt>
          <trkpt lon="8.06287193" lat="50.39053726">
            <ele>219.823</ele>
            <time>2010-08-05T09:30:42+02:00</time>
          </trkpt>
          <trkpt lon="8.0629406" lat="50.39054108">
            <ele>220.151</ele>
            <time>2010-08-05T09:30:47+02:00</time>
          </trkpt>
          <trkpt lon="8.06305599" lat="50.39055252">
            <ele>221.563</ele>
            <time>2010-08-05T09:30:52+02:00</time>
          </trkpt>
          <trkpt lon="8.06310654" lat="50.39054489">
            <ele>222.547</ele>
            <time>2010-08-05T09:30:57+02:00</time>
          </trkpt>
          <trkpt lon="8.06316566" lat="50.39053726">
            <ele>223.505</ele>
            <time>2010-08-05T09:31:02+02:00</time>
          </trkpt>
          <trkpt lon="8.06320381" lat="50.39052963">
            <ele>223.341</ele>
            <time>2010-08-05T09:31:07+02:00</time>
          </trkpt>
          <trkpt lon="8.06320286" lat="50.39052963">
            <ele>223.943</ele>
            <time>2010-08-05T09:31:12+02:00</time>
          </trkpt>
          <trkpt lon="8.0632019" lat="50.39052963">
            <ele>224.162</ele>
            <time>2010-08-05T09:31:17+02:00</time>
          </trkpt>
          <trkpt lon="8.06323719" lat="50.39053345">
            <ele>223.936</ele>
            <time>2010-08-05T09:31:22+02:00</time>
          </trkpt>
          <trkpt lon="8.06324577" lat="50.39053726">
            <ele>224.197</ele>
            <time>2010-08-05T09:31:27+02:00</time>
          </trkpt>
          <trkpt lon="8.06325817" lat="50.39051056">
            <ele>224.054</ele>
            <time>2010-08-05T09:31:32+02:00</time>
          </trkpt>
          <trkpt lon="8.06331444" lat="50.39044189">
            <ele>223.766</ele>
            <time>2010-08-05T09:31:37+02:00</time>
          </trkpt>
          <trkpt lon="8.06342411" lat="50.39040756">
            <ele>222.577</ele>
            <time>2010-08-05T09:31:42+02:00</time>
          </trkpt>
          <trkpt lon="8.06350136" lat="50.39038086">
            <ele>221.907</ele>
            <time>2010-08-05T09:31:47+02:00</time>
          </trkpt>
          <trkpt lon="8.06355476" lat="50.3903656">
            <ele>222.031</ele>
            <time>2010-08-05T09:31:52+02:00</time>
          </trkpt>
          <trkpt lon="8.06359482" lat="50.39038849">
            <ele>221.649</ele>
            <time>2010-08-05T09:31:57+02:00</time>
          </trkpt>
          <trkpt lon="8.06364346" lat="50.39036942">
            <ele>221.731</ele>
            <time>2010-08-05T09:32:02+02:00</time>
          </trkpt>
          <trkpt lon="8.06368828" lat="50.39043045">
            <ele>221.5</ele>
            <time>2010-08-05T09:32:07+02:00</time>
          </trkpt>
          <trkpt lon="8.06379032" lat="50.39049149">
            <ele>221.639</ele>
            <time>2010-08-05T09:32:12+02:00</time>
          </trkpt>
          <trkpt lon="8.06384087" lat="50.390522">
            <ele>221.534</ele>
            <time>2010-08-05T09:32:17+02:00</time>
          </trkpt>
          <trkpt lon="8.06402206" lat="50.39051437">
            <ele>220.786</ele>
            <time>2010-08-05T09:32:22+02:00</time>
          </trkpt>
          <trkpt lon="8.06403446" lat="50.39049911">
            <ele>221.104</ele>
            <time>2010-08-05T09:32:27+02:00</time>
          </trkpt>
          <trkpt lon="8.06397915" lat="50.3904953">
            <ele>221.05</ele>
            <time>2010-08-05T09:32:32+02:00</time>
          </trkpt>
          <trkpt lon="8.06399155" lat="50.39051437">
            <ele>221.658</ele>
            <time>2010-08-05T09:32:37+02:00</time>
          </trkpt>
          <trkpt lon="8.06400967" lat="50.39053726">
            <ele>221.888</ele>
            <time>2010-08-05T09:32:42+02:00</time>
          </trkpt>
          <trkpt lon="8.06403732" lat="50.39057159">
            <ele>222.214</ele>
            <time>2010-08-05T09:32:47+02:00</time>
          </trkpt>
          <trkpt lon="8.06406784" lat="50.39060593">
            <ele>221.966</ele>
            <time>2010-08-05T09:32:52+02:00</time>
          </trkpt>
          <trkpt lon="8.06412315" lat="50.39065933">
            <ele>221.18</ele>
            <time>2010-08-05T09:32:57+02:00</time>
          </trkpt>
          <trkpt lon="8.06416035" lat="50.39069366">
            <ele>220.154</ele>
            <time>2010-08-05T09:33:02+02:00</time>
          </trkpt>
          <trkpt lon="8.06419373" lat="50.39071274">
            <ele>219.571</ele>
            <time>2010-08-05T09:33:07+02:00</time>
          </trkpt>
          <trkpt lon="8.06420803" lat="50.39071655">
            <ele>219.304</ele>
            <time>2010-08-05T09:33:12+02:00</time>
          </trkpt>
          <trkpt lon="8.06423473" lat="50.39073181">
            <ele>218.977</ele>
            <time>2010-08-05T09:33:17+02:00</time>
          </trkpt>
          <trkpt lon="8.06424522" lat="50.39074707">
            <ele>217.932</ele>
            <time>2010-08-05T09:33:22+02:00</time>
          </trkpt>
          <trkpt lon="8.06427002" lat="50.39077377">
            <ele>215.158</ele>
            <time>2010-08-05T09:33:27+02:00</time>
          </trkpt>
          <trkpt lon="8.06428528" lat="50.39077377">
            <ele>214.776</ele>
            <time>2010-08-05T09:33:32+02:00</time>
          </trkpt>
          <trkpt lon="8.06428623" lat="50.39077377">
            <ele>214.837</ele>
            <time>2010-08-05T09:33:37+02:00</time>
          </trkpt>
          <trkpt lon="8.0643301" lat="50.39079666">
            <ele>214.057</ele>
            <time>2010-08-05T09:33:42+02:00</time>
          </trkpt>
          <trkpt lon="8.06434822" lat="50.39081573">
            <ele>212.934</ele>
            <time>2010-08-05T09:33:47+02:00</time>
          </trkpt>
          <trkpt lon="8.06436729" lat="50.39081955">
            <ele>212.099</ele>
            <time>2010-08-05T09:33:52+02:00</time>
          </trkpt>
          <trkpt lon="8.06440353" lat="50.39085388">
            <ele>211.489</ele>
            <time>2010-08-05T09:33:57+02:00</time>
          </trkpt>
          <trkpt lon="8.06444836" lat="50.39088821">
            <ele>209.958</ele>
            <time>2010-08-05T09:34:02+02:00</time>
          </trkpt>
          <trkpt lon="8.06449986" lat="50.39094925">
            <ele>207.774</ele>
            <time>2010-08-05T09:34:07+02:00</time>
          </trkpt>
          <trkpt lon="8.06455135" lat="50.39099503">
            <ele>207.111</ele>
            <time>2010-08-05T09:34:12+02:00</time>
          </trkpt>
          <trkpt lon="8.06459713" lat="50.39103317">
            <ele>205.591</ele>
            <time>2010-08-05T09:34:17+02:00</time>
          </trkpt>
          <trkpt lon="8.06463814" lat="50.39105225">
            <ele>204.144</ele>
            <time>2010-08-05T09:34:22+02:00</time>
          </trkpt>
          <trkpt lon="8.06468868" lat="50.39109802">
            <ele>202.286</ele>
            <time>2010-08-05T09:34:27+02:00</time>
          </trkpt>
          <trkpt lon="8.06475258" lat="50.39115524">
            <ele>199.401</ele>
            <time>2010-08-05T09:34:32+02:00</time>
          </trkpt>
          <trkpt lon="8.06480312" lat="50.39120483">
            <ele>198.146</ele>
            <time>2010-08-05T09:34:37+02:00</time>
          </trkpt>
          <trkpt lon="8.06487656" lat="50.39124298">
            <ele>196.62</ele>
            <time>2010-08-05T09:34:42+02:00</time>
          </trkpt>
          <trkpt lon="8.06492233" lat="50.39123535">
            <ele>195.052</ele>
            <time>2010-08-05T09:34:47+02:00</time>
          </trkpt>
          <trkpt lon="8.06499958" lat="50.39133453">
            <ele>193.927</ele>
            <time>2010-08-05T09:34:52+02:00</time>
          </trkpt>
          <trkpt lon="8.06507111" lat="50.3913765">
            <ele>193.011</ele>
            <time>2010-08-05T09:34:57+02:00</time>
          </trkpt>
          <trkpt lon="8.06508923" lat="50.39139938">
            <ele>191.626</ele>
            <time>2010-08-05T09:35:02+02:00</time>
          </trkpt>
          <trkpt lon="8.06511211" lat="50.39139938">
            <ele>190.832</ele>
            <time>2010-08-05T09:35:07+02:00</time>
          </trkpt>
          <trkpt lon="8.065135" lat="50.39141083">
            <ele>190.053</ele>
            <time>2010-08-05T09:35:12+02:00</time>
          </trkpt>
          <trkpt lon="8.06517124" lat="50.39146042">
            <ele>188.384</ele>
            <time>2010-08-05T09:35:17+02:00</time>
          </trkpt>
          <trkpt lon="8.06524754" lat="50.39148712">
            <ele>187.939</ele>
            <time>2010-08-05T09:35:22+02:00</time>
          </trkpt>
          <trkpt lon="8.06532288" lat="50.39149094">
            <ele>187.435</ele>
            <time>2010-08-05T09:35:27+02:00</time>
          </trkpt>
          <trkpt lon="8.06540108" lat="50.39147568">
            <ele>189.037</ele>
            <time>2010-08-05T09:35:32+02:00</time>
          </trkpt>
          <trkpt lon="8.06546688" lat="50.39146042">
            <ele>191.475</ele>
            <time>2010-08-05T09:35:37+02:00</time>
          </trkpt>
          <trkpt lon="8.06550407" lat="50.39144135">
            <ele>193.86</ele>
            <time>2010-08-05T09:35:42+02:00</time>
          </trkpt>
          <trkpt lon="8.0655489" lat="50.39142227">
            <ele>195.964</ele>
            <time>2010-08-05T09:35:47+02:00</time>
          </trkpt>
          <trkpt lon="8.0656414" lat="50.39139557">
            <ele>196.603</ele>
            <time>2010-08-05T09:35:52+02:00</time>
          </trkpt>
          <trkpt lon="8.06571388" lat="50.39137268">
            <ele>197.78</ele>
            <time>2010-08-05T09:35:57+02:00</time>
          </trkpt>
          <trkpt lon="8.06579304" lat="50.39134216">
            <ele>198.391</ele>
            <time>2010-08-05T09:36:02+02:00</time>
          </trkpt>
          <trkpt lon="8.06587124" lat="50.39131927">
            <ele>199.349</ele>
            <time>2010-08-05T09:36:07+02:00</time>
          </trkpt>
          <trkpt lon="8.06595898" lat="50.39131927">
            <ele>198.808</ele>
            <time>2010-08-05T09:36:12+02:00</time>
          </trkpt>
          <trkpt lon="8.06603241" lat="50.39131927">
            <ele>199.163</ele>
            <time>2010-08-05T09:36:17+02:00</time>
          </trkpt>
          <trkpt lon="8.0661459" lat="50.39129639">
            <ele>197.922</ele>
            <time>2010-08-05T09:36:22+02:00</time>
          </trkpt>
          <trkpt lon="8.06624126" lat="50.39127731">
            <ele>198.029</ele>
            <time>2010-08-05T09:36:27+02:00</time>
          </trkpt>
          <trkpt lon="8.0663147" lat="50.39126587">
            <ele>197.905</ele>
            <time>2010-08-05T09:36:32+02:00</time>
          </trkpt>
          <trkpt lon="8.0664053" lat="50.39125824">
            <ele>197.998</ele>
            <time>2010-08-05T09:36:37+02:00</time>
          </trkpt>
          <trkpt lon="8.06650257" lat="50.3912468">
            <ele>197.138</ele>
            <time>2010-08-05T09:36:42+02:00</time>
          </trkpt>
          <trkpt lon="8.06658363" lat="50.39122772">
            <ele>196.891</ele>
            <time>2010-08-05T09:36:47+02:00</time>
          </trkpt>
          <trkpt lon="8.06669426" lat="50.3911972">
            <ele>195.236</ele>
            <time>2010-08-05T09:36:52+02:00</time>
          </trkpt>
          <trkpt lon="8.066782" lat="50.39116669">
            <ele>194.541</ele>
            <time>2010-08-05T09:36:57+02:00</time>
          </trkpt>
          <trkpt lon="8.06687546" lat="50.39113617">
            <ele>193.747</ele>
            <time>2010-08-05T09:37:02+02:00</time>
          </trkpt>
          <trkpt lon="8.06695175" lat="50.3911171">
            <ele>193.066</ele>
            <time>2010-08-05T09:37:07+02:00</time>
          </trkpt>
          <trkpt lon="8.06702995" lat="50.39109039">
            <ele>193.163</ele>
            <time>2010-08-05T09:37:12+02:00</time>
          </trkpt>
          <trkpt lon="8.0671196" lat="50.39105606">
            <ele>192.531</ele>
            <time>2010-08-05T09:37:17+02:00</time>
          </trkpt>
          <trkpt lon="8.06719875" lat="50.39102554">
            <ele>192.025</ele>
            <time>2010-08-05T09:37:22+02:00</time>
          </trkpt>
          <trkpt lon="8.06726742" lat="50.3909874">
            <ele>192.522</ele>
            <time>2010-08-05T09:37:27+02:00</time>
          </trkpt>
          <trkpt lon="8.06731796" lat="50.39095306">
            <ele>194.181</ele>
            <time>2010-08-05T09:37:32+02:00</time>
          </trkpt>
          <trkpt lon="8.06737614" lat="50.39090729">
            <ele>194.47</ele>
            <time>2010-08-05T09:37:37+02:00</time>
          </trkpt>
          <trkpt lon="8.06743336" lat="50.39086533">
            <ele>194.883</ele>
            <time>2010-08-05T09:37:42+02:00</time>
          </trkpt>
          <trkpt lon="8.06747627" lat="50.39082336">
            <ele>195.732</ele>
            <time>2010-08-05T09:37:47+02:00</time>
          </trkpt>
          <trkpt lon="8.06753826" lat="50.39078522">
            <ele>196.375</ele>
            <time>2010-08-05T09:37:52+02:00</time>
          </trkpt>
          <trkpt lon="8.06758785" lat="50.39076233">
            <ele>196.65</ele>
            <time>2010-08-05T09:37:57+02:00</time>
          </trkpt>
          <trkpt lon="8.06760597" lat="50.39075851">
            <ele>195.613</ele>
            <time>2010-08-05T09:38:02+02:00</time>
          </trkpt>
          <trkpt lon="8.06760693" lat="50.39075851">
            <ele>195.649</ele>
            <time>2010-08-05T09:38:07+02:00</time>
          </trkpt>
          <trkpt lon="8.0676651" lat="50.39075089">
            <ele>193.503</ele>
            <time>2010-08-05T09:38:12+02:00</time>
          </trkpt>
          <trkpt lon="8.06778717" lat="50.39070892">
            <ele>190.582</ele>
            <time>2010-08-05T09:38:17+02:00</time>
          </trkpt>
          <trkpt lon="8.06789303" lat="50.39067841">
            <ele>190.09</ele>
            <time>2010-08-05T09:38:22+02:00</time>
          </trkpt>
          <trkpt lon="8.06799984" lat="50.39065552">
            <ele>189.805</ele>
            <time>2010-08-05T09:38:27+02:00</time>
          </trkpt>
          <trkpt lon="8.06808281" lat="50.39061737">
            <ele>189.821</ele>
            <time>2010-08-05T09:38:32+02:00</time>
          </trkpt>
          <trkpt lon="8.06815815" lat="50.39058304">
            <ele>189.043</ele>
            <time>2010-08-05T09:38:37+02:00</time>
          </trkpt>
          <trkpt lon="8.06824589" lat="50.39056778">
            <ele>189.901</ele>
            <time>2010-08-05T09:38:42+02:00</time>
          </trkpt>
          <trkpt lon="8.06833076" lat="50.39055252">
            <ele>189.888</ele>
            <time>2010-08-05T09:38:47+02:00</time>
          </trkpt>
          <trkpt lon="8.06840992" lat="50.39052963">
            <ele>191.191</ele>
            <time>2010-08-05T09:38:52+02:00</time>
          </trkpt>
          <trkpt lon="8.06847668" lat="50.3904953">
            <ele>192.465</ele>
            <time>2010-08-05T09:38:57+02:00</time>
          </trkpt>
          <trkpt lon="8.0685463" lat="50.39047241">
            <ele>193.567</ele>
            <time>2010-08-05T09:39:02+02:00</time>
          </trkpt>
          <trkpt lon="8.06860256" lat="50.39043808">
            <ele>194.104</ele>
            <time>2010-08-05T09:39:07+02:00</time>
          </trkpt>
          <trkpt lon="8.06866264" lat="50.39041138">
            <ele>195.447</ele>
            <time>2010-08-05T09:39:12+02:00</time>
          </trkpt>
          <trkpt lon="8.06873512" lat="50.39038849">
            <ele>196.579</ele>
            <time>2010-08-05T09:39:17+02:00</time>
          </trkpt>
          <trkpt lon="8.06879711" lat="50.39036179">
            <ele>197.796</ele>
            <time>2010-08-05T09:39:22+02:00</time>
          </trkpt>
          <trkpt lon="8.06885815" lat="50.39033508">
            <ele>198.619</ele>
            <time>2010-08-05T09:39:27+02:00</time>
          </trkpt>
          <trkpt lon="8.06891441" lat="50.39030838">
            <ele>200.595</ele>
            <time>2010-08-05T09:39:32+02:00</time>
          </trkpt>
          <trkpt lon="8.06899166" lat="50.39028168">
            <ele>201.111</ele>
            <time>2010-08-05T09:39:37+02:00</time>
          </trkpt>
          <trkpt lon="8.0690527" lat="50.39024353">
            <ele>201.656</ele>
            <time>2010-08-05T09:39:42+02:00</time>
          </trkpt>
          <trkpt lon="8.06911278" lat="50.39021683">
            <ele>202.997</ele>
            <time>2010-08-05T09:39:47+02:00</time>
          </trkpt>
          <trkpt lon="8.06916332" lat="50.39018631">
            <ele>203.946</ele>
            <time>2010-08-05T09:39:52+02:00</time>
          </trkpt>
          <trkpt lon="8.06922913" lat="50.39017105">
            <ele>204.866</ele>
            <time>2010-08-05T09:39:57+02:00</time>
          </trkpt>
          <trkpt lon="8.06928158" lat="50.39014816">
            <ele>206.683</ele>
            <time>2010-08-05T09:40:02+02:00</time>
          </trkpt>
          <trkpt lon="8.06935883" lat="50.39011765">
            <ele>206.383</ele>
            <time>2010-08-05T09:40:07+02:00</time>
          </trkpt>
          <trkpt lon="8.06945133" lat="50.39009094">
            <ele>205.517</ele>
            <time>2010-08-05T09:40:12+02:00</time>
          </trkpt>
          <trkpt lon="8.06952477" lat="50.3900795">
            <ele>206.899</ele>
            <time>2010-08-05T09:40:17+02:00</time>
          </trkpt>
          <trkpt lon="8.06962776" lat="50.39006042">
            <ele>206.624</ele>
            <time>2010-08-05T09:40:22+02:00</time>
          </trkpt>
          <trkpt lon="8.06970978" lat="50.39003372">
            <ele>206.12</ele>
            <time>2010-08-05T09:40:27+02:00</time>
          </trkpt>
          <trkpt lon="8.06980705" lat="50.39002228">
            <ele>205.932</ele>
            <time>2010-08-05T09:40:32+02:00</time>
          </trkpt>
          <trkpt lon="8.06989384" lat="50.38998795">
            <ele>204.768</ele>
            <time>2010-08-05T09:40:37+02:00</time>
          </trkpt>
          <trkpt lon="8.06999683" lat="50.38997269">
            <ele>204.835</ele>
            <time>2010-08-05T09:40:42+02:00</time>
          </trkpt>
          <trkpt lon="8.07007599" lat="50.38995361">
            <ele>205.587</ele>
            <time>2010-08-05T09:40:47+02:00</time>
          </trkpt>
          <trkpt lon="8.07015133" lat="50.3899231">
            <ele>206.087</ele>
            <time>2010-08-05T09:40:52+02:00</time>
          </trkpt>
          <trkpt lon="8.07022762" lat="50.38990402">
            <ele>207.234</ele>
            <time>2010-08-05T09:40:57+02:00</time>
          </trkpt>
          <trkpt lon="8.07029915" lat="50.38988495">
            <ele>207.961</ele>
            <time>2010-08-05T09:41:02+02:00</time>
          </trkpt>
          <trkpt lon="8.07037926" lat="50.38986588">
            <ele>208.687</ele>
            <time>2010-08-05T09:41:07+02:00</time>
          </trkpt>
          <trkpt lon="8.07047367" lat="50.38984299">
            <ele>207.818</ele>
            <time>2010-08-05T09:41:12+02:00</time>
          </trkpt>
          <trkpt lon="8.07055855" lat="50.38982391">
            <ele>207.386</ele>
            <time>2010-08-05T09:41:17+02:00</time>
          </trkpt>
          <trkpt lon="8.07065105" lat="50.38979721">
            <ele>207.073</ele>
            <time>2010-08-05T09:41:22+02:00</time>
          </trkpt>
          <trkpt lon="8.07073116" lat="50.38977432">
            <ele>207.573</ele>
            <time>2010-08-05T09:41:27+02:00</time>
          </trkpt>
          <trkpt lon="8.07080555" lat="50.38975525">
            <ele>208.491</ele>
            <time>2010-08-05T09:41:32+02:00</time>
          </trkpt>
          <trkpt lon="8.07086563" lat="50.38973236">
            <ele>210.11</ele>
            <time>2010-08-05T09:41:37+02:00</time>
          </trkpt>
          <trkpt lon="8.07092953" lat="50.38971329">
            <ele>211.527</ele>
            <time>2010-08-05T09:41:42+02:00</time>
          </trkpt>
          <trkpt lon="8.07100105" lat="50.3896904">
            <ele>212.289</ele>
            <time>2010-08-05T09:41:47+02:00</time>
          </trkpt>
          <trkpt lon="8.07106113" lat="50.3896637">
            <ele>213.797</ele>
            <time>2010-08-05T09:41:52+02:00</time>
          </trkpt>
          <trkpt lon="8.07114029" lat="50.38964844">
            <ele>214.825</ele>
            <time>2010-08-05T09:41:57+02:00</time>
          </trkpt>
          <trkpt lon="8.07121658" lat="50.38961792">
            <ele>214.766</ele>
            <time>2010-08-05T09:42:02+02:00</time>
          </trkpt>
          <trkpt lon="8.07130527" lat="50.3895874">
            <ele>214.157</ele>
            <time>2010-08-05T09:42:07+02:00</time>
          </trkpt>
          <trkpt lon="8.07139778" lat="50.38956451">
            <ele>213.576</ele>
            <time>2010-08-05T09:42:12+02:00</time>
          </trkpt>
          <trkpt lon="8.0714941" lat="50.38954544">
            <ele>214.055</ele>
            <time>2010-08-05T09:42:17+02:00</time>
          </trkpt>
          <trkpt lon="8.07161617" lat="50.38951874">
            <ele>213.168</ele>
            <time>2010-08-05T09:42:22+02:00</time>
          </trkpt>
          <trkpt lon="8.07173061" lat="50.38950348">
            <ele>213.192</ele>
            <time>2010-08-05T09:42:27+02:00</time>
          </trkpt>
          <trkpt lon="8.07181835" lat="50.38948822">
            <ele>211.592</ele>
            <time>2010-08-05T09:42:32+02:00</time>
          </trkpt>
          <trkpt lon="8.07192039" lat="50.38948822">
            <ele>211.183</ele>
            <time>2010-08-05T09:42:37+02:00</time>
          </trkpt>
          <trkpt lon="8.07199478" lat="50.38949585">
            <ele>210.843</ele>
            <time>2010-08-05T09:42:42+02:00</time>
          </trkpt>
          <trkpt lon="8.07211208" lat="50.38949966">
            <ele>210.747</ele>
            <time>2010-08-05T09:42:47+02:00</time>
          </trkpt>
          <trkpt lon="8.07218361" lat="50.38953781">
            <ele>211.67</ele>
            <time>2010-08-05T09:42:52+02:00</time>
          </trkpt>
          <trkpt lon="8.07220745" lat="50.38951874">
            <ele>211.219</ele>
            <time>2010-08-05T09:42:57+02:00</time>
          </trkpt>
          <trkpt lon="8.07226181" lat="50.38955307">
            <ele>210.806</ele>
            <time>2010-08-05T09:43:02+02:00</time>
          </trkpt>
          <trkpt lon="8.07226562" lat="50.38954163">
            <ele>209.967</ele>
            <time>2010-08-05T09:43:07+02:00</time>
          </trkpt>
          <trkpt lon="8.07225704" lat="50.38954926">
            <ele>209.28</ele>
            <time>2010-08-05T09:43:12+02:00</time>
          </trkpt>
          <trkpt lon="8.07223511" lat="50.38953018">
            <ele>208.28</ele>
            <time>2010-08-05T09:43:17+02:00</time>
          </trkpt>
          <trkpt lon="8.07224941" lat="50.38954163">
            <ele>207.469</ele>
            <time>2010-08-05T09:43:22+02:00</time>
          </trkpt>
          <trkpt lon="8.07234192" lat="50.389534">
            <ele>205.606</ele>
            <time>2010-08-05T09:43:27+02:00</time>
          </trkpt>
          <trkpt lon="8.0724144" lat="50.3895874">
            <ele>204.421</ele>
            <time>2010-08-05T09:43:32+02:00</time>
          </trkpt>
          <trkpt lon="8.07241535" lat="50.3896637">
            <ele>202.807</ele>
            <time>2010-08-05T09:43:37+02:00</time>
          </trkpt>
          <trkpt lon="8.07240772" lat="50.3897171">
            <ele>201.753</ele>
            <time>2010-08-05T09:43:42+02:00</time>
          </trkpt>
          <trkpt lon="8.07247829" lat="50.38978958">
            <ele>201.22</ele>
            <time>2010-08-05T09:43:47+02:00</time>
          </trkpt>
          <trkpt lon="8.07254601" lat="50.38981628">
            <ele>200.086</ele>
            <time>2010-08-05T09:43:52+02:00</time>
          </trkpt>
          <trkpt lon="8.07256889" lat="50.3898735">
            <ele>200.196</ele>
            <time>2010-08-05T09:43:57+02:00</time>
          </trkpt>
          <trkpt lon="8.07256413" lat="50.38994598">
            <ele>199.927</ele>
            <time>2010-08-05T09:44:02+02:00</time>
          </trkpt>
          <trkpt lon="8.07258606" lat="50.39006042">
            <ele>197.802</ele>
            <time>2010-08-05T09:44:07+02:00</time>
          </trkpt>
          <trkpt lon="8.07256603" lat="50.39012146">
            <ele>196.641</ele>
            <time>2010-08-05T09:44:12+02:00</time>
          </trkpt>
          <trkpt lon="8.07258606" lat="50.39022827">
            <ele>195.946</ele>
            <time>2010-08-05T09:44:17+02:00</time>
          </trkpt>
          <trkpt lon="8.07262039" lat="50.3902626">
            <ele>196.152</ele>
            <time>2010-08-05T09:44:22+02:00</time>
          </trkpt>
          <trkpt lon="8.07263184" lat="50.39030838">
            <ele>196.41</ele>
            <time>2010-08-05T09:44:27+02:00</time>
          </trkpt>
          <trkpt lon="8.07263088" lat="50.39036179">
            <ele>196.323</ele>
            <time>2010-08-05T09:44:32+02:00</time>
          </trkpt>
          <trkpt lon="8.07261276" lat="50.39041138">
            <ele>196.235</ele>
            <time>2010-08-05T09:44:37+02:00</time>
          </trkpt>
          <trkpt lon="8.07262421" lat="50.39048004">
            <ele>194.791</ele>
            <time>2010-08-05T09:44:42+02:00</time>
          </trkpt>
          <trkpt lon="8.07265091" lat="50.390522">
            <ele>193.372</ele>
            <time>2010-08-05T09:44:47+02:00</time>
          </trkpt>
          <trkpt lon="8.07266617" lat="50.39056778">
            <ele>193.468</ele>
            <time>2010-08-05T09:44:52+02:00</time>
          </trkpt>
          <trkpt lon="8.07266712" lat="50.39060593">
            <ele>193.288</ele>
            <time>2010-08-05T09:44:57+02:00</time>
          </trkpt>
          <trkpt lon="8.07269382" lat="50.39061737">
            <ele>191.703</ele>
            <time>2010-08-05T09:45:02+02:00</time>
          </trkpt>
          <trkpt lon="8.07273674" lat="50.39063263">
            <ele>190.807</ele>
            <time>2010-08-05T09:45:07+02:00</time>
          </trkpt>
          <trkpt lon="8.07276344" lat="50.39061737">
            <ele>190.363</ele>
            <time>2010-08-05T09:45:12+02:00</time>
          </trkpt>
          <trkpt lon="8.07281971" lat="50.39064407">
            <ele>191.144</ele>
            <time>2010-08-05T09:45:17+02:00</time>
          </trkpt>
          <trkpt lon="8.07286835" lat="50.39064026">
            <ele>191.272</ele>
            <time>2010-08-05T09:45:22+02:00</time>
          </trkpt>
          <trkpt lon="8.07290745" lat="50.390625">
            <ele>191.277</ele>
            <time>2010-08-05T09:45:27+02:00</time>
          </trkpt>
          <trkpt lon="8.07294083" lat="50.39061356">
            <ele>192.576</ele>
            <time>2010-08-05T09:45:32+02:00</time>
          </trkpt>
          <trkpt lon="8.07296562" lat="50.39063644">
            <ele>194.37</ele>
            <time>2010-08-05T09:45:37+02:00</time>
          </trkpt>
          <trkpt lon="8.07303429" lat="50.39064407">
            <ele>196.576</ele>
            <time>2010-08-05T09:45:42+02:00</time>
          </trkpt>
          <trkpt lon="8.07308483" lat="50.39063644">
            <ele>198.176</ele>
            <time>2010-08-05T09:45:47+02:00</time>
          </trkpt>
          <trkpt lon="8.07311821" lat="50.39062119">
            <ele>199.211</ele>
            <time>2010-08-05T09:45:52+02:00</time>
          </trkpt>
          <trkpt lon="8.07315731" lat="50.39062119">
            <ele>200.578</ele>
            <time>2010-08-05T09:45:57+02:00</time>
          </trkpt>
          <trkpt lon="8.07322693" lat="50.39063644">
            <ele>202.913</ele>
            <time>2010-08-05T09:46:02+02:00</time>
          </trkpt>
          <trkpt lon="8.07330418" lat="50.39063263">
            <ele>204.919</ele>
            <time>2010-08-05T09:46:07+02:00</time>
          </trkpt>
          <trkpt lon="8.07336903" lat="50.390625">
            <ele>206.614</ele>
            <time>2010-08-05T09:46:12+02:00</time>
          </trkpt>
          <trkpt lon="8.0734272" lat="50.39063644">
            <ele>208.477</ele>
            <time>2010-08-05T09:46:17+02:00</time>
          </trkpt>
          <trkpt lon="8.07349968" lat="50.39064407">
            <ele>210.31</ele>
            <time>2010-08-05T09:46:22+02:00</time>
          </trkpt>
          <trkpt lon="8.07354164" lat="50.390625">
            <ele>211.002</ele>
            <time>2010-08-05T09:46:27+02:00</time>
          </trkpt>
          <trkpt lon="8.07360458" lat="50.39060593">
            <ele>212.787</ele>
            <time>2010-08-05T09:46:32+02:00</time>
          </trkpt>
          <trkpt lon="8.07367325" lat="50.3905983">
            <ele>214.496</ele>
            <time>2010-08-05T09:46:37+02:00</time>
          </trkpt>
          <trkpt lon="8.07378578" lat="50.39061737">
            <ele>214.941</ele>
            <time>2010-08-05T09:46:42+02:00</time>
          </trkpt>
          <trkpt lon="8.07388401" lat="50.39062119">
            <ele>217.124</ele>
            <time>2010-08-05T09:46:47+02:00</time>
          </trkpt>
          <trkpt lon="8.0739603" lat="50.39064789">
            <ele>219.785</ele>
            <time>2010-08-05T09:46:52+02:00</time>
          </trkpt>
          <trkpt lon="8.07402515" lat="50.39066315">
            <ele>222.13</ele>
            <time>2010-08-05T09:46:57+02:00</time>
          </trkpt>
          <trkpt lon="8.07406998" lat="50.39068222">
            <ele>226.647</ele>
            <time>2010-08-05T09:47:02+02:00</time>
          </trkpt>
          <trkpt lon="8.07411003" lat="50.39068985">
            <ele>228.519</ele>
            <time>2010-08-05T09:47:07+02:00</time>
          </trkpt>
          <trkpt lon="8.07417107" lat="50.39071274">
            <ele>231.642</ele>
            <time>2010-08-05T09:47:12+02:00</time>
          </trkpt>
          <trkpt lon="8.07423019" lat="50.39069748">
            <ele>233.268</ele>
            <time>2010-08-05T09:47:17+02:00</time>
          </trkpt>
          <trkpt lon="8.07428265" lat="50.39069748">
            <ele>235.777</ele>
            <time>2010-08-05T09:47:22+02:00</time>
          </trkpt>
          <trkpt lon="8.07431984" lat="50.39068985">
            <ele>237.079</ele>
            <time>2010-08-05T09:47:27+02:00</time>
          </trkpt>
          <trkpt lon="8.07441139" lat="50.39070511">
            <ele>239.034</ele>
            <time>2010-08-05T09:47:32+02:00</time>
          </trkpt>
          <trkpt lon="8.07443047" lat="50.39066315">
            <ele>240.264</ele>
            <time>2010-08-05T09:47:37+02:00</time>
          </trkpt>
          <trkpt lon="8.07452297" lat="50.39066696">
            <ele>241.646</ele>
            <time>2010-08-05T09:47:42+02:00</time>
          </trkpt>
          <trkpt lon="8.07459736" lat="50.39065552">
            <ele>243.684</ele>
            <time>2010-08-05T09:47:47+02:00</time>
          </trkpt>
          <trkpt lon="8.07466984" lat="50.39066315">
            <ele>245.83</ele>
            <time>2010-08-05T09:47:52+02:00</time>
          </trkpt>
          <trkpt lon="8.07475758" lat="50.39065933">
            <ele>247.362</ele>
            <time>2010-08-05T09:47:57+02:00</time>
          </trkpt>
          <trkpt lon="8.07483387" lat="50.39065552">
            <ele>247.778</ele>
            <time>2010-08-05T09:48:02+02:00</time>
          </trkpt>
          <trkpt lon="8.07490158" lat="50.39063644">
            <ele>247.856</ele>
            <time>2010-08-05T09:48:07+02:00</time>
          </trkpt>
          <trkpt lon="8.07496357" lat="50.39062881">
            <ele>247.799</ele>
            <time>2010-08-05T09:48:12+02:00</time>
          </trkpt>
          <trkpt lon="8.07502842" lat="50.39061737">
            <ele>248.007</ele>
            <time>2010-08-05T09:48:17+02:00</time>
          </trkpt>
          <trkpt lon="8.07509804" lat="50.39060974">
            <ele>248.969</ele>
            <time>2010-08-05T09:48:22+02:00</time>
          </trkpt>
          <trkpt lon="8.07516384" lat="50.39060593">
            <ele>250.334</ele>
            <time>2010-08-05T09:48:27+02:00</time>
          </trkpt>
          <trkpt lon="8.07522583" lat="50.39061356">
            <ele>252.164</ele>
            <time>2010-08-05T09:48:32+02:00</time>
          </trkpt>
          <trkpt lon="8.07527447" lat="50.39061737">
            <ele>254.56</ele>
            <time>2010-08-05T09:48:37+02:00</time>
          </trkpt>
          <trkpt lon="8.07535267" lat="50.39063644">
            <ele>257.196</ele>
            <time>2010-08-05T09:48:42+02:00</time>
          </trkpt>
          <trkpt lon="8.07542133" lat="50.39064407">
            <ele>258.105</ele>
            <time>2010-08-05T09:48:47+02:00</time>
          </trkpt>
          <trkpt lon="8.0755024" lat="50.39065933">
            <ele>260.281</ele>
            <time>2010-08-05T09:48:52+02:00</time>
          </trkpt>
          <trkpt lon="8.07555008" lat="50.3906517">
            <ele>259.292</ele>
            <time>2010-08-05T09:48:57+02:00</time>
          </trkpt>
          <trkpt lon="8.07562256" lat="50.3906517">
            <ele>260.295</ele>
            <time>2010-08-05T09:49:02+02:00</time>
          </trkpt>
          <trkpt lon="8.07570076" lat="50.39063644">
            <ele>260.938</ele>
            <time>2010-08-05T09:49:07+02:00</time>
          </trkpt>
          <trkpt lon="8.07579422" lat="50.39064407">
            <ele>261.68</ele>
            <time>2010-08-05T09:49:12+02:00</time>
          </trkpt>
          <trkpt lon="8.07588196" lat="50.39064407">
            <ele>261.595</ele>
            <time>2010-08-05T09:49:17+02:00</time>
          </trkpt>
          <trkpt lon="8.07594872" lat="50.39063263">
            <ele>260.844</ele>
            <time>2010-08-05T09:49:22+02:00</time>
          </trkpt>
          <trkpt lon="8.07605839" lat="50.3906517">
            <ele>262.473</ele>
            <time>2010-08-05T09:49:27+02:00</time>
          </trkpt>
          <trkpt lon="8.07614803" lat="50.39066696">
            <ele>263.632</ele>
            <time>2010-08-05T09:49:32+02:00</time>
          </trkpt>
          <trkpt lon="8.07623577" lat="50.39067459">
            <ele>263.458</ele>
            <time>2010-08-05T09:49:37+02:00</time>
          </trkpt>
          <trkpt lon="8.07632828" lat="50.39067078">
            <ele>263.025</ele>
            <time>2010-08-05T09:49:42+02:00</time>
          </trkpt>
          <trkpt lon="8.0763607" lat="50.39067078">
            <ele>262.177</ele>
            <time>2010-08-05T09:49:47+02:00</time>
          </trkpt>
          <trkpt lon="8.07636356" lat="50.39067459">
            <ele>262.159</ele>
            <time>2010-08-05T09:49:52+02:00</time>
          </trkpt>
          <trkpt lon="8.07638645" lat="50.39066696">
            <ele>261.366</ele>
            <time>2010-08-05T09:49:57+02:00</time>
          </trkpt>
          <trkpt lon="8.07642269" lat="50.39065933">
            <ele>260.514</ele>
            <time>2010-08-05T09:50:02+02:00</time>
          </trkpt>
          <trkpt lon="8.07652855" lat="50.39065552">
            <ele>259.782</ele>
            <time>2010-08-05T09:50:07+02:00</time>
          </trkpt>
          <trkpt lon="8.07664394" lat="50.39064407">
            <ele>258.252</ele>
            <time>2010-08-05T09:50:12+02:00</time>
          </trkpt>
          <trkpt lon="8.07673836" lat="50.39062119">
            <ele>255.373</ele>
            <time>2010-08-05T09:50:17+02:00</time>
          </trkpt>
          <trkpt lon="8.07686138" lat="50.39059067">
            <ele>251.859</ele>
            <time>2010-08-05T09:50:22+02:00</time>
          </trkpt>
          <trkpt lon="8.07699108" lat="50.39056778">
            <ele>248.248</ele>
            <time>2010-08-05T09:50:27+02:00</time>
          </trkpt>
          <trkpt lon="8.07707882" lat="50.39054489">
            <ele>247.677</ele>
            <time>2010-08-05T09:50:32+02:00</time>
          </trkpt>
          <trkpt lon="8.07716274" lat="50.39051819">
            <ele>244.863</ele>
            <time>2010-08-05T09:50:37+02:00</time>
          </trkpt>
          <trkpt lon="8.07725525" lat="50.39051056">
            <ele>242.553</ele>
            <time>2010-08-05T09:50:42+02:00</time>
          </trkpt>
          <trkpt lon="8.0773716" lat="50.39051819">
            <ele>239.407</ele>
            <time>2010-08-05T09:50:47+02:00</time>
          </trkpt>
          <trkpt lon="8.07746887" lat="50.39048004">
            <ele>237.92</ele>
            <time>2010-08-05T09:50:52+02:00</time>
          </trkpt>
          <trkpt lon="8.07754803" lat="50.39044571">
            <ele>236.89</ele>
            <time>2010-08-05T09:50:57+02:00</time>
          </trkpt>
          <trkpt lon="8.07766438" lat="50.39042664">
            <ele>235.107</ele>
            <time>2010-08-05T09:51:02+02:00</time>
          </trkpt>
          <trkpt lon="8.07773781" lat="50.39039612">
            <ele>234.376</ele>
            <time>2010-08-05T09:51:07+02:00</time>
          </trkpt>
          <trkpt lon="8.07780457" lat="50.39038086">
            <ele>233.283</ele>
            <time>2010-08-05T09:51:12+02:00</time>
          </trkpt>
          <trkpt lon="8.07789421" lat="50.3903656">
            <ele>232.504</ele>
            <time>2010-08-05T09:51:17+02:00</time>
          </trkpt>
          <trkpt lon="8.07798004" lat="50.39034653">
            <ele>232.162</ele>
            <time>2010-08-05T09:51:22+02:00</time>
          </trkpt>
          <trkpt lon="8.07806396" lat="50.39034653">
            <ele>231.97</ele>
            <time>2010-08-05T09:51:27+02:00</time>
          </trkpt>
          <trkpt lon="8.07814693" lat="50.3903389">
            <ele>232.172</ele>
            <time>2010-08-05T09:51:32+02:00</time>
          </trkpt>
          <trkpt lon="8.07822037" lat="50.3903389">
            <ele>233.23</ele>
            <time>2010-08-05T09:51:37+02:00</time>
          </trkpt>
          <trkpt lon="8.07830429" lat="50.39032364">
            <ele>234.038</ele>
            <time>2010-08-05T09:51:42+02:00</time>
          </trkpt>
          <trkpt lon="8.07836533" lat="50.39031601">
            <ele>235.585</ele>
            <time>2010-08-05T09:51:47+02:00</time>
          </trkpt>
          <trkpt lon="8.07839108" lat="50.39033508">
            <ele>236.478</ele>
            <time>2010-08-05T09:51:52+02:00</time>
          </trkpt>
          <trkpt lon="8.07845592" lat="50.39035416">
            <ele>236.847</ele>
            <time>2010-08-05T09:51:57+02:00</time>
          </trkpt>
          <trkpt lon="8.07850933" lat="50.39031601">
            <ele>235.291</ele>
            <time>2010-08-05T09:52:02+02:00</time>
          </trkpt>
          <trkpt lon="8.07855892" lat="50.39027786">
            <ele>234.669</ele>
            <time>2010-08-05T09:52:07+02:00</time>
          </trkpt>
          <trkpt lon="8.07859325" lat="50.3902359">
            <ele>234.424</ele>
            <time>2010-08-05T09:52:12+02:00</time>
          </trkpt>
          <trkpt lon="8.07871342" lat="50.39025879">
            <ele>234.112</ele>
            <time>2010-08-05T09:52:17+02:00</time>
          </trkpt>
          <trkpt lon="8.0789156" lat="50.39014053">
            <ele>229.216</ele>
            <time>2010-08-05T09:52:22+02:00</time>
          </trkpt>
          <trkpt lon="8.07907867" lat="50.3901062">
            <ele>228.437</ele>
            <time>2010-08-05T09:52:27+02:00</time>
          </trkpt>
          <trkpt lon="8.07921028" lat="50.39017105">
            <ele>227.995</ele>
            <time>2010-08-05T09:52:32+02:00</time>
          </trkpt>
          <trkpt lon="8.07922554" lat="50.39022064">
            <ele>226.892</ele>
            <time>2010-08-05T09:52:37+02:00</time>
          </trkpt>
          <trkpt lon="8.07925892" lat="50.39025116">
            <ele>225.037</ele>
            <time>2010-08-05T09:52:42+02:00</time>
          </trkpt>
          <trkpt lon="8.07929611" lat="50.39038849">
            <ele>219.948</ele>
            <time>2010-08-05T09:52:47+02:00</time>
          </trkpt>
          <trkpt lon="8.07933807" lat="50.39042664">
            <ele>219.252</ele>
            <time>2010-08-05T09:52:52+02:00</time>
          </trkpt>
          <trkpt lon="8.0793829" lat="50.39045715">
            <ele>216.889</ele>
            <time>2010-08-05T09:52:57+02:00</time>
          </trkpt>
          <trkpt lon="8.07945442" lat="50.39053726">
            <ele>215.803</ele>
            <time>2010-08-05T09:53:02+02:00</time>
          </trkpt>
          <trkpt lon="8.07951546" lat="50.39057159">
            <ele>213.765</ele>
            <time>2010-08-05T09:53:07+02:00</time>
          </trkpt>
          <trkpt lon="8.07956791" lat="50.3906517">
            <ele>213.533</ele>
            <time>2010-08-05T09:53:12+02:00</time>
          </trkpt>
          <trkpt lon="8.07963371" lat="50.39069366">
            <ele>213.033</ele>
            <time>2010-08-05T09:53:17+02:00</time>
          </trkpt>
          <trkpt lon="8.07969856" lat="50.39076233">
            <ele>211.978</ele>
            <time>2010-08-05T09:53:22+02:00</time>
          </trkpt>
          <trkpt lon="8.07973289" lat="50.39080048">
            <ele>211.594</ele>
            <time>2010-08-05T09:53:27+02:00</time>
          </trkpt>
          <trkpt lon="8.0797348" lat="50.39083099">
            <ele>211.321</ele>
            <time>2010-08-05T09:53:32+02:00</time>
          </trkpt>
          <trkpt lon="8.07977581" lat="50.39092636">
            <ele>211.349</ele>
            <time>2010-08-05T09:53:37+02:00</time>
          </trkpt>
          <trkpt lon="8.07982635" lat="50.3909874">
            <ele>211.726</ele>
            <time>2010-08-05T09:53:42+02:00</time>
          </trkpt>
          <trkpt lon="8.07987976" lat="50.39102936">
            <ele>211.74</ele>
            <time>2010-08-05T09:53:47+02:00</time>
          </trkpt>
          <trkpt lon="8.07992268" lat="50.39105225">
            <ele>212.147</ele>
            <time>2010-08-05T09:53:52+02:00</time>
          </trkpt>
          <trkpt lon="8.07995415" lat="50.39107132">
            <ele>212.456</ele>
            <time>2010-08-05T09:53:57+02:00</time>
          </trkpt>
          <trkpt lon="8.08001041" lat="50.39109039">
            <ele>213.995</ele>
            <time>2010-08-05T09:54:02+02:00</time>
          </trkpt>
          <trkpt lon="8.0800848" lat="50.39112473">
            <ele>215.329</ele>
            <time>2010-08-05T09:54:07+02:00</time>
          </trkpt>
          <trkpt lon="8.08014297" lat="50.39114761">
            <ele>217.353</ele>
            <time>2010-08-05T09:54:12+02:00</time>
          </trkpt>
          <trkpt lon="8.08021545" lat="50.39117432">
            <ele>219.392</ele>
            <time>2010-08-05T09:54:17+02:00</time>
          </trkpt>
          <trkpt lon="8.08024311" lat="50.39116287">
            <ele>218.186</ele>
            <time>2010-08-05T09:54:22+02:00</time>
          </trkpt>
          <trkpt lon="8.0802927" lat="50.39116669">
            <ele>216.753</ele>
            <time>2010-08-05T09:54:27+02:00</time>
          </trkpt>
          <trkpt lon="8.08042908" lat="50.39118195">
            <ele>213.74</ele>
            <time>2010-08-05T09:54:32+02:00</time>
          </trkpt>
          <trkpt lon="8.08047009" lat="50.3911972">
            <ele>212.595</ele>
            <time>2010-08-05T09:54:37+02:00</time>
          </trkpt>
          <trkpt lon="8.08052254" lat="50.39120483">
            <ele>212.036</ele>
            <time>2010-08-05T09:54:42+02:00</time>
          </trkpt>
          <trkpt lon="8.08059025" lat="50.39120865">
            <ele>211.131</ele>
            <time>2010-08-05T09:54:47+02:00</time>
          </trkpt>
          <trkpt lon="8.08066654" lat="50.39123535">
            <ele>210.358</ele>
            <time>2010-08-05T09:54:52+02:00</time>
          </trkpt>
          <trkpt lon="8.08078289" lat="50.39126968">
            <ele>208.986</ele>
            <time>2010-08-05T09:54:57+02:00</time>
          </trkpt>
          <trkpt lon="8.08086205" lat="50.39126587">
            <ele>207.732</ele>
            <time>2010-08-05T09:55:02+02:00</time>
          </trkpt>
          <trkpt lon="8.08097458" lat="50.39129257">
            <ele>205.657</ele>
            <time>2010-08-05T09:55:07+02:00</time>
          </trkpt>
          <trkpt lon="8.08101463" lat="50.3913002">
            <ele>204.027</ele>
            <time>2010-08-05T09:55:12+02:00</time>
          </trkpt>
          <trkpt lon="8.08110332" lat="50.39129639">
            <ele>201.763</ele>
            <time>2010-08-05T09:55:17+02:00</time>
          </trkpt>
          <trkpt lon="8.0811758" lat="50.3913269">
            <ele>200.025</ele>
            <time>2010-08-05T09:55:22+02:00</time>
          </trkpt>
          <trkpt lon="8.08127594" lat="50.39134216">
            <ele>198.059</ele>
            <time>2010-08-05T09:55:27+02:00</time>
          </trkpt>
          <trkpt lon="8.08132172" lat="50.39136124">
            <ele>196.032</ele>
            <time>2010-08-05T09:55:32+02:00</time>
          </trkpt>
          <trkpt lon="8.08136654" lat="50.39139175">
            <ele>195.072</ele>
            <time>2010-08-05T09:55:37+02:00</time>
          </trkpt>
          <trkpt lon="8.08141136" lat="50.39142609">
            <ele>194.022</ele>
            <time>2010-08-05T09:55:42+02:00</time>
          </trkpt>
          <trkpt lon="8.08153915" lat="50.39144516">
            <ele>192.555</ele>
            <time>2010-08-05T09:55:47+02:00</time>
          </trkpt>
          <trkpt lon="8.081604" lat="50.39144135">
            <ele>191.633</ele>
            <time>2010-08-05T09:55:52+02:00</time>
          </trkpt>
          <trkpt lon="8.08170128" lat="50.39151001">
            <ele>190.762</ele>
            <time>2010-08-05T09:55:57+02:00</time>
          </trkpt>
          <trkpt lon="8.08177471" lat="50.39151382">
            <ele>190.091</ele>
            <time>2010-08-05T09:56:02+02:00</time>
          </trkpt>
          <trkpt lon="8.08186531" lat="50.39154816">
            <ele>188.733</ele>
            <time>2010-08-05T09:56:07+02:00</time>
          </trkpt>
          <trkpt lon="8.08195591" lat="50.39160156">
            <ele>187.746</ele>
            <time>2010-08-05T09:56:12+02:00</time>
          </trkpt>
          <trkpt lon="8.08205986" lat="50.39164734">
            <ele>189.696</ele>
            <time>2010-08-05T09:56:17+02:00</time>
          </trkpt>
          <trkpt lon="8.08210373" lat="50.39167023">
            <ele>190.189</ele>
            <time>2010-08-05T09:56:22+02:00</time>
          </trkpt>
          <trkpt lon="8.0821867" lat="50.39172745">
            <ele>191.39</ele>
            <time>2010-08-05T09:56:27+02:00</time>
          </trkpt>
          <trkpt lon="8.08224583" lat="50.39174652">
            <ele>189.601</ele>
            <time>2010-08-05T09:56:32+02:00</time>
          </trkpt>
          <trkpt lon="8.08230782" lat="50.39175415">
            <ele>189.407</ele>
            <time>2010-08-05T09:56:37+02:00</time>
          </trkpt>
          <trkpt lon="8.08238125" lat="50.39177322">
            <ele>187.853</ele>
            <time>2010-08-05T09:56:42+02:00</time>
          </trkpt>
          <trkpt lon="8.08245087" lat="50.39179611">
            <ele>186.569</ele>
            <time>2010-08-05T09:56:47+02:00</time>
          </trkpt>
          <trkpt lon="8.08251476" lat="50.39182281">
            <ele>186.936</ele>
            <time>2010-08-05T09:56:52+02:00</time>
          </trkpt>
          <trkpt lon="8.08259869" lat="50.39185715">
            <ele>187.172</ele>
            <time>2010-08-05T09:56:57+02:00</time>
          </trkpt>
          <trkpt lon="8.08265686" lat="50.39188766">
            <ele>185.936</ele>
            <time>2010-08-05T09:57:02+02:00</time>
          </trkpt>
          <trkpt lon="8.08269501" lat="50.39190674">
            <ele>186.159</ele>
            <time>2010-08-05T09:57:07+02:00</time>
          </trkpt>
          <trkpt lon="8.08277035" lat="50.39192581">
            <ele>185.859</ele>
            <time>2010-08-05T09:57:12+02:00</time>
          </trkpt>
          <trkpt lon="8.08284283" lat="50.39196014">
            <ele>188.97</ele>
            <time>2010-08-05T09:57:17+02:00</time>
          </trkpt>
          <trkpt lon="8.08289528" lat="50.39199448">
            <ele>188.192</ele>
            <time>2010-08-05T09:57:22+02:00</time>
          </trkpt>
          <trkpt lon="8.08298111" lat="50.39205933">
            <ele>190.781</ele>
            <time>2010-08-05T09:57:27+02:00</time>
          </trkpt>
          <trkpt lon="8.08307362" lat="50.39215088">
            <ele>196.028</ele>
            <time>2010-08-05T09:57:32+02:00</time>
          </trkpt>
          <trkpt lon="8.0831213" lat="50.39218903">
            <ele>199.21</ele>
            <time>2010-08-05T09:57:37+02:00</time>
          </trkpt>
          <trkpt lon="8.08317947" lat="50.39223862">
            <ele>200.844</ele>
            <time>2010-08-05T09:57:42+02:00</time>
          </trkpt>
          <trkpt lon="8.08323002" lat="50.39227676">
            <ele>202.266</ele>
            <time>2010-08-05T09:57:47+02:00</time>
          </trkpt>
          <trkpt lon="8.08330345" lat="50.39231491">
            <ele>203.596</ele>
            <time>2010-08-05T09:57:52+02:00</time>
          </trkpt>
          <trkpt lon="8.08336926" lat="50.39234924">
            <ele>205.191</ele>
            <time>2010-08-05T09:57:57+02:00</time>
          </trkpt>
          <trkpt lon="8.0834341" lat="50.39240646">
            <ele>206.324</ele>
            <time>2010-08-05T09:58:02+02:00</time>
          </trkpt>
          <trkpt lon="8.08349895" lat="50.39246368">
            <ele>205.544</ele>
            <time>2010-08-05T09:58:07+02:00</time>
          </trkpt>
          <trkpt lon="8.08354568" lat="50.39250183">
            <ele>205.121</ele>
            <time>2010-08-05T09:58:12+02:00</time>
          </trkpt>
          <trkpt lon="8.08357811" lat="50.3925209">
            <ele>207.704</ele>
            <time>2010-08-05T09:58:17+02:00</time>
          </trkpt>
          <trkpt lon="8.08357525" lat="50.39251328">
            <ele>208.563</ele>
            <time>2010-08-05T09:58:22+02:00</time>
          </trkpt>
          <trkpt lon="8.08357334" lat="50.39251328">
            <ele>209.059</ele>
            <time>2010-08-05T09:58:27+02:00</time>
          </trkpt>
          <trkpt lon="8.08357716" lat="50.39252472">
            <ele>209.305</ele>
            <time>2010-08-05T09:58:32+02:00</time>
          </trkpt>
          <trkpt lon="8.08361721" lat="50.39255142">
            <ele>209.246</ele>
            <time>2010-08-05T09:58:37+02:00</time>
          </trkpt>
          <trkpt lon="8.08362198" lat="50.39255524">
            <ele>208.869</ele>
            <time>2010-08-05T09:58:42+02:00</time>
          </trkpt>
          <trkpt lon="8.08366013" lat="50.39258194">
            <ele>208.485</ele>
            <time>2010-08-05T09:58:47+02:00</time>
          </trkpt>
          <trkpt lon="8.08371735" lat="50.39263153">
            <ele>208.217</ele>
            <time>2010-08-05T09:58:52+02:00</time>
          </trkpt>
          <trkpt lon="8.08375168" lat="50.39266968">
            <ele>208.086</ele>
            <time>2010-08-05T09:58:57+02:00</time>
          </trkpt>
          <trkpt lon="8.08380318" lat="50.39271545">
            <ele>208.693</ele>
            <time>2010-08-05T09:59:02+02:00</time>
          </trkpt>
          <trkpt lon="8.08384609" lat="50.3927536">
            <ele>209.243</ele>
            <time>2010-08-05T09:59:07+02:00</time>
          </trkpt>
          <trkpt lon="8.08389854" lat="50.39279556">
            <ele>208.411</ele>
            <time>2010-08-05T09:59:12+02:00</time>
          </trkpt>
          <trkpt lon="8.08392811" lat="50.39282227">
            <ele>208.461</ele>
            <time>2010-08-05T09:59:17+02:00</time>
          </trkpt>
          <trkpt lon="8.08392811" lat="50.39282227">
            <ele>208.634</ele>
            <time>2010-08-05T09:59:22+02:00</time>
          </trkpt>
          <trkpt lon="8.0839529" lat="50.39285278">
            <ele>207.04</ele>
            <time>2010-08-05T09:59:27+02:00</time>
          </trkpt>
          <trkpt lon="8.08399105" lat="50.39289474">
            <ele>206.833</ele>
            <time>2010-08-05T09:59:32+02:00</time>
          </trkpt>
          <trkpt lon="8.08403683" lat="50.39294052">
            <ele>207.368</ele>
            <time>2010-08-05T09:59:37+02:00</time>
          </trkpt>
          <trkpt lon="8.0840807" lat="50.39298248">
            <ele>208.29</ele>
            <time>2010-08-05T09:59:42+02:00</time>
          </trkpt>
          <trkpt lon="8.0841341" lat="50.39302444">
            <ele>208.564</ele>
            <time>2010-08-05T09:59:47+02:00</time>
          </trkpt>
          <trkpt lon="8.08416176" lat="50.39303207">
            <ele>207.868</ele>
            <time>2010-08-05T09:59:52+02:00</time>
          </trkpt>
          <trkpt lon="8.08416271" lat="50.39303589">
            <ele>207.018</ele>
            <time>2010-08-05T09:59:57+02:00</time>
          </trkpt>
          <trkpt lon="8.08415413" lat="50.39304352">
            <ele>206.853</ele>
            <time>2010-08-05T10:00:02+02:00</time>
          </trkpt>
          <trkpt lon="8.08414841" lat="50.39305115">
            <ele>207.273</ele>
            <time>2010-08-05T10:00:07+02:00</time>
          </trkpt>
          <trkpt lon="8.08414841" lat="50.39305115">
            <ele>207.311</ele>
            <time>2010-08-05T10:00:12+02:00</time>
          </trkpt>
          <trkpt lon="8.08417797" lat="50.39308929">
            <ele>207.1</ele>
            <time>2010-08-05T10:00:17+02:00</time>
          </trkpt>
          <trkpt lon="8.08420372" lat="50.39313126">
            <ele>207.027</ele>
            <time>2010-08-05T10:00:22+02:00</time>
          </trkpt>
          <trkpt lon="8.08424377" lat="50.39317322">
            <ele>206.536</ele>
            <time>2010-08-05T10:00:27+02:00</time>
          </trkpt>
          <trkpt lon="8.0842762" lat="50.39322281">
            <ele>205.889</ele>
            <time>2010-08-05T10:00:32+02:00</time>
          </trkpt>
          <trkpt lon="8.08432674" lat="50.3932724">
            <ele>206.412</ele>
            <time>2010-08-05T10:00:37+02:00</time>
          </trkpt>
          <trkpt lon="8.08438301" lat="50.39332199">
            <ele>207.824</ele>
            <time>2010-08-05T10:00:42+02:00</time>
          </trkpt>
          <trkpt lon="8.08442402" lat="50.39336014">
            <ele>208.449</ele>
            <time>2010-08-05T10:00:47+02:00</time>
          </trkpt>
          <trkpt lon="8.08445263" lat="50.39340591">
            <ele>209.032</ele>
            <time>2010-08-05T10:00:52+02:00</time>
          </trkpt>
          <trkpt lon="8.08448792" lat="50.39345551">
            <ele>209.865</ele>
            <time>2010-08-05T10:00:57+02:00</time>
          </trkpt>
          <trkpt lon="8.08453178" lat="50.39348984">
            <ele>210.382</ele>
            <time>2010-08-05T10:01:02+02:00</time>
          </trkpt>
          <trkpt lon="8.08457375" lat="50.39353561">
            <ele>210.709</ele>
            <time>2010-08-05T10:01:07+02:00</time>
          </trkpt>
          <trkpt lon="8.08460426" lat="50.39359665">
            <ele>210.122</ele>
            <time>2010-08-05T10:01:12+02:00</time>
          </trkpt>
          <trkpt lon="8.08464241" lat="50.39365387">
            <ele>210.106</ele>
            <time>2010-08-05T10:01:17+02:00</time>
          </trkpt>
          <trkpt lon="8.08468056" lat="50.39370728">
            <ele>211.124</ele>
            <time>2010-08-05T10:01:22+02:00</time>
          </trkpt>
          <trkpt lon="8.08469868" lat="50.39373016">
            <ele>210.363</ele>
            <time>2010-08-05T10:01:27+02:00</time>
          </trkpt>
          <trkpt lon="8.08474827" lat="50.3937645">
            <ele>209.861</ele>
            <time>2010-08-05T10:01:32+02:00</time>
          </trkpt>
          <trkpt lon="8.08476734" lat="50.39377594">
            <ele>210.242</ele>
            <time>2010-08-05T10:01:37+02:00</time>
          </trkpt>
          <trkpt lon="8.08476543" lat="50.39377594">
            <ele>210.351</ele>
            <time>2010-08-05T10:01:42+02:00</time>
          </trkpt>
          <trkpt lon="8.08476162" lat="50.39377213">
            <ele>210.437</ele>
            <time>2010-08-05T10:01:47+02:00</time>
          </trkpt>
          <trkpt lon="8.08476162" lat="50.39377213">
            <ele>210.485</ele>
            <time>2010-08-05T10:01:52+02:00</time>
          </trkpt>
          <trkpt lon="8.08476257" lat="50.39377213">
            <ele>210.482</ele>
            <time>2010-08-05T10:01:57+02:00</time>
          </trkpt>
          <trkpt lon="8.08475876" lat="50.39377594">
            <ele>210.472</ele>
            <time>2010-08-05T10:02:02+02:00</time>
          </trkpt>
          <trkpt lon="8.08477783" lat="50.39380646">
            <ele>210.512</ele>
            <time>2010-08-05T10:02:07+02:00</time>
          </trkpt>
          <trkpt lon="8.08479118" lat="50.39385223">
            <ele>211.142</ele>
            <time>2010-08-05T10:02:12+02:00</time>
          </trkpt>
          <trkpt lon="8.08483791" lat="50.39389038">
            <ele>211.631</ele>
            <time>2010-08-05T10:02:17+02:00</time>
          </trkpt>
          <trkpt lon="8.08488941" lat="50.39393997">
            <ele>211.428</ele>
            <time>2010-08-05T10:02:22+02:00</time>
          </trkpt>
          <trkpt lon="8.08492184" lat="50.39400101">
            <ele>210.437</ele>
            <time>2010-08-05T10:02:27+02:00</time>
          </trkpt>
          <trkpt lon="8.08497334" lat="50.39404678">
            <ele>211.159</ele>
            <time>2010-08-05T10:02:32+02:00</time>
          </trkpt>
          <trkpt lon="8.08501434" lat="50.39409637">
            <ele>211.496</ele>
            <time>2010-08-05T10:02:37+02:00</time>
          </trkpt>
          <trkpt lon="8.08505154" lat="50.39414978">
            <ele>211.856</ele>
            <time>2010-08-05T10:02:42+02:00</time>
          </trkpt>
          <trkpt lon="8.08508778" lat="50.39419937">
            <ele>211.491</ele>
            <time>2010-08-05T10:02:47+02:00</time>
          </trkpt>
          <trkpt lon="8.08511543" lat="50.39425278">
            <ele>211.039</ele>
            <time>2010-08-05T10:02:52+02:00</time>
          </trkpt>
          <trkpt lon="8.08516026" lat="50.39430237">
            <ele>210.069</ele>
            <time>2010-08-05T10:02:57+02:00</time>
          </trkpt>
          <trkpt lon="8.08521843" lat="50.39435577">
            <ele>209.294</ele>
            <time>2010-08-05T10:03:02+02:00</time>
          </trkpt>
          <trkpt lon="8.08525562" lat="50.39440155">
            <ele>208.38</ele>
            <time>2010-08-05T10:03:07+02:00</time>
          </trkpt>
          <trkpt lon="8.08529854" lat="50.39445114">
            <ele>207.874</ele>
            <time>2010-08-05T10:03:12+02:00</time>
          </trkpt>
          <trkpt lon="8.08535004" lat="50.39450836">
            <ele>206.557</ele>
            <time>2010-08-05T10:03:17+02:00</time>
          </trkpt>
          <trkpt lon="8.08539486" lat="50.39456177">
            <ele>204.847</ele>
            <time>2010-08-05T10:03:22+02:00</time>
          </trkpt>
          <trkpt lon="8.08543396" lat="50.39461136">
            <ele>205.123</ele>
            <time>2010-08-05T10:03:27+02:00</time>
          </trkpt>
          <trkpt lon="8.08547306" lat="50.39465714">
            <ele>205.98</ele>
            <time>2010-08-05T10:03:32+02:00</time>
          </trkpt>
          <trkpt lon="8.08550453" lat="50.39470673">
            <ele>206.248</ele>
            <time>2010-08-05T10:03:37+02:00</time>
          </trkpt>
          <trkpt lon="8.08554363" lat="50.39475632">
            <ele>206.075</ele>
            <time>2010-08-05T10:03:42+02:00</time>
          </trkpt>
          <trkpt lon="8.08558369" lat="50.39480591">
            <ele>205.783</ele>
            <time>2010-08-05T10:03:47+02:00</time>
          </trkpt>
          <trkpt lon="8.08563232" lat="50.39485168">
            <ele>205.552</ele>
            <time>2010-08-05T10:03:52+02:00</time>
          </trkpt>
          <trkpt lon="8.08567238" lat="50.39490128">
            <ele>205.635</ele>
            <time>2010-08-05T10:03:57+02:00</time>
          </trkpt>
          <trkpt lon="8.08571625" lat="50.39495087">
            <ele>205.795</ele>
            <time>2010-08-05T10:04:02+02:00</time>
          </trkpt>
          <trkpt lon="8.0857563" lat="50.39499664">
            <ele>205.559</ele>
            <time>2010-08-05T10:04:07+02:00</time>
          </trkpt>
          <trkpt lon="8.08579636" lat="50.39505005">
            <ele>205.052</ele>
            <time>2010-08-05T10:04:12+02:00</time>
          </trkpt>
          <trkpt lon="8.08584023" lat="50.39509964">
            <ele>204.882</ele>
            <time>2010-08-05T10:04:17+02:00</time>
          </trkpt>
          <trkpt lon="8.08587074" lat="50.39514923">
            <ele>204.796</ele>
            <time>2010-08-05T10:04:22+02:00</time>
          </trkpt>
          <trkpt lon="8.08591557" lat="50.39520264">
            <ele>205.072</ele>
            <time>2010-08-05T10:04:27+02:00</time>
          </trkpt>
          <trkpt lon="8.08595085" lat="50.39524841">
            <ele>204.77</ele>
            <time>2010-08-05T10:04:32+02:00</time>
          </trkpt>
          <trkpt lon="8.08598995" lat="50.395298">
            <ele>204.164</ele>
            <time>2010-08-05T10:04:37+02:00</time>
          </trkpt>
          <trkpt lon="8.08602524" lat="50.39535141">
            <ele>203.424</ele>
            <time>2010-08-05T10:04:42+02:00</time>
          </trkpt>
          <trkpt lon="8.08605385" lat="50.395401">
            <ele>203.583</ele>
            <time>2010-08-05T10:04:47+02:00</time>
          </trkpt>
          <trkpt lon="8.08607483" lat="50.39544678">
            <ele>203.753</ele>
            <time>2010-08-05T10:04:52+02:00</time>
          </trkpt>
          <trkpt lon="8.08609009" lat="50.39550018">
            <ele>203.949</ele>
            <time>2010-08-05T10:04:57+02:00</time>
          </trkpt>
          <trkpt lon="8.08611298" lat="50.3955574">
            <ele>203.722</ele>
            <time>2010-08-05T10:05:02+02:00</time>
          </trkpt>
          <trkpt lon="8.08611774" lat="50.39562988">
            <ele>203.751</ele>
            <time>2010-08-05T10:05:07+02:00</time>
          </trkpt>
          <trkpt lon="8.08613873" lat="50.39568329">
            <ele>202.941</ele>
            <time>2010-08-05T10:05:12+02:00</time>
          </trkpt>
          <trkpt lon="8.0861311" lat="50.39573288">
            <ele>202.255</ele>
            <time>2010-08-05T10:05:17+02:00</time>
          </trkpt>
          <trkpt lon="8.08615303" lat="50.39578247">
            <ele>202.43</ele>
            <time>2010-08-05T10:05:22+02:00</time>
          </trkpt>
          <trkpt lon="8.0861702" lat="50.39583588">
            <ele>202.414</ele>
            <time>2010-08-05T10:05:27+02:00</time>
          </trkpt>
          <trkpt lon="8.08619022" lat="50.39588547">
            <ele>203.105</ele>
            <time>2010-08-05T10:05:32+02:00</time>
          </trkpt>
          <trkpt lon="8.08620358" lat="50.39593887">
            <ele>203.923</ele>
            <time>2010-08-05T10:05:37+02:00</time>
          </trkpt>
          <trkpt lon="8.08621597" lat="50.39598846">
            <ele>204.353</ele>
            <time>2010-08-05T10:05:42+02:00</time>
          </trkpt>
          <trkpt lon="8.08622646" lat="50.39605713">
            <ele>203.893</ele>
            <time>2010-08-05T10:05:47+02:00</time>
          </trkpt>
          <trkpt lon="8.08624363" lat="50.39609528">
            <ele>205.293</ele>
            <time>2010-08-05T10:05:52+02:00</time>
          </trkpt>
          <trkpt lon="8.08623695" lat="50.39613724">
            <ele>203.661</ele>
            <time>2010-08-05T10:05:57+02:00</time>
          </trkpt>
          <trkpt lon="8.08626747" lat="50.3961792">
            <ele>203.24</ele>
            <time>2010-08-05T10:06:02+02:00</time>
          </trkpt>
          <trkpt lon="8.08628559" lat="50.39623642">
            <ele>201.905</ele>
            <time>2010-08-05T10:06:07+02:00</time>
          </trkpt>
          <trkpt lon="8.08630276" lat="50.39628601">
            <ele>201.553</ele>
            <time>2010-08-05T10:06:12+02:00</time>
          </trkpt>
          <trkpt lon="8.08630371" lat="50.39635468">
            <ele>201.57</ele>
            <time>2010-08-05T10:06:17+02:00</time>
          </trkpt>
          <trkpt lon="8.08632565" lat="50.39642334">
            <ele>201.83</ele>
            <time>2010-08-05T10:06:22+02:00</time>
          </trkpt>
          <trkpt lon="8.08635139" lat="50.39648056">
            <ele>202.497</ele>
            <time>2010-08-05T10:06:27+02:00</time>
          </trkpt>
          <trkpt lon="8.08636379" lat="50.39653778">
            <ele>203.071</ele>
            <time>2010-08-05T10:06:32+02:00</time>
          </trkpt>
          <trkpt lon="8.08639908" lat="50.39659882">
            <ele>200.53</ele>
            <time>2010-08-05T10:06:37+02:00</time>
          </trkpt>
          <trkpt lon="8.08643532" lat="50.39665985">
            <ele>200.158</ele>
            <time>2010-08-05T10:06:42+02:00</time>
          </trkpt>
          <trkpt lon="8.08644962" lat="50.39672089">
            <ele>199.075</ele>
            <time>2010-08-05T10:06:47+02:00</time>
          </trkpt>
          <trkpt lon="8.08647346" lat="50.39678955">
            <ele>198.966</ele>
            <time>2010-08-05T10:06:52+02:00</time>
          </trkpt>
          <trkpt lon="8.08645725" lat="50.39683151">
            <ele>198.13</ele>
            <time>2010-08-05T10:06:57+02:00</time>
          </trkpt>
          <trkpt lon="8.08647346" lat="50.39690399">
            <ele>197.59</ele>
            <time>2010-08-05T10:07:02+02:00</time>
          </trkpt>
          <trkpt lon="8.08649921" lat="50.39696121">
            <ele>197.628</ele>
            <time>2010-08-05T10:07:07+02:00</time>
          </trkpt>
          <trkpt lon="8.08650112" lat="50.39702606">
            <ele>197.142</ele>
            <time>2010-08-05T10:07:12+02:00</time>
          </trkpt>
          <trkpt lon="8.08651447" lat="50.39707565">
            <ele>196.923</ele>
            <time>2010-08-05T10:07:17+02:00</time>
          </trkpt>
          <trkpt lon="8.08654022" lat="50.39714432">
            <ele>192.821</ele>
            <time>2010-08-05T10:07:22+02:00</time>
          </trkpt>
          <trkpt lon="8.0865593" lat="50.39719391">
            <ele>192.325</ele>
            <time>2010-08-05T10:07:27+02:00</time>
          </trkpt>
          <trkpt lon="8.08659172" lat="50.39723969">
            <ele>191.979</ele>
            <time>2010-08-05T10:07:32+02:00</time>
          </trkpt>
          <trkpt lon="8.08660698" lat="50.39729691">
            <ele>190.391</ele>
            <time>2010-08-05T10:07:37+02:00</time>
          </trkpt>
          <trkpt lon="8.08660126" lat="50.39735794">
            <ele>191.267</ele>
            <time>2010-08-05T10:07:42+02:00</time>
          </trkpt>
          <trkpt lon="8.08661079" lat="50.39741898">
            <ele>190.535</ele>
            <time>2010-08-05T10:07:47+02:00</time>
          </trkpt>
          <trkpt lon="8.08662701" lat="50.39746857">
            <ele>190.929</ele>
            <time>2010-08-05T10:07:52+02:00</time>
          </trkpt>
          <trkpt lon="8.0866518" lat="50.39752197">
            <ele>190.998</ele>
            <time>2010-08-05T10:07:57+02:00</time>
          </trkpt>
          <trkpt lon="8.08667946" lat="50.39757919">
            <ele>190.865</ele>
            <time>2010-08-05T10:08:02+02:00</time>
          </trkpt>
          <trkpt lon="8.0867033" lat="50.3976326">
            <ele>190.818</ele>
            <time>2010-08-05T10:08:07+02:00</time>
          </trkpt>
          <trkpt lon="8.08670998" lat="50.39770126">
            <ele>191.585</ele>
            <time>2010-08-05T10:08:12+02:00</time>
          </trkpt>
          <trkpt lon="8.08672905" lat="50.39775085">
            <ele>192.612</ele>
            <time>2010-08-05T10:08:17+02:00</time>
          </trkpt>
          <trkpt lon="8.08674431" lat="50.39780426">
            <ele>192.925</ele>
            <time>2010-08-05T10:08:22+02:00</time>
          </trkpt>
          <trkpt lon="8.08675289" lat="50.39785767">
            <ele>193.148</ele>
            <time>2010-08-05T10:08:27+02:00</time>
          </trkpt>
          <trkpt lon="8.08677101" lat="50.39792633">
            <ele>192.809</ele>
            <time>2010-08-05T10:08:32+02:00</time>
          </trkpt>
          <trkpt lon="8.08678055" lat="50.39795303">
            <ele>194.212</ele>
            <time>2010-08-05T10:08:37+02:00</time>
          </trkpt>
          <trkpt lon="8.08680344" lat="50.39799881">
            <ele>197.284</ele>
            <time>2010-08-05T10:08:42+02:00</time>
          </trkpt>
          <trkpt lon="8.08682442" lat="50.39804459">
            <ele>198.019</ele>
            <time>2010-08-05T10:08:47+02:00</time>
          </trkpt>
          <trkpt lon="8.08684254" lat="50.39810944">
            <ele>195.749</ele>
            <time>2010-08-05T10:08:52+02:00</time>
          </trkpt>
          <trkpt lon="8.08685398" lat="50.39815521">
            <ele>194.959</ele>
            <time>2010-08-05T10:08:57+02:00</time>
          </trkpt>
          <trkpt lon="8.08683205" lat="50.39814758">
            <ele>198.969</ele>
            <time>2010-08-05T10:09:02+02:00</time>
          </trkpt>
          <trkpt lon="8.08682823" lat="50.39815903">
            <ele>199.511</ele>
            <time>2010-08-05T10:09:07+02:00</time>
          </trkpt>
          <trkpt lon="8.08683395" lat="50.39815521">
            <ele>199.302</ele>
            <time>2010-08-05T10:09:12+02:00</time>
          </trkpt>
          <trkpt lon="8.08683968" lat="50.39815521">
            <ele>199.191</ele>
            <time>2010-08-05T10:09:17+02:00</time>
          </trkpt>
          <trkpt lon="8.08685493" lat="50.39818954">
            <ele>199.357</ele>
            <time>2010-08-05T10:09:22+02:00</time>
          </trkpt>
          <trkpt lon="8.0868597" lat="50.39824677">
            <ele>199.849</ele>
            <time>2010-08-05T10:09:27+02:00</time>
          </trkpt>
          <trkpt lon="8.08686924" lat="50.39830399">
            <ele>200.454</ele>
            <time>2010-08-05T10:09:32+02:00</time>
          </trkpt>
          <trkpt lon="8.08686543" lat="50.39835358">
            <ele>201.093</ele>
            <time>2010-08-05T10:09:37+02:00</time>
          </trkpt>
          <trkpt lon="8.08688354" lat="50.39840698">
            <ele>201.313</ele>
            <time>2010-08-05T10:09:42+02:00</time>
          </trkpt>
          <trkpt lon="8.08690071" lat="50.3984642">
            <ele>201.087</ele>
            <time>2010-08-05T10:09:47+02:00</time>
          </trkpt>
          <trkpt lon="8.08692646" lat="50.39852524">
            <ele>198.586</ele>
            <time>2010-08-05T10:09:52+02:00</time>
          </trkpt>
          <trkpt lon="8.08694267" lat="50.39858246">
            <ele>199.155</ele>
            <time>2010-08-05T10:09:57+02:00</time>
          </trkpt>
          <trkpt lon="8.08695602" lat="50.39863968">
            <ele>198.778</ele>
            <time>2010-08-05T10:10:02+02:00</time>
          </trkpt>
          <trkpt lon="8.08697605" lat="50.39870071">
            <ele>198.618</ele>
            <time>2010-08-05T10:10:07+02:00</time>
          </trkpt>
          <trkpt lon="8.08699036" lat="50.39875793">
            <ele>199.064</ele>
            <time>2010-08-05T10:10:12+02:00</time>
          </trkpt>
          <trkpt lon="8.08701706" lat="50.39882278">
            <ele>198.424</ele>
            <time>2010-08-05T10:10:17+02:00</time>
          </trkpt>
          <trkpt lon="8.08703613" lat="50.39889145">
            <ele>197.007</ele>
            <time>2010-08-05T10:10:22+02:00</time>
          </trkpt>
          <trkpt lon="8.08704472" lat="50.39893723">
            <ele>197.348</ele>
            <time>2010-08-05T10:10:27+02:00</time>
          </trkpt>
          <trkpt lon="8.08705711" lat="50.39899445">
            <ele>197.902</ele>
            <time>2010-08-05T10:10:32+02:00</time>
          </trkpt>
          <trkpt lon="8.08707905" lat="50.39905167">
            <ele>198.083</ele>
            <time>2010-08-05T10:10:37+02:00</time>
          </trkpt>
          <trkpt lon="8.08710003" lat="50.39910889">
            <ele>198.462</ele>
            <time>2010-08-05T10:10:42+02:00</time>
          </trkpt>
          <trkpt lon="8.0871172" lat="50.39916611">
            <ele>198.036</ele>
            <time>2010-08-05T10:10:47+02:00</time>
          </trkpt>
          <trkpt lon="8.08713245" lat="50.39921951">
            <ele>197.928</ele>
            <time>2010-08-05T10:10:52+02:00</time>
          </trkpt>
          <trkpt lon="8.08715153" lat="50.39927292">
            <ele>198.003</ele>
            <time>2010-08-05T10:10:57+02:00</time>
          </trkpt>
          <trkpt lon="8.08716488" lat="50.39932632">
            <ele>198.409</ele>
            <time>2010-08-05T10:11:02+02:00</time>
          </trkpt>
          <trkpt lon="8.08718014" lat="50.39938354">
            <ele>197.837</ele>
            <time>2010-08-05T10:11:07+02:00</time>
          </trkpt>
          <trkpt lon="8.08719635" lat="50.39944077">
            <ele>197.759</ele>
            <time>2010-08-05T10:11:12+02:00</time>
          </trkpt>
          <trkpt lon="8.08721066" lat="50.39949417">
            <ele>198.306</ele>
            <time>2010-08-05T10:11:17+02:00</time>
          </trkpt>
          <trkpt lon="8.08723736" lat="50.39954376">
            <ele>197.765</ele>
            <time>2010-08-05T10:11:22+02:00</time>
          </trkpt>
          <trkpt lon="8.08728313" lat="50.39957047">
            <ele>199.273</ele>
            <time>2010-08-05T10:11:27+02:00</time>
          </trkpt>
          <trkpt lon="8.08735085" lat="50.39956665">
            <ele>200.48</ele>
            <time>2010-08-05T10:11:32+02:00</time>
          </trkpt>
          <trkpt lon="8.08741856" lat="50.39953232">
            <ele>201.721</ele>
            <time>2010-08-05T10:11:37+02:00</time>
          </trkpt>
          <trkpt lon="8.0874939" lat="50.39952087">
            <ele>202.658</ele>
            <time>2010-08-05T10:11:42+02:00</time>
          </trkpt>
          <trkpt lon="8.08757877" lat="50.39952087">
            <ele>202.917</ele>
            <time>2010-08-05T10:11:47+02:00</time>
          </trkpt>
          <trkpt lon="8.08763599" lat="50.39950562">
            <ele>203.353</ele>
            <time>2010-08-05T10:11:52+02:00</time>
          </trkpt>
          <trkpt lon="8.08774853" lat="50.3995285">
            <ele>204.134</ele>
            <time>2010-08-05T10:11:57+02:00</time>
          </trkpt>
          <trkpt lon="8.0878067" lat="50.39952087">
            <ele>203.212</ele>
            <time>2010-08-05T10:12:02+02:00</time>
          </trkpt>
          <trkpt lon="8.08785534" lat="50.39952469">
            <ele>203.644</ele>
            <time>2010-08-05T10:12:07+02:00</time>
          </trkpt>
          <trkpt lon="8.08792782" lat="50.39952469">
            <ele>205.199</ele>
            <time>2010-08-05T10:12:12+02:00</time>
          </trkpt>
          <trkpt lon="8.08798218" lat="50.39951706">
            <ele>206.012</ele>
            <time>2010-08-05T10:12:17+02:00</time>
          </trkpt>
          <trkpt lon="8.08802986" lat="50.39950943">
            <ele>205.747</ele>
            <time>2010-08-05T10:12:22+02:00</time>
          </trkpt>
          <trkpt lon="8.08808994" lat="50.39950943">
            <ele>205.645</ele>
            <time>2010-08-05T10:12:27+02:00</time>
          </trkpt>
          <trkpt lon="8.08815575" lat="50.39950562">
            <ele>206.411</ele>
            <time>2010-08-05T10:12:32+02:00</time>
          </trkpt>
          <trkpt lon="8.08823872" lat="50.39950943">
            <ele>207.455</ele>
            <time>2010-08-05T10:12:37+02:00</time>
          </trkpt>
          <trkpt lon="8.08831596" lat="50.39950562">
            <ele>206.702</ele>
            <time>2010-08-05T10:12:42+02:00</time>
          </trkpt>
          <trkpt lon="8.08838081" lat="50.3995018">
            <ele>207.203</ele>
            <time>2010-08-05T10:12:47+02:00</time>
          </trkpt>
          <trkpt lon="8.08847618" lat="50.39949799">
            <ele>207.082</ele>
            <time>2010-08-05T10:12:52+02:00</time>
          </trkpt>
          <trkpt lon="8.08855534" lat="50.39949417">
            <ele>205.84</ele>
            <time>2010-08-05T10:12:57+02:00</time>
          </trkpt>
          <trkpt lon="8.08859444" lat="50.39946747">
            <ele>204.709</ele>
            <time>2010-08-05T10:13:02+02:00</time>
          </trkpt>
          <trkpt lon="8.08866787" lat="50.39945221">
            <ele>204.667</ele>
            <time>2010-08-05T10:13:07+02:00</time>
          </trkpt>
          <trkpt lon="8.08867455" lat="50.39942169">
            <ele>205.659</ele>
            <time>2010-08-05T10:13:12+02:00</time>
          </trkpt>
          <trkpt lon="8.08867073" lat="50.39940262">
            <ele>207.354</ele>
            <time>2010-08-05T10:13:17+02:00</time>
          </trkpt>
          <trkpt lon="8.0886631" lat="50.39936066">
            <ele>209.719</ele>
            <time>2010-08-05T10:13:22+02:00</time>
          </trkpt>
          <trkpt lon="8.08864689" lat="50.39933395">
            <ele>211.978</ele>
            <time>2010-08-05T10:13:27+02:00</time>
          </trkpt>
          <trkpt lon="8.08864117" lat="50.39929581">
            <ele>212.847</ele>
            <time>2010-08-05T10:13:32+02:00</time>
          </trkpt>
          <trkpt lon="8.08861828" lat="50.39927673">
            <ele>212.77</ele>
            <time>2010-08-05T10:13:37+02:00</time>
          </trkpt>
          <trkpt lon="8.08861256" lat="50.39927673">
            <ele>211.098</ele>
            <time>2010-08-05T10:13:42+02:00</time>
          </trkpt>
          <trkpt lon="8.08859921" lat="50.39925766">
            <ele>211.47</ele>
            <time>2010-08-05T10:13:47+02:00</time>
          </trkpt>
          <trkpt lon="8.0885973" lat="50.39923859">
            <ele>213.58</ele>
            <time>2010-08-05T10:13:52+02:00</time>
          </trkpt>
          <trkpt lon="8.08858395" lat="50.39920044">
            <ele>215.604</ele>
            <time>2010-08-05T10:13:57+02:00</time>
          </trkpt>
          <trkpt lon="8.08856678" lat="50.39918518">
            <ele>215.559</ele>
            <time>2010-08-05T10:14:02+02:00</time>
          </trkpt>
          <trkpt lon="8.08856773" lat="50.39917755">
            <ele>216.047</ele>
            <time>2010-08-05T10:14:07+02:00</time>
          </trkpt>
          <trkpt lon="8.08857346" lat="50.39914703">
            <ele>215.682</ele>
            <time>2010-08-05T10:14:12+02:00</time>
          </trkpt>
          <trkpt lon="8.08857155" lat="50.39913559">
            <ele>216.264</ele>
            <time>2010-08-05T10:14:17+02:00</time>
          </trkpt>
          <trkpt lon="8.0885601" lat="50.39912033">
            <ele>216.403</ele>
            <time>2010-08-05T10:14:22+02:00</time>
          </trkpt>
          <trkpt lon="8.08854866" lat="50.39911652">
            <ele>216.602</ele>
            <time>2010-08-05T10:14:27+02:00</time>
          </trkpt>
          <trkpt lon="8.08855629" lat="50.3991127">
            <ele>216.681</ele>
            <time>2010-08-05T10:14:32+02:00</time>
          </trkpt>
          <trkpt lon="8.08854961" lat="50.39910889">
            <ele>217.007</ele>
            <time>2010-08-05T10:14:37+02:00</time>
          </trkpt>
          <trkpt lon="8.08855247" lat="50.39910126">
            <ele>217.325</ele>
            <time>2010-08-05T10:14:42+02:00</time>
          </trkpt>
          <trkpt lon="8.08856297" lat="50.39910126">
            <ele>217.628</ele>
            <time>2010-08-05T10:14:47+02:00</time>
          </trkpt>
          <trkpt lon="8.08858871" lat="50.399086">
            <ele>217.679</ele>
            <time>2010-08-05T10:14:52+02:00</time>
          </trkpt>
          <trkpt lon="8.08861923" lat="50.39908218">
            <ele>217.929</ele>
            <time>2010-08-05T10:14:57+02:00</time>
          </trkpt>
          <trkpt lon="8.08862972" lat="50.39907837">
            <ele>218.234</ele>
            <time>2010-08-05T10:15:02+02:00</time>
          </trkpt>
          <trkpt lon="8.08864212" lat="50.39907455">
            <ele>218.539</ele>
            <time>2010-08-05T10:15:07+02:00</time>
          </trkpt>
          <trkpt lon="8.08864689" lat="50.39907455">
            <ele>218.741</ele>
            <time>2010-08-05T10:15:12+02:00</time>
          </trkpt>
          <trkpt lon="8.08864594" lat="50.39907455">
            <ele>218.831</ele>
            <time>2010-08-05T10:15:17+02:00</time>
          </trkpt>
          <trkpt lon="8.08864307" lat="50.39907455">
            <ele>218.865</ele>
            <time>2010-08-05T10:15:22+02:00</time>
          </trkpt>
          <trkpt lon="8.08864212" lat="50.39907455">
            <ele>218.854</ele>
            <time>2010-08-05T10:15:27+02:00</time>
          </trkpt>
          <trkpt lon="8.08864212" lat="50.39907455">
            <ele>218.815</ele>
            <time>2010-08-05T10:15:32+02:00</time>
          </trkpt>
          <trkpt lon="8.08864498" lat="50.39907455">
            <ele>218.784</ele>
            <time>2010-08-05T10:15:37+02:00</time>
          </trkpt>
          <trkpt lon="8.08864498" lat="50.39907074">
            <ele>218.744</ele>
            <time>2010-08-05T10:15:42+02:00</time>
          </trkpt>
          <trkpt lon="8.08864784" lat="50.39907074">
            <ele>218.696</ele>
            <time>2010-08-05T10:15:47+02:00</time>
          </trkpt>
          <trkpt lon="8.0886507" lat="50.39906693">
            <ele>218.642</ele>
            <time>2010-08-05T10:15:52+02:00</time>
          </trkpt>
          <trkpt lon="8.08865547" lat="50.39906693">
            <ele>218.563</ele>
            <time>2010-08-05T10:15:57+02:00</time>
          </trkpt>
          <trkpt lon="8.08866024" lat="50.39906311">
            <ele>218.445</ele>
            <time>2010-08-05T10:16:02+02:00</time>
          </trkpt>
          <trkpt lon="8.0886631" lat="50.39906693">
            <ele>218.295</ele>
            <time>2010-08-05T10:16:07+02:00</time>
          </trkpt>
          <trkpt lon="8.08866405" lat="50.39906311">
            <ele>218.175</ele>
            <time>2010-08-05T10:16:12+02:00</time>
          </trkpt>
          <trkpt lon="8.08866501" lat="50.39906311">
            <ele>218.158</ele>
            <time>2010-08-05T10:16:17+02:00</time>
          </trkpt>
          <trkpt lon="8.08866501" lat="50.39906311">
            <ele>218.143</ele>
            <time>2010-08-05T10:16:22+02:00</time>
          </trkpt>
          <trkpt lon="8.08866501" lat="50.39906311">
            <ele>218.128</ele>
            <time>2010-08-05T10:16:27+02:00</time>
          </trkpt>
          <trkpt lon="8.08866596" lat="50.39906311">
            <ele>218.093</ele>
            <time>2010-08-05T10:16:32+02:00</time>
          </trkpt>
          <trkpt lon="8.08866787" lat="50.39906311">
            <ele>218.035</ele>
            <time>2010-08-05T10:16:37+02:00</time>
          </trkpt>
          <trkpt lon="8.08867359" lat="50.39905548">
            <ele>217.957</ele>
            <time>2010-08-05T10:16:42+02:00</time>
          </trkpt>
          <trkpt lon="8.08867931" lat="50.39905167">
            <ele>217.874</ele>
            <time>2010-08-05T10:16:47+02:00</time>
          </trkpt>
          <trkpt lon="8.08868313" lat="50.39904785">
            <ele>217.776</ele>
            <time>2010-08-05T10:16:52+02:00</time>
          </trkpt>
          <trkpt lon="8.08868694" lat="50.39904022">
            <ele>217.678</ele>
            <time>2010-08-05T10:16:57+02:00</time>
          </trkpt>
          <trkpt lon="8.08868694" lat="50.39904022">
            <ele>217.562</ele>
            <time>2010-08-05T10:17:02+02:00</time>
          </trkpt>
          <trkpt lon="8.08868694" lat="50.39903641">
            <ele>217.391</ele>
            <time>2010-08-05T10:17:07+02:00</time>
          </trkpt>
          <trkpt lon="8.08868694" lat="50.39903641">
            <ele>217.306</ele>
            <time>2010-08-05T10:17:12+02:00</time>
          </trkpt>
          <trkpt lon="8.0886879" lat="50.39903641">
            <ele>217.276</ele>
            <time>2010-08-05T10:17:17+02:00</time>
          </trkpt>
          <trkpt lon="8.0886879" lat="50.39903641">
            <ele>217.265</ele>
            <time>2010-08-05T10:17:22+02:00</time>
          </trkpt>
          <trkpt lon="8.0886879" lat="50.39903641">
            <ele>217.238</ele>
            <time>2010-08-05T10:17:27+02:00</time>
          </trkpt>
          <trkpt lon="8.0886879" lat="50.39903641">
            <ele>217.231</ele>
            <time>2010-08-05T10:17:32+02:00</time>
          </trkpt>
          <trkpt lon="8.0886879" lat="50.39903641">
            <ele>217.209</ele>
            <time>2010-08-05T10:17:37+02:00</time>
          </trkpt>
          <trkpt lon="8.08868885" lat="50.39903641">
            <ele>217.188</ele>
            <time>2010-08-05T10:17:42+02:00</time>
          </trkpt>
          <trkpt lon="8.08868885" lat="50.39903641">
            <ele>217.158</ele>
            <time>2010-08-05T10:17:47+02:00</time>
          </trkpt>
          <trkpt lon="8.08868885" lat="50.39903641">
            <ele>217.12</ele>
            <time>2010-08-05T10:17:52+02:00</time>
          </trkpt>
          <trkpt lon="8.0886898" lat="50.39903641">
            <ele>217.101</ele>
            <time>2010-08-05T10:17:57+02:00</time>
          </trkpt>
          <trkpt lon="8.0886898" lat="50.39903641">
            <ele>217.058</ele>
            <time>2010-08-05T10:18:02+02:00</time>
          </trkpt>
          <trkpt lon="8.0886898" lat="50.39903641">
            <ele>217.008</ele>
            <time>2010-08-05T10:18:07+02:00</time>
          </trkpt>
          <trkpt lon="8.0886898" lat="50.39903641">
            <ele>216.969</ele>
            <time>2010-08-05T10:18:12+02:00</time>
          </trkpt>
          <trkpt lon="8.0886898" lat="50.39903641">
            <ele>216.953</ele>
            <time>2010-08-05T10:18:17+02:00</time>
          </trkpt>
          <trkpt lon="8.0886898" lat="50.39903641">
            <ele>216.926</ele>
            <time>2010-08-05T10:18:22+02:00</time>
          </trkpt>
          <trkpt lon="8.08869362" lat="50.39903641">
            <ele>216.99</ele>
            <time>2010-08-05T10:18:27+02:00</time>
          </trkpt>
          <trkpt lon="8.08872032" lat="50.39902496">
            <ele>217.313</ele>
            <time>2010-08-05T10:18:32+02:00</time>
          </trkpt>
          <trkpt lon="8.0887413" lat="50.39902115">
            <ele>217.559</ele>
            <time>2010-08-05T10:18:37+02:00</time>
          </trkpt>
          <trkpt lon="8.08875275" lat="50.3990097">
            <ele>217.781</ele>
            <time>2010-08-05T10:18:42+02:00</time>
          </trkpt>
          <trkpt lon="8.08876324" lat="50.39900208">
            <ele>218.059</ele>
            <time>2010-08-05T10:18:47+02:00</time>
          </trkpt>
          <trkpt lon="8.08876514" lat="50.39899826">
            <ele>218.322</ele>
            <time>2010-08-05T10:18:52+02:00</time>
          </trkpt>
          <trkpt lon="8.08876705" lat="50.39900208">
            <ele>218.566</ele>
            <time>2010-08-05T10:18:57+02:00</time>
          </trkpt>
          <trkpt lon="8.08876419" lat="50.39899826">
            <ele>218.786</ele>
            <time>2010-08-05T10:19:02+02:00</time>
          </trkpt>
          <trkpt lon="8.08876324" lat="50.39899445">
            <ele>218.994</ele>
            <time>2010-08-05T10:19:07+02:00</time>
          </trkpt>
          <trkpt lon="8.08876991" lat="50.39899445">
            <ele>219.151</ele>
            <time>2010-08-05T10:19:12+02:00</time>
          </trkpt>
          <trkpt lon="8.08877087" lat="50.39899826">
            <ele>219.285</ele>
            <time>2010-08-05T10:19:17+02:00</time>
          </trkpt>
          <trkpt lon="8.08877087" lat="50.39899826">
            <ele>219.288</ele>
            <time>2010-08-05T10:19:22+02:00</time>
          </trkpt>
          <trkpt lon="8.08877182" lat="50.39899826">
            <ele>219.245</ele>
            <time>2010-08-05T10:19:27+02:00</time>
          </trkpt>
          <trkpt lon="8.08877182" lat="50.39899445">
            <ele>219.159</ele>
            <time>2010-08-05T10:19:32+02:00</time>
          </trkpt>
          <trkpt lon="8.08877182" lat="50.39899063">
            <ele>218.862</ele>
            <time>2010-08-05T10:19:37+02:00</time>
          </trkpt>
          <trkpt lon="8.08877182" lat="50.39899063">
            <ele>218.886</ele>
            <time>2010-08-05T10:19:42+02:00</time>
          </trkpt>
          <trkpt lon="8.08877182" lat="50.39899063">
            <ele>218.928</ele>
            <time>2010-08-05T10:19:47+02:00</time>
          </trkpt>
          <trkpt lon="8.08877182" lat="50.39899063">
            <ele>218.952</ele>
            <time>2010-08-05T10:19:52+02:00</time>
          </trkpt>
          <trkpt lon="8.08877182" lat="50.39899063">
            <ele>218.921</ele>
            <time>2010-08-05T10:19:57+02:00</time>
          </trkpt>
          <trkpt lon="8.08877277" lat="50.39899063">
            <ele>218.812</ele>
            <time>2010-08-05T10:20:02+02:00</time>
          </trkpt>
          <trkpt lon="8.08877277" lat="50.39898682">
            <ele>218.649</ele>
            <time>2010-08-05T10:20:07+02:00</time>
          </trkpt>
          <trkpt lon="8.08877277" lat="50.398983">
            <ele>218.435</ele>
            <time>2010-08-05T10:20:12+02:00</time>
          </trkpt>
          <trkpt lon="8.08877277" lat="50.39897919">
            <ele>218.132</ele>
            <time>2010-08-05T10:20:17+02:00</time>
          </trkpt>
          <trkpt lon="8.08877373" lat="50.39897156">
            <ele>217.773</ele>
            <time>2010-08-05T10:20:22+02:00</time>
          </trkpt>
          <trkpt lon="8.08877468" lat="50.39896774">
            <ele>217.424</ele>
            <time>2010-08-05T10:20:27+02:00</time>
          </trkpt>
          <trkpt lon="8.08877468" lat="50.39896393">
            <ele>217.07</ele>
            <time>2010-08-05T10:20:32+02:00</time>
          </trkpt>
          <trkpt lon="8.08877754" lat="50.39896393">
            <ele>216.696</ele>
            <time>2010-08-05T10:20:37+02:00</time>
          </trkpt>
          <trkpt lon="8.08877945" lat="50.39896393">
            <ele>216.36</ele>
            <time>2010-08-05T10:20:42+02:00</time>
          </trkpt>
          <trkpt lon="8.08877945" lat="50.39896393">
            <ele>216.352</ele>
            <time>2010-08-05T10:20:47+02:00</time>
          </trkpt>
          <trkpt lon="8.08877945" lat="50.39896393">
            <ele>216.366</ele>
            <time>2010-08-05T10:20:52+02:00</time>
          </trkpt>
          <trkpt lon="8.08877945" lat="50.39896393">
            <ele>216.359</ele>
            <time>2010-08-05T10:20:57+02:00</time>
          </trkpt>
          <trkpt lon="8.08877945" lat="50.39896393">
            <ele>216.392</ele>
            <time>2010-08-05T10:21:02+02:00</time>
          </trkpt>
          <trkpt lon="8.0887804" lat="50.39896393">
            <ele>216.4</ele>
            <time>2010-08-05T10:21:07+02:00</time>
          </trkpt>
          <trkpt lon="8.0887804" lat="50.39896393">
            <ele>216.394</ele>
            <time>2010-08-05T10:21:12+02:00</time>
          </trkpt>
          <trkpt lon="8.0887804" lat="50.39896393">
            <ele>216.397</ele>
            <time>2010-08-05T10:21:17+02:00</time>
          </trkpt>
          <trkpt lon="8.0887804" lat="50.39896393">
            <ele>216.37</ele>
            <time>2010-08-05T10:21:22+02:00</time>
          </trkpt>
          <trkpt lon="8.0887804" lat="50.39896393">
            <ele>216.349</ele>
            <time>2010-08-05T10:21:27+02:00</time>
          </trkpt>
          <trkpt lon="8.08878136" lat="50.39896393">
            <ele>216.319</ele>
            <time>2010-08-05T10:21:32+02:00</time>
          </trkpt>
          <trkpt lon="8.08878231" lat="50.39896393">
            <ele>216.292</ele>
            <time>2010-08-05T10:21:37+02:00</time>
          </trkpt>
          <trkpt lon="8.08878326" lat="50.39896393">
            <ele>216.252</ele>
            <time>2010-08-05T10:21:42+02:00</time>
          </trkpt>
          <trkpt lon="8.08878422" lat="50.39896393">
            <ele>216.233</ele>
            <time>2010-08-05T10:21:47+02:00</time>
          </trkpt>
          <trkpt lon="8.08878517" lat="50.39896393">
            <ele>216.207</ele>
            <time>2010-08-05T10:21:52+02:00</time>
          </trkpt>
          <trkpt lon="8.08878613" lat="50.39896393">
            <ele>216.209</ele>
            <time>2010-08-05T10:21:57+02:00</time>
          </trkpt>
          <trkpt lon="8.08878708" lat="50.39896393">
            <ele>216.203</ele>
            <time>2010-08-05T10:22:02+02:00</time>
          </trkpt>
          <trkpt lon="8.08878708" lat="50.39896393">
            <ele>216.194</ele>
            <time>2010-08-05T10:22:07+02:00</time>
          </trkpt>
          <trkpt lon="8.08878708" lat="50.39896393">
            <ele>216.174</ele>
            <time>2010-08-05T10:22:12+02:00</time>
          </trkpt>
          <trkpt lon="8.08878613" lat="50.39896393">
            <ele>216.157</ele>
            <time>2010-08-05T10:22:17+02:00</time>
          </trkpt>
          <trkpt lon="8.08878708" lat="50.39896393">
            <ele>216.108</ele>
            <time>2010-08-05T10:22:22+02:00</time>
          </trkpt>
          <trkpt lon="8.08878803" lat="50.39896393">
            <ele>216.048</ele>
            <time>2010-08-05T10:22:27+02:00</time>
          </trkpt>
          <trkpt lon="8.08878803" lat="50.39896393">
            <ele>216.026</ele>
            <time>2010-08-05T10:22:32+02:00</time>
          </trkpt>
          <trkpt lon="8.08878899" lat="50.39896393">
            <ele>215.968</ele>
            <time>2010-08-05T10:22:37+02:00</time>
          </trkpt>
          <trkpt lon="8.08878899" lat="50.39896393">
            <ele>215.952</ele>
            <time>2010-08-05T10:22:42+02:00</time>
          </trkpt>
          <trkpt lon="8.08878899" lat="50.39896393">
            <ele>215.925</ele>
            <time>2010-08-05T10:22:47+02:00</time>
          </trkpt>
          <trkpt lon="8.08878899" lat="50.39896393">
            <ele>215.864</ele>
            <time>2010-08-05T10:22:52+02:00</time>
          </trkpt>
          <trkpt lon="8.08878899" lat="50.39896393">
            <ele>215.842</ele>
            <time>2010-08-05T10:22:57+02:00</time>
          </trkpt>
          <trkpt lon="8.08878994" lat="50.39896393">
            <ele>215.798</ele>
            <time>2010-08-05T10:23:02+02:00</time>
          </trkpt>
          <trkpt lon="8.08878994" lat="50.39896393">
            <ele>215.751</ele>
            <time>2010-08-05T10:23:07+02:00</time>
          </trkpt>
          <trkpt lon="8.08879089" lat="50.39896774">
            <ele>215.712</ele>
            <time>2010-08-05T10:23:12+02:00</time>
          </trkpt>
          <trkpt lon="8.08879185" lat="50.39896774">
            <ele>215.634</ele>
            <time>2010-08-05T10:23:17+02:00</time>
          </trkpt>
          <trkpt lon="8.08879185" lat="50.39896774">
            <ele>215.548</ele>
            <time>2010-08-05T10:23:22+02:00</time>
          </trkpt>
          <trkpt lon="8.0887928" lat="50.39896774">
            <ele>215.477</ele>
            <time>2010-08-05T10:23:27+02:00</time>
          </trkpt>
          <trkpt lon="8.0887928" lat="50.39896774">
            <ele>215.401</ele>
            <time>2010-08-05T10:23:32+02:00</time>
          </trkpt>
          <trkpt lon="8.0887928" lat="50.39896774">
            <ele>215.34</ele>
            <time>2010-08-05T10:23:37+02:00</time>
          </trkpt>
          <trkpt lon="8.08879375" lat="50.39896774">
            <ele>215.282</ele>
            <time>2010-08-05T10:23:42+02:00</time>
          </trkpt>
          <trkpt lon="8.08879375" lat="50.39896774">
            <ele>215.222</ele>
            <time>2010-08-05T10:23:47+02:00</time>
          </trkpt>
          <trkpt lon="8.08879375" lat="50.39896774">
            <ele>215.158</ele>
            <time>2010-08-05T10:23:52+02:00</time>
          </trkpt>
          <trkpt lon="8.08879375" lat="50.39896774">
            <ele>215.102</ele>
            <time>2010-08-05T10:23:57+02:00</time>
          </trkpt>
          <trkpt lon="8.08879375" lat="50.39896774">
            <ele>215.083</ele>
            <time>2010-08-05T10:24:02+02:00</time>
          </trkpt>
          <trkpt lon="8.08879375" lat="50.39896774">
            <ele>215.044</ele>
            <time>2010-08-05T10:24:07+02:00</time>
          </trkpt>
          <trkpt lon="8.08879375" lat="50.39896774">
            <ele>214.998</ele>
            <time>2010-08-05T10:24:12+02:00</time>
          </trkpt>
          <trkpt lon="8.08879375" lat="50.39896774">
            <ele>214.954</ele>
            <time>2010-08-05T10:24:17+02:00</time>
          </trkpt>
          <trkpt lon="8.08879375" lat="50.39896774">
            <ele>214.936</ele>
            <time>2010-08-05T10:24:22+02:00</time>
          </trkpt>
          <trkpt lon="8.08879375" lat="50.39896774">
            <ele>214.911</ele>
            <time>2010-08-05T10:24:27+02:00</time>
          </trkpt>
          <trkpt lon="8.08879471" lat="50.39896774">
            <ele>214.873</ele>
            <time>2010-08-05T10:24:32+02:00</time>
          </trkpt>
          <trkpt lon="8.08879471" lat="50.39896774">
            <ele>214.805</ele>
            <time>2010-08-05T10:24:37+02:00</time>
          </trkpt>
          <trkpt lon="8.08879471" lat="50.39896774">
            <ele>214.767</ele>
            <time>2010-08-05T10:24:42+02:00</time>
          </trkpt>
          <trkpt lon="8.08879471" lat="50.39896774">
            <ele>214.734</ele>
            <time>2010-08-05T10:24:47+02:00</time>
          </trkpt>
          <trkpt lon="8.08879471" lat="50.39896774">
            <ele>214.755</ele>
            <time>2010-08-05T10:24:52+02:00</time>
          </trkpt>
          <trkpt lon="8.08879471" lat="50.39896774">
            <ele>214.701</ele>
            <time>2010-08-05T10:24:57+02:00</time>
          </trkpt>
          <trkpt lon="8.08879471" lat="50.39896774">
            <ele>214.667</ele>
            <time>2010-08-05T10:25:02+02:00</time>
          </trkpt>
          <trkpt lon="8.08879471" lat="50.39896774">
            <ele>214.674</ele>
            <time>2010-08-05T10:25:07+02:00</time>
          </trkpt>
          <trkpt lon="8.08879566" lat="50.39896774">
            <ele>214.658</ele>
            <time>2010-08-05T10:25:12+02:00</time>
          </trkpt>
          <trkpt lon="8.08879566" lat="50.39896774">
            <ele>214.609</ele>
            <time>2010-08-05T10:25:17+02:00</time>
          </trkpt>
          <trkpt lon="8.08879566" lat="50.39896774">
            <ele>214.582</ele>
            <time>2010-08-05T10:25:22+02:00</time>
          </trkpt>
          <trkpt lon="8.08879566" lat="50.39896774">
            <ele>214.527</ele>
            <time>2010-08-05T10:25:27+02:00</time>
          </trkpt>
          <trkpt lon="8.08879566" lat="50.39897156">
            <ele>214.466</ele>
            <time>2010-08-05T10:25:32+02:00</time>
          </trkpt>
          <trkpt lon="8.08879566" lat="50.39897156">
            <ele>214.459</ele>
            <time>2010-08-05T10:25:37+02:00</time>
          </trkpt>
          <trkpt lon="8.08879662" lat="50.39896774">
            <ele>214.453</ele>
            <time>2010-08-05T10:25:42+02:00</time>
          </trkpt>
          <trkpt lon="8.08879662" lat="50.39896774">
            <ele>214.484</ele>
            <time>2010-08-05T10:25:47+02:00</time>
          </trkpt>
          <trkpt lon="8.08879757" lat="50.39896774">
            <ele>214.468</ele>
            <time>2010-08-05T10:25:52+02:00</time>
          </trkpt>
          <trkpt lon="8.08879948" lat="50.39896774">
            <ele>214.427</ele>
            <time>2010-08-05T10:25:57+02:00</time>
          </trkpt>
          <trkpt lon="8.08879948" lat="50.39896774">
            <ele>214.387</ele>
            <time>2010-08-05T10:26:02+02:00</time>
          </trkpt>
          <trkpt lon="8.08880043" lat="50.39896774">
            <ele>214.351</ele>
            <time>2010-08-05T10:26:07+02:00</time>
          </trkpt>
          <trkpt lon="8.08880138" lat="50.39896774">
            <ele>214.308</ele>
            <time>2010-08-05T10:26:12+02:00</time>
          </trkpt>
          <trkpt lon="8.08880138" lat="50.39896774">
            <ele>214.245</ele>
            <time>2010-08-05T10:26:17+02:00</time>
          </trkpt>
          <trkpt lon="8.08880234" lat="50.39896774">
            <ele>214.209</ele>
            <time>2010-08-05T10:26:22+02:00</time>
          </trkpt>
          <trkpt lon="8.08880234" lat="50.39896774">
            <ele>214.164</ele>
            <time>2010-08-05T10:26:27+02:00</time>
          </trkpt>
          <trkpt lon="8.08880234" lat="50.39896774">
            <ele>214.1</ele>
            <time>2010-08-05T10:26:32+02:00</time>
          </trkpt>
          <trkpt lon="8.08880329" lat="50.39896774">
            <ele>214.039</ele>
            <time>2010-08-05T10:26:37+02:00</time>
          </trkpt>
          <trkpt lon="8.08880329" lat="50.39896774">
            <ele>213.966</ele>
            <time>2010-08-05T10:26:42+02:00</time>
          </trkpt>
          <trkpt lon="8.08880424" lat="50.39896774">
            <ele>213.91</ele>
            <time>2010-08-05T10:26:47+02:00</time>
          </trkpt>
          <trkpt lon="8.08880424" lat="50.39896774">
            <ele>213.858</ele>
            <time>2010-08-05T10:26:52+02:00</time>
          </trkpt>
          <trkpt lon="8.0888052" lat="50.39896774">
            <ele>213.821</ele>
            <time>2010-08-05T10:26:57+02:00</time>
          </trkpt>
          <trkpt lon="8.0888052" lat="50.39896774">
            <ele>213.771</ele>
            <time>2010-08-05T10:27:02+02:00</time>
          </trkpt>
          <trkpt lon="8.0888052" lat="50.39896774">
            <ele>213.725</ele>
            <time>2010-08-05T10:27:07+02:00</time>
          </trkpt>
          <trkpt lon="8.0888052" lat="50.39896774">
            <ele>213.687</ele>
            <time>2010-08-05T10:27:12+02:00</time>
          </trkpt>
          <trkpt lon="8.0888052" lat="50.39896774">
            <ele>213.638</ele>
            <time>2010-08-05T10:27:17+02:00</time>
          </trkpt>
          <trkpt lon="8.08880615" lat="50.39896774">
            <ele>213.613</ele>
            <time>2010-08-05T10:27:22+02:00</time>
          </trkpt>
          <trkpt lon="8.08880615" lat="50.39896774">
            <ele>213.599</ele>
            <time>2010-08-05T10:27:27+02:00</time>
          </trkpt>
          <trkpt lon="8.08880615" lat="50.39896774">
            <ele>213.593</ele>
            <time>2010-08-05T10:27:32+02:00</time>
          </trkpt>
          <trkpt lon="8.08880711" lat="50.39896774">
            <ele>213.526</ele>
            <time>2010-08-05T10:27:37+02:00</time>
          </trkpt>
          <trkpt lon="8.08880711" lat="50.39896774">
            <ele>213.515</ele>
            <time>2010-08-05T10:27:42+02:00</time>
          </trkpt>
          <trkpt lon="8.08880806" lat="50.39897156">
            <ele>213.473</ele>
            <time>2010-08-05T10:27:47+02:00</time>
          </trkpt>
          <trkpt lon="8.08880806" lat="50.39897156">
            <ele>213.452</ele>
            <time>2010-08-05T10:27:52+02:00</time>
          </trkpt>
          <trkpt lon="8.08880711" lat="50.39896774">
            <ele>213.396</ele>
            <time>2010-08-05T10:27:57+02:00</time>
          </trkpt>
          <trkpt lon="8.08880711" lat="50.39896774">
            <ele>213.382</ele>
            <time>2010-08-05T10:28:02+02:00</time>
          </trkpt>
          <trkpt lon="8.08880615" lat="50.39897156">
            <ele>213.373</ele>
            <time>2010-08-05T10:28:07+02:00</time>
          </trkpt>
          <trkpt lon="8.08879185" lat="50.39897537">
            <ele>213.212</ele>
            <time>2010-08-05T10:28:12+02:00</time>
          </trkpt>
          <trkpt lon="8.08878899" lat="50.39897919">
            <ele>213.242</ele>
            <time>2010-08-05T10:28:17+02:00</time>
          </trkpt>
          <trkpt lon="8.08878613" lat="50.39897919">
            <ele>213.256</ele>
            <time>2010-08-05T10:28:22+02:00</time>
          </trkpt>
          <trkpt lon="8.08878136" lat="50.39897537">
            <ele>213.298</ele>
            <time>2010-08-05T10:28:27+02:00</time>
          </trkpt>
          <trkpt lon="8.08877277" lat="50.39897537">
            <ele>213.356</ele>
            <time>2010-08-05T10:28:32+02:00</time>
          </trkpt>
          <trkpt lon="8.08876038" lat="50.39900589">
            <ele>213.735</ele>
            <time>2010-08-05T10:28:37+02:00</time>
          </trkpt>
          <trkpt lon="8.08876038" lat="50.39906311">
            <ele>212.629</ele>
            <time>2010-08-05T10:28:42+02:00</time>
          </trkpt>
          <trkpt lon="8.08873081" lat="50.39910889">
            <ele>211.289</ele>
            <time>2010-08-05T10:28:47+02:00</time>
          </trkpt>
          <trkpt lon="8.08872604" lat="50.39916611">
            <ele>210.163</ele>
            <time>2010-08-05T10:28:52+02:00</time>
          </trkpt>
          <trkpt lon="8.08870125" lat="50.39921188">
            <ele>208.768</ele>
            <time>2010-08-05T10:28:57+02:00</time>
          </trkpt>
          <trkpt lon="8.08870602" lat="50.39926147">
            <ele>207.742</ele>
            <time>2010-08-05T10:29:02+02:00</time>
          </trkpt>
          <trkpt lon="8.08870602" lat="50.39930725">
            <ele>207.375</ele>
            <time>2010-08-05T10:29:07+02:00</time>
          </trkpt>
          <trkpt lon="8.08872986" lat="50.39934158">
            <ele>208.102</ele>
            <time>2010-08-05T10:29:12+02:00</time>
          </trkpt>
          <trkpt lon="8.08876324" lat="50.39935684">
            <ele>208.064</ele>
            <time>2010-08-05T10:29:17+02:00</time>
          </trkpt>
          <trkpt lon="8.08876514" lat="50.39935684">
            <ele>208.364</ele>
            <time>2010-08-05T10:29:22+02:00</time>
          </trkpt>
          <trkpt lon="8.08877087" lat="50.39935684">
            <ele>209.533</ele>
            <time>2010-08-05T10:29:27+02:00</time>
          </trkpt>
          <trkpt lon="8.0887804" lat="50.39934921">
            <ele>212.641</ele>
            <time>2010-08-05T10:29:32+02:00</time>
          </trkpt>
          <trkpt lon="8.08874798" lat="50.3993721">
            <ele>212.742</ele>
            <time>2010-08-05T10:29:37+02:00</time>
          </trkpt>
          <trkpt lon="8.08872986" lat="50.39938736">
            <ele>212.587</ele>
            <time>2010-08-05T10:29:42+02:00</time>
          </trkpt>
          <trkpt lon="8.08870983" lat="50.39941025">
            <ele>212.538</ele>
            <time>2010-08-05T10:29:47+02:00</time>
          </trkpt>
          <trkpt lon="8.08875656" lat="50.39941025">
            <ele>212.164</ele>
            <time>2010-08-05T10:29:52+02:00</time>
          </trkpt>
          <trkpt lon="8.08881664" lat="50.39941788">
            <ele>211.713</ele>
            <time>2010-08-05T10:29:57+02:00</time>
          </trkpt>
          <trkpt lon="8.088871" lat="50.39941406">
            <ele>211.223</ele>
            <time>2010-08-05T10:30:02+02:00</time>
          </trkpt>
          <trkpt lon="8.08894062" lat="50.39941406">
            <ele>210.341</ele>
            <time>2010-08-05T10:30:07+02:00</time>
          </trkpt>
          <trkpt lon="8.08901691" lat="50.39940643">
            <ele>209.522</ele>
            <time>2010-08-05T10:30:12+02:00</time>
          </trkpt>
          <trkpt lon="8.08910847" lat="50.39940262">
            <ele>208.574</ele>
            <time>2010-08-05T10:30:17+02:00</time>
          </trkpt>
          <trkpt lon="8.08920765" lat="50.39940262">
            <ele>208.591</ele>
            <time>2010-08-05T10:30:22+02:00</time>
          </trkpt>
          <trkpt lon="8.08929634" lat="50.39940643">
            <ele>209.176</ele>
            <time>2010-08-05T10:30:27+02:00</time>
          </trkpt>
          <trkpt lon="8.08934689" lat="50.39941406">
            <ele>211.237</ele>
            <time>2010-08-05T10:30:32+02:00</time>
          </trkpt>
          <trkpt lon="8.08935547" lat="50.39941025">
            <ele>212.439</ele>
            <time>2010-08-05T10:30:37+02:00</time>
          </trkpt>
          <trkpt lon="8.08939362" lat="50.39941025">
            <ele>214.352</ele>
            <time>2010-08-05T10:30:42+02:00</time>
          </trkpt>
          <trkpt lon="8.08948421" lat="50.39940262">
            <ele>214.507</ele>
            <time>2010-08-05T10:30:47+02:00</time>
          </trkpt>
          <trkpt lon="8.08956909" lat="50.39939499">
            <ele>213.684</ele>
            <time>2010-08-05T10:30:52+02:00</time>
          </trkpt>
          <trkpt lon="8.08964825" lat="50.39939499">
            <ele>215.127</ele>
            <time>2010-08-05T10:30:57+02:00</time>
          </trkpt>
          <trkpt lon="8.08972931" lat="50.39938736">
            <ele>215.19</ele>
            <time>2010-08-05T10:31:02+02:00</time>
          </trkpt>
          <trkpt lon="8.0898447" lat="50.39936066">
            <ele>213.382</ele>
            <time>2010-08-05T10:31:07+02:00</time>
          </trkpt>
          <trkpt lon="8.08997059" lat="50.39936447">
            <ele>212.842</ele>
            <time>2010-08-05T10:31:12+02:00</time>
          </trkpt>
          <trkpt lon="8.0900383" lat="50.39936066">
            <ele>210.047</ele>
            <time>2010-08-05T10:31:17+02:00</time>
          </trkpt>
          <trkpt lon="8.09009266" lat="50.39934921">
            <ele>208.497</ele>
            <time>2010-08-05T10:31:22+02:00</time>
          </trkpt>
          <trkpt lon="8.09017658" lat="50.39934921">
            <ele>207.216</ele>
            <time>2010-08-05T10:31:27+02:00</time>
          </trkpt>
          <trkpt lon="8.09026432" lat="50.39936829">
            <ele>207.781</ele>
            <time>2010-08-05T10:31:32+02:00</time>
          </trkpt>
          <trkpt lon="8.09033203" lat="50.39936829">
            <ele>210.144</ele>
            <time>2010-08-05T10:31:37+02:00</time>
          </trkpt>
          <trkpt lon="8.09035969" lat="50.3993721">
            <ele>208.056</ele>
            <time>2010-08-05T10:31:42+02:00</time>
          </trkpt>
          <trkpt lon="8.09044075" lat="50.39938354">
            <ele>205.375</ele>
            <time>2010-08-05T10:31:47+02:00</time>
          </trkpt>
          <trkpt lon="8.09052467" lat="50.39938354">
            <ele>204.231</ele>
            <time>2010-08-05T10:31:52+02:00</time>
          </trkpt>
          <trkpt lon="8.09057331" lat="50.39937592">
            <ele>202.855</ele>
            <time>2010-08-05T10:31:57+02:00</time>
          </trkpt>
          <trkpt lon="8.09065342" lat="50.39937973">
            <ele>202.509</ele>
            <time>2010-08-05T10:32:02+02:00</time>
          </trkpt>
          <trkpt lon="8.09074688" lat="50.39939117">
            <ele>203.181</ele>
            <time>2010-08-05T10:32:07+02:00</time>
          </trkpt>
          <trkpt lon="8.0908289" lat="50.39939117">
            <ele>201.787</ele>
            <time>2010-08-05T10:32:12+02:00</time>
          </trkpt>
          <trkpt lon="8.09087276" lat="50.39938736">
            <ele>201.116</ele>
            <time>2010-08-05T10:32:17+02:00</time>
          </trkpt>
          <trkpt lon="8.09091663" lat="50.39936829">
            <ele>199.758</ele>
            <time>2010-08-05T10:32:22+02:00</time>
          </trkpt>
          <trkpt lon="8.09099579" lat="50.39935684">
            <ele>198.084</ele>
            <time>2010-08-05T10:32:27+02:00</time>
          </trkpt>
          <trkpt lon="8.09107494" lat="50.39936447">
            <ele>196.89</ele>
            <time>2010-08-05T10:32:32+02:00</time>
          </trkpt>
          <trkpt lon="8.09115314" lat="50.39936066">
            <ele>195.764</ele>
            <time>2010-08-05T10:32:37+02:00</time>
          </trkpt>
          <trkpt lon="8.09118938" lat="50.39935684">
            <ele>194.33</ele>
            <time>2010-08-05T10:32:42+02:00</time>
          </trkpt>
          <trkpt lon="8.09125805" lat="50.39936447">
            <ele>193.41</ele>
            <time>2010-08-05T10:32:47+02:00</time>
          </trkpt>
          <trkpt lon="8.09127235" lat="50.39936447">
            <ele>192.788</ele>
            <time>2010-08-05T10:32:52+02:00</time>
          </trkpt>
          <trkpt lon="8.09130001" lat="50.39936066">
            <ele>191.559</ele>
            <time>2010-08-05T10:32:57+02:00</time>
          </trkpt>
          <trkpt lon="8.09132767" lat="50.3993721">
            <ele>190.709</ele>
            <time>2010-08-05T10:33:02+02:00</time>
          </trkpt>
          <trkpt lon="8.09134769" lat="50.3993721">
            <ele>190.596</ele>
            <time>2010-08-05T10:33:07+02:00</time>
          </trkpt>
          <trkpt lon="8.09136868" lat="50.39937973">
            <ele>190.26</ele>
            <time>2010-08-05T10:33:12+02:00</time>
          </trkpt>
          <trkpt lon="8.09140205" lat="50.3993721">
            <ele>190.376</ele>
            <time>2010-08-05T10:33:17+02:00</time>
          </trkpt>
          <trkpt lon="8.0914526" lat="50.39937592">
            <ele>188.841</ele>
            <time>2010-08-05T10:33:22+02:00</time>
          </trkpt>
          <trkpt lon="8.09146595" lat="50.39937973">
            <ele>188.113</ele>
            <time>2010-08-05T10:33:27+02:00</time>
          </trkpt>
          <trkpt lon="8.09147739" lat="50.39937973">
            <ele>187.915</ele>
            <time>2010-08-05T10:33:32+02:00</time>
          </trkpt>
          <trkpt lon="8.09150505" lat="50.39938736">
            <ele>186.8</ele>
            <time>2010-08-05T10:33:37+02:00</time>
          </trkpt>
          <trkpt lon="8.09154606" lat="50.3993721">
            <ele>183.913</ele>
            <time>2010-08-05T10:33:42+02:00</time>
          </trkpt>
          <trkpt lon="8.09162521" lat="50.39937592">
            <ele>182.347</ele>
            <time>2010-08-05T10:33:47+02:00</time>
          </trkpt>
          <trkpt lon="8.09172726" lat="50.39938354">
            <ele>181.706</ele>
            <time>2010-08-05T10:33:52+02:00</time>
          </trkpt>
          <trkpt lon="8.09183216" lat="50.3993988">
            <ele>180.24</ele>
            <time>2010-08-05T10:33:57+02:00</time>
          </trkpt>
          <trkpt lon="8.09189129" lat="50.39943314">
            <ele>180.073</ele>
            <time>2010-08-05T10:34:02+02:00</time>
          </trkpt>
          <trkpt lon="8.09189606" lat="50.39943314">
            <ele>180.087</ele>
            <time>2010-08-05T10:34:07+02:00</time>
          </trkpt>
          <trkpt lon="8.09189796" lat="50.39943695">
            <ele>179.898</ele>
            <time>2010-08-05T10:34:12+02:00</time>
          </trkpt>
          <trkpt lon="8.09196281" lat="50.39948654">
            <ele>179.236</ele>
            <time>2010-08-05T10:34:17+02:00</time>
          </trkpt>
          <trkpt lon="8.09203529" lat="50.39955139">
            <ele>179.301</ele>
            <time>2010-08-05T10:34:22+02:00</time>
          </trkpt>
          <trkpt lon="8.09207916" lat="50.39961624">
            <ele>179.762</ele>
            <time>2010-08-05T10:34:27+02:00</time>
          </trkpt>
          <trkpt lon="8.09212017" lat="50.39967728">
            <ele>179.552</ele>
            <time>2010-08-05T10:34:32+02:00</time>
          </trkpt>
          <trkpt lon="8.09218121" lat="50.39970398">
            <ele>181.218</ele>
            <time>2010-08-05T10:34:37+02:00</time>
          </trkpt>
          <trkpt lon="8.09222031" lat="50.39972687">
            <ele>182.989</ele>
            <time>2010-08-05T10:34:42+02:00</time>
          </trkpt>
          <trkpt lon="8.09226227" lat="50.39976883">
            <ele>184.575</ele>
            <time>2010-08-05T10:34:47+02:00</time>
          </trkpt>
          <trkpt lon="8.09228516" lat="50.39982224">
            <ele>185.197</ele>
            <time>2010-08-05T10:34:52+02:00</time>
          </trkpt>
          <trkpt lon="8.09233761" lat="50.39987183">
            <ele>185.997</ele>
            <time>2010-08-05T10:34:57+02:00</time>
          </trkpt>
          <trkpt lon="8.09235191" lat="50.3999176">
            <ele>187.314</ele>
            <time>2010-08-05T10:35:02+02:00</time>
          </trkpt>
          <trkpt lon="8.0924139" lat="50.39996719">
            <ele>191.674</ele>
            <time>2010-08-05T10:35:07+02:00</time>
          </trkpt>
          <trkpt lon="8.09251308" lat="50.40000534">
            <ele>199.983</ele>
            <time>2010-08-05T10:35:12+02:00</time>
          </trkpt>
          <trkpt lon="8.09253025" lat="50.40004349">
            <ele>201.405</ele>
            <time>2010-08-05T10:35:17+02:00</time>
          </trkpt>
          <trkpt lon="8.09251213" lat="50.40012741">
            <ele>200.556</ele>
            <time>2010-08-05T10:35:22+02:00</time>
          </trkpt>
          <trkpt lon="8.09254456" lat="50.40016937">
            <ele>202.95</ele>
            <time>2010-08-05T10:35:27+02:00</time>
          </trkpt>
          <trkpt lon="8.09259319" lat="50.40022659">
            <ele>206.658</ele>
            <time>2010-08-05T10:35:32+02:00</time>
          </trkpt>
          <trkpt lon="8.09261608" lat="50.40026474">
            <ele>208.719</ele>
            <time>2010-08-05T10:35:37+02:00</time>
          </trkpt>
          <trkpt lon="8.09261036" lat="50.40033722">
            <ele>205.95</ele>
            <time>2010-08-05T10:35:42+02:00</time>
          </trkpt>
          <trkpt lon="8.09261513" lat="50.40039444">
            <ele>205.202</ele>
            <time>2010-08-05T10:35:47+02:00</time>
          </trkpt>
          <trkpt lon="8.09263039" lat="50.40045166">
            <ele>205.695</ele>
            <time>2010-08-05T10:35:52+02:00</time>
          </trkpt>
          <trkpt lon="8.09256363" lat="50.40053558">
            <ele>200.338</ele>
            <time>2010-08-05T10:35:57+02:00</time>
          </trkpt>
          <trkpt lon="8.09253216" lat="50.40060425">
            <ele>195.565</ele>
            <time>2010-08-05T10:36:02+02:00</time>
          </trkpt>
          <trkpt lon="8.09255791" lat="50.40065002">
            <ele>196.45</ele>
            <time>2010-08-05T10:36:07+02:00</time>
          </trkpt>
          <trkpt lon="8.09261703" lat="50.40070343">
            <ele>199.951</ele>
            <time>2010-08-05T10:36:12+02:00</time>
          </trkpt>
          <trkpt lon="8.09262085" lat="50.40077209">
            <ele>198.192</ele>
            <time>2010-08-05T10:36:17+02:00</time>
          </trkpt>
          <trkpt lon="8.09266281" lat="50.40081406">
            <ele>201.04</ele>
            <time>2010-08-05T10:36:22+02:00</time>
          </trkpt>
          <trkpt lon="8.09262943" lat="50.40088654">
            <ele>196.871</ele>
            <time>2010-08-05T10:36:27+02:00</time>
          </trkpt>
          <trkpt lon="8.09260845" lat="50.40094757">
            <ele>191.263</ele>
            <time>2010-08-05T10:36:32+02:00</time>
          </trkpt>
          <trkpt lon="8.09263134" lat="50.40098572">
            <ele>188.103</ele>
            <time>2010-08-05T10:36:37+02:00</time>
          </trkpt>
          <trkpt lon="8.0926609" lat="50.40099335">
            <ele>185.337</ele>
            <time>2010-08-05T10:36:42+02:00</time>
          </trkpt>
          <trkpt lon="8.09275055" lat="50.40097427">
            <ele>181.832</ele>
            <time>2010-08-05T10:36:47+02:00</time>
          </trkpt>
          <trkpt lon="8.09285355" lat="50.40096283">
            <ele>179.916</ele>
            <time>2010-08-05T10:36:52+02:00</time>
          </trkpt>
          <trkpt lon="8.09294796" lat="50.40094376">
            <ele>177.394</ele>
            <time>2010-08-05T10:36:57+02:00</time>
          </trkpt>
          <trkpt lon="8.09304333" lat="50.40091705">
            <ele>175.672</ele>
            <time>2010-08-05T10:37:02+02:00</time>
          </trkpt>
          <trkpt lon="8.09311771" lat="50.40088654">
            <ele>174.7</ele>
            <time>2010-08-05T10:37:07+02:00</time>
          </trkpt>
          <trkpt lon="8.09319782" lat="50.40086365">
            <ele>173.647</ele>
            <time>2010-08-05T10:37:12+02:00</time>
          </trkpt>
          <trkpt lon="8.09329605" lat="50.4008522">
            <ele>172.577</ele>
            <time>2010-08-05T10:37:17+02:00</time>
          </trkpt>
          <trkpt lon="8.09337234" lat="50.40082932">
            <ele>171.737</ele>
            <time>2010-08-05T10:37:22+02:00</time>
          </trkpt>
          <trkpt lon="8.09343147" lat="50.40080643">
            <ele>170.952</ele>
            <time>2010-08-05T10:37:27+02:00</time>
          </trkpt>
          <trkpt lon="8.09348488" lat="50.40077972">
            <ele>170.239</ele>
            <time>2010-08-05T10:37:32+02:00</time>
          </trkpt>
          <trkpt lon="8.0935564" lat="50.40074921">
            <ele>168.796</ele>
            <time>2010-08-05T10:37:37+02:00</time>
          </trkpt>
          <trkpt lon="8.09361744" lat="50.40073013">
            <ele>168.441</ele>
            <time>2010-08-05T10:37:42+02:00</time>
          </trkpt>
          <trkpt lon="8.09367561" lat="50.40073013">
            <ele>168.616</ele>
            <time>2010-08-05T10:37:47+02:00</time>
          </trkpt>
          <trkpt lon="8.0937109" lat="50.4007225">
            <ele>169.672</ele>
            <time>2010-08-05T10:37:52+02:00</time>
          </trkpt>
          <trkpt lon="8.09372425" lat="50.40071487">
            <ele>169.619</ele>
            <time>2010-08-05T10:37:57+02:00</time>
          </trkpt>
          <trkpt lon="8.09381104" lat="50.40073395">
            <ele>169.992</ele>
            <time>2010-08-05T10:38:02+02:00</time>
          </trkpt>
          <trkpt lon="8.0938797" lat="50.40074158">
            <ele>170.767</ele>
            <time>2010-08-05T10:38:07+02:00</time>
          </trkpt>
          <trkpt lon="8.09396362" lat="50.40076828">
            <ele>171.42</ele>
            <time>2010-08-05T10:38:12+02:00</time>
          </trkpt>
          <trkpt lon="8.09404755" lat="50.40076828">
            <ele>172.37</ele>
            <time>2010-08-05T10:38:17+02:00</time>
          </trkpt>
          <trkpt lon="8.09412479" lat="50.40076065">
            <ele>173.807</ele>
            <time>2010-08-05T10:38:22+02:00</time>
          </trkpt>
          <trkpt lon="8.09419632" lat="50.40076065">
            <ele>174.376</ele>
            <time>2010-08-05T10:38:27+02:00</time>
          </trkpt>
          <trkpt lon="8.0942812" lat="50.40076828">
            <ele>173.434</ele>
            <time>2010-08-05T10:38:32+02:00</time>
          </trkpt>
          <trkpt lon="8.09432888" lat="50.40077209">
            <ele>172.51</ele>
            <time>2010-08-05T10:38:37+02:00</time>
          </trkpt>
          <trkpt lon="8.09441376" lat="50.40079117">
            <ele>172.858</ele>
            <time>2010-08-05T10:38:42+02:00</time>
          </trkpt>
          <trkpt lon="8.09447956" lat="50.4007988">
            <ele>171.506</ele>
            <time>2010-08-05T10:38:47+02:00</time>
          </trkpt>
          <trkpt lon="8.0945797" lat="50.40080261">
            <ele>169.945</ele>
            <time>2010-08-05T10:38:52+02:00</time>
          </trkpt>
          <trkpt lon="8.09466457" lat="50.4007988">
            <ele>167.401</ele>
            <time>2010-08-05T10:38:57+02:00</time>
          </trkpt>
          <trkpt lon="8.09473991" lat="50.40079117">
            <ele>166.203</ele>
            <time>2010-08-05T10:39:02+02:00</time>
          </trkpt>
          <trkpt lon="8.09484863" lat="50.40079117">
            <ele>168.754</ele>
            <time>2010-08-05T10:39:07+02:00</time>
          </trkpt>
          <trkpt lon="8.09488869" lat="50.40077209">
            <ele>169.5</ele>
            <time>2010-08-05T10:39:12+02:00</time>
          </trkpt>
          <trkpt lon="8.09496021" lat="50.40077591">
            <ele>165.207</ele>
            <time>2010-08-05T10:39:17+02:00</time>
          </trkpt>
          <trkpt lon="8.09501076" lat="50.40076828">
            <ele>163.356</ele>
            <time>2010-08-05T10:39:22+02:00</time>
          </trkpt>
          <trkpt lon="8.0950489" lat="50.40076065">
            <ele>161.764</ele>
            <time>2010-08-05T10:39:27+02:00</time>
          </trkpt>
          <trkpt lon="8.09513569" lat="50.40076447">
            <ele>160.338</ele>
            <time>2010-08-05T10:39:32+02:00</time>
          </trkpt>
          <trkpt lon="8.09530258" lat="50.40078735">
            <ele>160.228</ele>
            <time>2010-08-05T10:39:37+02:00</time>
          </trkpt>
          <trkpt lon="8.09541035" lat="50.40080261">
            <ele>161.032</ele>
            <time>2010-08-05T10:39:42+02:00</time>
          </trkpt>
          <trkpt lon="8.09545994" lat="50.40081024">
            <ele>162.582</ele>
            <time>2010-08-05T10:39:47+02:00</time>
          </trkpt>
          <trkpt lon="8.09546185" lat="50.40081024">
            <ele>162.62</ele>
            <time>2010-08-05T10:39:52+02:00</time>
          </trkpt>
          <trkpt lon="8.09551144" lat="50.40080643">
            <ele>161.984</ele>
            <time>2010-08-05T10:39:57+02:00</time>
          </trkpt>
          <trkpt lon="8.09559155" lat="50.40080261">
            <ele>161.952</ele>
            <time>2010-08-05T10:40:02+02:00</time>
          </trkpt>
          <trkpt lon="8.09567928" lat="50.40080261">
            <ele>162.483</ele>
            <time>2010-08-05T10:40:07+02:00</time>
          </trkpt>
          <trkpt lon="8.09576607" lat="50.40080261">
            <ele>162.243</ele>
            <time>2010-08-05T10:40:12+02:00</time>
          </trkpt>
          <trkpt lon="8.09585857" lat="50.40080261">
            <ele>161.74</ele>
            <time>2010-08-05T10:40:17+02:00</time>
          </trkpt>
          <trkpt lon="8.09592342" lat="50.40079498">
            <ele>161.524</ele>
            <time>2010-08-05T10:40:22+02:00</time>
          </trkpt>
          <trkpt lon="8.09593773" lat="50.40079117">
            <ele>161.889</ele>
            <time>2010-08-05T10:40:27+02:00</time>
          </trkpt>
          <trkpt lon="8.09599209" lat="50.40079498">
            <ele>161.111</ele>
            <time>2010-08-05T10:40:32+02:00</time>
          </trkpt>
          <trkpt lon="8.09606457" lat="50.40079498">
            <ele>160.343</ele>
            <time>2010-08-05T10:40:37+02:00</time>
          </trkpt>
          <trkpt lon="8.09612846" lat="50.40078735">
            <ele>159.127</ele>
            <time>2010-08-05T10:40:42+02:00</time>
          </trkpt>
          <trkpt lon="8.09620762" lat="50.40078354">
            <ele>159.108</ele>
            <time>2010-08-05T10:40:47+02:00</time>
          </trkpt>
          <trkpt lon="8.0962677" lat="50.40077591">
            <ele>158.961</ele>
            <time>2010-08-05T10:40:52+02:00</time>
          </trkpt>
          <trkpt lon="8.09634113" lat="50.40077209">
            <ele>159.051</ele>
            <time>2010-08-05T10:40:57+02:00</time>
          </trkpt>
          <trkpt lon="8.09644699" lat="50.40077591">
            <ele>158.512</ele>
            <time>2010-08-05T10:41:02+02:00</time>
          </trkpt>
          <trkpt lon="8.09654045" lat="50.40077591">
            <ele>158.217</ele>
            <time>2010-08-05T10:41:07+02:00</time>
          </trkpt>
          <trkpt lon="8.09661293" lat="50.40077209">
            <ele>158.148</ele>
            <time>2010-08-05T10:41:12+02:00</time>
          </trkpt>
          <trkpt lon="8.09666348" lat="50.40077209">
            <ele>158.324</ele>
            <time>2010-08-05T10:41:17+02:00</time>
          </trkpt>
          <trkpt lon="8.09674644" lat="50.40077972">
            <ele>158.446</ele>
            <time>2010-08-05T10:41:22+02:00</time>
          </trkpt>
          <trkpt lon="8.09679699" lat="50.40077972">
            <ele>160.131</ele>
            <time>2010-08-05T10:41:27+02:00</time>
          </trkpt>
          <trkpt lon="8.09683323" lat="50.40076447">
            <ele>163.858</ele>
            <time>2010-08-05T10:41:32+02:00</time>
          </trkpt>
          <trkpt lon="8.09687805" lat="50.40076065">
            <ele>164.237</ele>
            <time>2010-08-05T10:41:37+02:00</time>
          </trkpt>
          <trkpt lon="8.09692478" lat="50.40075684">
            <ele>164.992</ele>
            <time>2010-08-05T10:41:42+02:00</time>
          </trkpt>
          <trkpt lon="8.09698105" lat="50.40075684">
            <ele>165.534</ele>
            <time>2010-08-05T10:41:47+02:00</time>
          </trkpt>
          <trkpt lon="8.09703636" lat="50.40075302">
            <ele>166.202</ele>
            <time>2010-08-05T10:41:52+02:00</time>
          </trkpt>
          <trkpt lon="8.09709072" lat="50.40075302">
            <ele>166.574</ele>
            <time>2010-08-05T10:41:57+02:00</time>
          </trkpt>
          <trkpt lon="8.09720135" lat="50.40076065">
            <ele>166.099</ele>
            <time>2010-08-05T10:42:02+02:00</time>
          </trkpt>
          <trkpt lon="8.09730721" lat="50.40077972">
            <ele>166.586</ele>
            <time>2010-08-05T10:42:07+02:00</time>
          </trkpt>
          <trkpt lon="8.09738064" lat="50.40079117">
            <ele>166.48</ele>
            <time>2010-08-05T10:42:12+02:00</time>
          </trkpt>
          <trkpt lon="8.09747314" lat="50.40079117">
            <ele>167.306</ele>
            <time>2010-08-05T10:42:17+02:00</time>
          </trkpt>
          <trkpt lon="8.09753609" lat="50.40078354">
            <ele>167.412</ele>
            <time>2010-08-05T10:42:22+02:00</time>
          </trkpt>
          <trkpt lon="8.09760857" lat="50.40079117">
            <ele>166.494</ele>
            <time>2010-08-05T10:42:27+02:00</time>
          </trkpt>
          <trkpt lon="8.09765244" lat="50.40079498">
            <ele>165.654</ele>
            <time>2010-08-05T10:42:32+02:00</time>
          </trkpt>
          <trkpt lon="8.097682" lat="50.40079117">
            <ele>164.592</ele>
            <time>2010-08-05T10:42:37+02:00</time>
          </trkpt>
          <trkpt lon="8.09771347" lat="50.40078735">
            <ele>163.569</ele>
            <time>2010-08-05T10:42:42+02:00</time>
          </trkpt>
          <trkpt lon="8.09778976" lat="50.40079498">
            <ele>162.694</ele>
            <time>2010-08-05T10:42:47+02:00</time>
          </trkpt>
          <trkpt lon="8.09789753" lat="50.40081024">
            <ele>162.802</ele>
            <time>2010-08-05T10:42:52+02:00</time>
          </trkpt>
          <trkpt lon="8.0980072" lat="50.40084076">
            <ele>164.628</ele>
            <time>2010-08-05T10:42:57+02:00</time>
          </trkpt>
          <trkpt lon="8.09804726" lat="50.40083694">
            <ele>163.995</ele>
            <time>2010-08-05T10:43:02+02:00</time>
          </trkpt>
          <trkpt lon="8.09808064" lat="50.40084457">
            <ele>162.535</ele>
            <time>2010-08-05T10:43:07+02:00</time>
          </trkpt>
          <trkpt lon="8.0981617" lat="50.4008522">
            <ele>163.11</ele>
            <time>2010-08-05T10:43:12+02:00</time>
          </trkpt>
          <trkpt lon="8.09819603" lat="50.40085602">
            <ele>164.885</ele>
            <time>2010-08-05T10:43:17+02:00</time>
          </trkpt>
          <trkpt lon="8.09820938" lat="50.4008522">
            <ele>164.935</ele>
            <time>2010-08-05T10:43:22+02:00</time>
          </trkpt>
          <trkpt lon="8.09825802" lat="50.4008522">
            <ele>164.65</ele>
            <time>2010-08-05T10:43:27+02:00</time>
          </trkpt>
          <trkpt lon="8.09825516" lat="50.4008522">
            <ele>164.856</ele>
            <time>2010-08-05T10:43:32+02:00</time>
          </trkpt>
          <trkpt lon="8.09825802" lat="50.4008522">
            <ele>164.984</ele>
            <time>2010-08-05T10:43:37+02:00</time>
          </trkpt>
          <trkpt lon="8.09831905" lat="50.40085983">
            <ele>164.622</ele>
            <time>2010-08-05T10:43:42+02:00</time>
          </trkpt>
          <trkpt lon="8.09839439" lat="50.4008522">
            <ele>164.091</ele>
            <time>2010-08-05T10:43:47+02:00</time>
          </trkpt>
          <trkpt lon="8.09847927" lat="50.40085983">
            <ele>164.347</ele>
            <time>2010-08-05T10:43:52+02:00</time>
          </trkpt>
          <trkpt lon="8.09850121" lat="50.40085983">
            <ele>164.171</ele>
            <time>2010-08-05T10:43:57+02:00</time>
          </trkpt>
          <trkpt lon="8.09857178" lat="50.40085983">
            <ele>163.495</ele>
            <time>2010-08-05T10:44:02+02:00</time>
          </trkpt>
          <trkpt lon="8.09863377" lat="50.40086365">
            <ele>162.425</ele>
            <time>2010-08-05T10:44:07+02:00</time>
          </trkpt>
          <trkpt lon="8.09868622" lat="50.40086365">
            <ele>161.229</ele>
            <time>2010-08-05T10:44:12+02:00</time>
          </trkpt>
          <trkpt lon="8.09874058" lat="50.40086746">
            <ele>159.914</ele>
            <time>2010-08-05T10:44:17+02:00</time>
          </trkpt>
          <trkpt lon="8.09880447" lat="50.40087891">
            <ele>159.046</ele>
            <time>2010-08-05T10:44:22+02:00</time>
          </trkpt>
          <trkpt lon="8.09887695" lat="50.40088654">
            <ele>159.282</ele>
            <time>2010-08-05T10:44:27+02:00</time>
          </trkpt>
          <trkpt lon="8.09895039" lat="50.40089417">
            <ele>159.529</ele>
            <time>2010-08-05T10:44:32+02:00</time>
          </trkpt>
          <trkpt lon="8.09902287" lat="50.40089035">
            <ele>159.748</ele>
            <time>2010-08-05T10:44:37+02:00</time>
          </trkpt>
          <trkpt lon="8.09912682" lat="50.40089417">
            <ele>159.51</ele>
            <time>2010-08-05T10:44:42+02:00</time>
          </trkpt>
          <trkpt lon="8.09922028" lat="50.40089798">
            <ele>158.417</ele>
            <time>2010-08-05T10:44:47+02:00</time>
          </trkpt>
          <trkpt lon="8.09937096" lat="50.40090561">
            <ele>156.79</ele>
            <time>2010-08-05T10:44:52+02:00</time>
          </trkpt>
          <trkpt lon="8.09944439" lat="50.40089798">
            <ele>157.578</ele>
            <time>2010-08-05T10:44:57+02:00</time>
          </trkpt>
          <trkpt lon="8.09953499" lat="50.40089798">
            <ele>158.019</ele>
            <time>2010-08-05T10:45:02+02:00</time>
          </trkpt>
          <trkpt lon="8.09961891" lat="50.40090179">
            <ele>158.246</ele>
            <time>2010-08-05T10:45:07+02:00</time>
          </trkpt>
          <trkpt lon="8.0997057" lat="50.40090561">
            <ele>157.993</ele>
            <time>2010-08-05T10:45:12+02:00</time>
          </trkpt>
          <trkpt lon="8.09979057" lat="50.40090179">
            <ele>157.45</ele>
            <time>2010-08-05T10:45:17+02:00</time>
          </trkpt>
          <trkpt lon="8.09982586" lat="50.40089798">
            <ele>156.181</ele>
            <time>2010-08-05T10:45:22+02:00</time>
          </trkpt>
          <trkpt lon="8.09987926" lat="50.40088654">
            <ele>155.54</ele>
            <time>2010-08-05T10:45:27+02:00</time>
          </trkpt>
          <trkpt lon="8.09991646" lat="50.40089035">
            <ele>157.179</ele>
            <time>2010-08-05T10:45:32+02:00</time>
          </trkpt>
          <trkpt lon="8.09991646" lat="50.40089035">
            <ele>157.207</ele>
            <time>2010-08-05T10:45:37+02:00</time>
          </trkpt>
          <trkpt lon="8.09991741" lat="50.40089035">
            <ele>157.207</ele>
            <time>2010-08-05T10:45:42+02:00</time>
          </trkpt>
          <trkpt lon="8.09992599" lat="50.40089417">
            <ele>157.471</ele>
            <time>2010-08-05T10:45:47+02:00</time>
          </trkpt>
          <trkpt lon="8.09997082" lat="50.40090179">
            <ele>159.135</ele>
            <time>2010-08-05T10:45:52+02:00</time>
          </trkpt>
          <trkpt lon="8.09998322" lat="50.40090561">
            <ele>159.212</ele>
            <time>2010-08-05T10:45:57+02:00</time>
          </trkpt>
          <trkpt lon="8.10000515" lat="50.40091324">
            <ele>158.773</ele>
            <time>2010-08-05T10:46:02+02:00</time>
          </trkpt>
          <trkpt lon="8.10002708" lat="50.40092087">
            <ele>157.255</ele>
            <time>2010-08-05T10:46:07+02:00</time>
          </trkpt>
          <trkpt lon="8.1000433" lat="50.40092468">
            <ele>156.635</ele>
            <time>2010-08-05T10:46:12+02:00</time>
          </trkpt>
          <trkpt lon="8.10004425" lat="50.40092468">
            <ele>156.314</ele>
            <time>2010-08-05T10:46:17+02:00</time>
          </trkpt>
          <trkpt lon="8.10011292" lat="50.40091705">
            <ele>155.489</ele>
            <time>2010-08-05T10:46:22+02:00</time>
          </trkpt>
          <trkpt lon="8.10020161" lat="50.40092087">
            <ele>154.595</ele>
            <time>2010-08-05T10:46:27+02:00</time>
          </trkpt>
          <trkpt lon="8.10025406" lat="50.4009285">
            <ele>152.812</ele>
            <time>2010-08-05T10:46:32+02:00</time>
          </trkpt>
          <trkpt lon="8.10033703" lat="50.40093613">
            <ele>154.229</ele>
            <time>2010-08-05T10:46:37+02:00</time>
          </trkpt>
          <trkpt lon="8.1004076" lat="50.40096283">
            <ele>155.6</ele>
            <time>2010-08-05T10:46:42+02:00</time>
          </trkpt>
          <trkpt lon="8.10049438" lat="50.4009819">
            <ele>154.869</ele>
            <time>2010-08-05T10:46:47+02:00</time>
          </trkpt>
          <trkpt lon="8.10057545" lat="50.40100861">
            <ele>154.561</ele>
            <time>2010-08-05T10:46:52+02:00</time>
          </trkpt>
          <trkpt lon="8.10067081" lat="50.40102768">
            <ele>154.938</ele>
            <time>2010-08-05T10:46:57+02:00</time>
          </trkpt>
          <trkpt lon="8.1007719" lat="50.40105057">
            <ele>154.723</ele>
            <time>2010-08-05T10:47:02+02:00</time>
          </trkpt>
          <trkpt lon="8.10087013" lat="50.40107727">
            <ele>155.043</ele>
            <time>2010-08-05T10:47:07+02:00</time>
          </trkpt>
          <trkpt lon="8.10097027" lat="50.40109634">
            <ele>155.605</ele>
            <time>2010-08-05T10:47:12+02:00</time>
          </trkpt>
          <trkpt lon="8.10109711" lat="50.40113068">
            <ele>155.924</ele>
            <time>2010-08-05T10:47:17+02:00</time>
          </trkpt>
          <trkpt lon="8.10120392" lat="50.40115356">
            <ele>155.956</ele>
            <time>2010-08-05T10:47:22+02:00</time>
          </trkpt>
          <trkpt lon="8.10131645" lat="50.40118027">
            <ele>156.536</ele>
            <time>2010-08-05T10:47:27+02:00</time>
          </trkpt>
          <trkpt lon="8.10141754" lat="50.40120316">
            <ele>156.484</ele>
            <time>2010-08-05T10:47:32+02:00</time>
          </trkpt>
          <trkpt lon="8.10152531" lat="50.40122223">
            <ele>156.909</ele>
            <time>2010-08-05T10:47:37+02:00</time>
          </trkpt>
          <trkpt lon="8.10162067" lat="50.40124512">
            <ele>156.37</ele>
            <time>2010-08-05T10:47:42+02:00</time>
          </trkpt>
          <trkpt lon="8.10171986" lat="50.40126801">
            <ele>156.458</ele>
            <time>2010-08-05T10:47:47+02:00</time>
          </trkpt>
          <trkpt lon="8.10180569" lat="50.40128326">
            <ele>156.522</ele>
            <time>2010-08-05T10:47:52+02:00</time>
          </trkpt>
          <trkpt lon="8.10190392" lat="50.40129852">
            <ele>156.569</ele>
            <time>2010-08-05T10:47:57+02:00</time>
          </trkpt>
          <trkpt lon="8.10199833" lat="50.40131378">
            <ele>156.714</ele>
            <time>2010-08-05T10:48:02+02:00</time>
          </trkpt>
          <trkpt lon="8.10209179" lat="50.40132141">
            <ele>156.648</ele>
            <time>2010-08-05T10:48:07+02:00</time>
          </trkpt>
          <trkpt lon="8.10218525" lat="50.40133667">
            <ele>156.33</ele>
            <time>2010-08-05T10:48:12+02:00</time>
          </trkpt>
          <trkpt lon="8.10226727" lat="50.4013443">
            <ele>155.788</ele>
            <time>2010-08-05T10:48:17+02:00</time>
          </trkpt>
          <trkpt lon="8.10235977" lat="50.40136337">
            <ele>155.251</ele>
            <time>2010-08-05T10:48:22+02:00</time>
          </trkpt>
          <trkpt lon="8.1024456" lat="50.40137482">
            <ele>156.002</ele>
            <time>2010-08-05T10:48:27+02:00</time>
          </trkpt>
          <trkpt lon="8.10254288" lat="50.40139008">
            <ele>156.194</ele>
            <time>2010-08-05T10:48:32+02:00</time>
          </trkpt>
          <trkpt lon="8.10263634" lat="50.40140152">
            <ele>156.067</ele>
            <time>2010-08-05T10:48:37+02:00</time>
          </trkpt>
          <trkpt lon="8.1027441" lat="50.40141678">
            <ele>156.291</ele>
            <time>2010-08-05T10:48:42+02:00</time>
          </trkpt>
          <trkpt lon="8.10285568" lat="50.40143585">
            <ele>156.654</ele>
            <time>2010-08-05T10:48:47+02:00</time>
          </trkpt>
          <trkpt lon="8.10294914" lat="50.40145111">
            <ele>157.351</ele>
            <time>2010-08-05T10:48:52+02:00</time>
          </trkpt>
          <trkpt lon="8.10302734" lat="50.4014473">
            <ele>157.645</ele>
            <time>2010-08-05T10:48:57+02:00</time>
          </trkpt>
          <trkpt lon="8.10311508" lat="50.40145874">
            <ele>157.964</ele>
            <time>2010-08-05T10:49:02+02:00</time>
          </trkpt>
          <trkpt lon="8.10320568" lat="50.40146637">
            <ele>158.248</ele>
            <time>2010-08-05T10:49:07+02:00</time>
          </trkpt>
          <trkpt lon="8.1032896" lat="50.40147781">
            <ele>158.594</ele>
            <time>2010-08-05T10:49:12+02:00</time>
          </trkpt>
          <trkpt lon="8.10338593" lat="50.40149689">
            <ele>158.947</ele>
            <time>2010-08-05T10:49:17+02:00</time>
          </trkpt>
          <trkpt lon="8.10346985" lat="50.40149689">
            <ele>157.962</ele>
            <time>2010-08-05T10:49:22+02:00</time>
          </trkpt>
          <trkpt lon="8.10356045" lat="50.40147781">
            <ele>158.241</ele>
            <time>2010-08-05T10:49:27+02:00</time>
          </trkpt>
          <trkpt lon="8.10365295" lat="50.40145111">
            <ele>158.063</ele>
            <time>2010-08-05T10:49:32+02:00</time>
          </trkpt>
          <trkpt lon="8.10373783" lat="50.40142059">
            <ele>157.844</ele>
            <time>2010-08-05T10:49:37+02:00</time>
          </trkpt>
          <trkpt lon="8.10382462" lat="50.40140152">
            <ele>157.306</ele>
            <time>2010-08-05T10:49:42+02:00</time>
          </trkpt>
          <trkpt lon="8.10390472" lat="50.401371">
            <ele>157.544</ele>
            <time>2010-08-05T10:49:47+02:00</time>
          </trkpt>
          <trkpt lon="8.1039896" lat="50.40135574">
            <ele>156.911</ele>
            <time>2010-08-05T10:49:52+02:00</time>
          </trkpt>
          <trkpt lon="8.10407734" lat="50.40132141">
            <ele>157.302</ele>
            <time>2010-08-05T10:49:57+02:00</time>
          </trkpt>
          <trkpt lon="8.10416317" lat="50.40129852">
            <ele>157.313</ele>
            <time>2010-08-05T10:50:02+02:00</time>
          </trkpt>
          <trkpt lon="8.10424328" lat="50.40127563">
            <ele>156.78</ele>
            <time>2010-08-05T10:50:07+02:00</time>
          </trkpt>
          <trkpt lon="8.10433102" lat="50.4012413">
            <ele>156.361</ele>
            <time>2010-08-05T10:50:12+02:00</time>
          </trkpt>
          <trkpt lon="8.10442543" lat="50.40120697">
            <ele>156.603</ele>
            <time>2010-08-05T10:50:17+02:00</time>
          </trkpt>
          <trkpt lon="8.10451126" lat="50.40118027">
            <ele>156.49</ele>
            <time>2010-08-05T10:50:22+02:00</time>
          </trkpt>
          <trkpt lon="8.10459042" lat="50.40115356">
            <ele>156.165</ele>
            <time>2010-08-05T10:50:27+02:00</time>
          </trkpt>
          <trkpt lon="8.10466385" lat="50.40112686">
            <ele>155.532</ele>
            <time>2010-08-05T10:50:32+02:00</time>
          </trkpt>
          <trkpt lon="8.10474014" lat="50.40110779">
            <ele>154.724</ele>
            <time>2010-08-05T10:50:37+02:00</time>
          </trkpt>
          <trkpt lon="8.10481358" lat="50.4010849">
            <ele>154.32</ele>
            <time>2010-08-05T10:50:42+02:00</time>
          </trkpt>
          <trkpt lon="8.10488415" lat="50.40106583">
            <ele>154.377</ele>
            <time>2010-08-05T10:50:47+02:00</time>
          </trkpt>
          <trkpt lon="8.10495853" lat="50.40104294">
            <ele>154.543</ele>
            <time>2010-08-05T10:50:52+02:00</time>
          </trkpt>
          <trkpt lon="8.10504436" lat="50.40101242">
            <ele>154.739</ele>
            <time>2010-08-05T10:50:57+02:00</time>
          </trkpt>
          <trkpt lon="8.1051302" lat="50.40098572">
            <ele>154.933</ele>
            <time>2010-08-05T10:51:02+02:00</time>
          </trkpt>
          <trkpt lon="8.10520935" lat="50.40095901">
            <ele>155.331</ele>
            <time>2010-08-05T10:51:07+02:00</time>
          </trkpt>
          <trkpt lon="8.1052351" lat="50.40096664">
            <ele>155.147</ele>
            <time>2010-08-05T10:51:12+02:00</time>
          </trkpt>
          <trkpt lon="8.10526371" lat="50.40097046">
            <ele>155.553</ele>
            <time>2010-08-05T10:51:17+02:00</time>
          </trkpt>
          <trkpt lon="8.10530376" lat="50.40093994">
            <ele>155.666</ele>
            <time>2010-08-05T10:51:22+02:00</time>
          </trkpt>
          <trkpt lon="8.10533237" lat="50.40089417">
            <ele>156.07</ele>
            <time>2010-08-05T10:51:27+02:00</time>
          </trkpt>
          <trkpt lon="8.10533237" lat="50.40089417">
            <ele>155.967</ele>
            <time>2010-08-05T10:51:32+02:00</time>
          </trkpt>
          <trkpt lon="8.10531902" lat="50.40085983">
            <ele>156.227</ele>
            <time>2010-08-05T10:51:37+02:00</time>
          </trkpt>
          <trkpt lon="8.10530281" lat="50.4008255">
            <ele>156.407</ele>
            <time>2010-08-05T10:51:42+02:00</time>
          </trkpt>
          <trkpt lon="8.10529041" lat="50.4008255">
            <ele>156.577</ele>
            <time>2010-08-05T10:51:47+02:00</time>
          </trkpt>
          <trkpt lon="8.10529423" lat="50.4008255">
            <ele>156.763</ele>
            <time>2010-08-05T10:51:52+02:00</time>
          </trkpt>
          <trkpt lon="8.10529327" lat="50.4008255">
            <ele>156.764</ele>
            <time>2010-08-05T10:51:57+02:00</time>
          </trkpt>
          <trkpt lon="8.10529232" lat="50.40082169">
            <ele>156.762</ele>
            <time>2010-08-05T10:52:02+02:00</time>
          </trkpt>
          <trkpt lon="8.10529232" lat="50.4008255">
            <ele>156.753</ele>
            <time>2010-08-05T10:52:07+02:00</time>
          </trkpt>
          <trkpt lon="8.10531807" lat="50.40086365">
            <ele>156.956</ele>
            <time>2010-08-05T10:52:12+02:00</time>
          </trkpt>
          <trkpt lon="8.10533714" lat="50.40090942">
            <ele>156.408</ele>
            <time>2010-08-05T10:52:17+02:00</time>
          </trkpt>
          <trkpt lon="8.1053133" lat="50.40092087">
            <ele>156.33</ele>
            <time>2010-08-05T10:52:22+02:00</time>
          </trkpt>
          <trkpt lon="8.10532188" lat="50.40090561">
            <ele>155.86</ele>
            <time>2010-08-05T10:52:27+02:00</time>
          </trkpt>
          <trkpt lon="8.1053133" lat="50.40086365">
            <ele>156.887</ele>
            <time>2010-08-05T10:52:32+02:00</time>
          </trkpt>
          <trkpt lon="8.10528088" lat="50.40082169">
            <ele>157.259</ele>
            <time>2010-08-05T10:52:37+02:00</time>
          </trkpt>
          <trkpt lon="8.10524082" lat="50.40077591">
            <ele>157.853</ele>
            <time>2010-08-05T10:52:42+02:00</time>
          </trkpt>
          <trkpt lon="8.10519886" lat="50.40074539">
            <ele>158.237</ele>
            <time>2010-08-05T10:52:47+02:00</time>
          </trkpt>
          <trkpt lon="8.10514927" lat="50.40071106">
            <ele>159.148</ele>
            <time>2010-08-05T10:52:52+02:00</time>
          </trkpt>
          <trkpt lon="8.10509777" lat="50.40066528">
            <ele>159.102</ele>
            <time>2010-08-05T10:52:57+02:00</time>
          </trkpt>
          <trkpt lon="8.10504723" lat="50.40061569">
            <ele>159.751</ele>
            <time>2010-08-05T10:53:02+02:00</time>
          </trkpt>
          <trkpt lon="8.10499191" lat="50.4005661">
            <ele>160.567</ele>
            <time>2010-08-05T10:53:07+02:00</time>
          </trkpt>
          <trkpt lon="8.10493946" lat="50.40051651">
            <ele>160.388</ele>
            <time>2010-08-05T10:53:12+02:00</time>
          </trkpt>
          <trkpt lon="8.10487556" lat="50.40047073">
            <ele>160.354</ele>
            <time>2010-08-05T10:53:17+02:00</time>
          </trkpt>
          <trkpt lon="8.10482502" lat="50.40042114">
            <ele>159.805</ele>
            <time>2010-08-05T10:53:22+02:00</time>
          </trkpt>
          <trkpt lon="8.10477161" lat="50.40037537">
            <ele>160.155</ele>
            <time>2010-08-05T10:53:27+02:00</time>
          </trkpt>
          <trkpt lon="8.10470676" lat="50.40032959">
            <ele>159.918</ele>
            <time>2010-08-05T10:53:32+02:00</time>
          </trkpt>
          <trkpt lon="8.10465336" lat="50.40028381">
            <ele>160.473</ele>
            <time>2010-08-05T10:53:37+02:00</time>
          </trkpt>
          <trkpt lon="8.10459232" lat="50.40023041">
            <ele>160.418</ele>
            <time>2010-08-05T10:53:42+02:00</time>
          </trkpt>
          <trkpt lon="8.1045332" lat="50.40018845">
            <ele>160.582</ele>
            <time>2010-08-05T10:53:47+02:00</time>
          </trkpt>
          <trkpt lon="8.10447788" lat="50.40014267">
            <ele>160.72</ele>
            <time>2010-08-05T10:53:52+02:00</time>
          </trkpt>
          <trkpt lon="8.10443306" lat="50.40009689">
            <ele>160.902</ele>
            <time>2010-08-05T10:53:57+02:00</time>
          </trkpt>
          <trkpt lon="8.10438824" lat="50.4000473">
            <ele>160.817</ele>
            <time>2010-08-05T10:54:02+02:00</time>
          </trkpt>
          <trkpt lon="8.10433483" lat="50.40000916">
            <ele>160.649</ele>
            <time>2010-08-05T10:54:07+02:00</time>
          </trkpt>
          <trkpt lon="8.10431957" lat="50.40000534">
            <ele>161.559</ele>
            <time>2010-08-05T10:54:12+02:00</time>
          </trkpt>
          <trkpt lon="8.10429478" lat="50.39998627">
            <ele>161.952</ele>
            <time>2010-08-05T10:54:17+02:00</time>
          </trkpt>
          <trkpt lon="8.10423565" lat="50.39993668">
            <ele>162.156</ele>
            <time>2010-08-05T10:54:22+02:00</time>
          </trkpt>
          <trkpt lon="8.10418987" lat="50.39988327">
            <ele>162.002</ele>
            <time>2010-08-05T10:54:27+02:00</time>
          </trkpt>
          <trkpt lon="8.10414124" lat="50.39982986">
            <ele>161.927</ele>
            <time>2010-08-05T10:54:32+02:00</time>
          </trkpt>
          <trkpt lon="8.10408401" lat="50.39977646">
            <ele>161.887</ele>
            <time>2010-08-05T10:54:37+02:00</time>
          </trkpt>
          <trkpt lon="8.10402775" lat="50.39972687">
            <ele>161.83</ele>
            <time>2010-08-05T10:54:42+02:00</time>
          </trkpt>
          <trkpt lon="8.10398006" lat="50.39967346">
            <ele>161.833</ele>
            <time>2010-08-05T10:54:47+02:00</time>
          </trkpt>
          <trkpt lon="8.10392857" lat="50.39962387">
            <ele>161.426</ele>
            <time>2010-08-05T10:54:52+02:00</time>
          </trkpt>
          <trkpt lon="8.10386372" lat="50.39958572">
            <ele>161.587</ele>
            <time>2010-08-05T10:54:57+02:00</time>
          </trkpt>
          <trkpt lon="8.10384274" lat="50.39956284">
            <ele>161.284</ele>
            <time>2010-08-05T10:55:02+02:00</time>
          </trkpt>
          <trkpt lon="8.10384464" lat="50.39956284">
            <ele>161.178</ele>
            <time>2010-08-05T10:55:07+02:00</time>
          </trkpt>
          <trkpt lon="8.10379982" lat="50.39951706">
            <ele>160.851</ele>
            <time>2010-08-05T10:55:12+02:00</time>
          </trkpt>
          <trkpt lon="8.10374355" lat="50.39946747">
            <ele>160.746</ele>
            <time>2010-08-05T10:55:17+02:00</time>
          </trkpt>
          <trkpt lon="8.10370445" lat="50.39940643">
            <ele>160.524</ele>
            <time>2010-08-05T10:55:22+02:00</time>
          </trkpt>
          <trkpt lon="8.10365391" lat="50.39934921">
            <ele>160.257</ele>
            <time>2010-08-05T10:55:27+02:00</time>
          </trkpt>
          <trkpt lon="8.10360146" lat="50.39930344">
            <ele>159.856</ele>
            <time>2010-08-05T10:55:32+02:00</time>
          </trkpt>
          <trkpt lon="8.1035471" lat="50.39924622">
            <ele>159.005</ele>
            <time>2010-08-05T10:55:37+02:00</time>
          </trkpt>
          <trkpt lon="8.1035099" lat="50.39919281">
            <ele>158.586</ele>
            <time>2010-08-05T10:55:42+02:00</time>
          </trkpt>
          <trkpt lon="8.10352898" lat="50.39913559">
            <ele>157.706</ele>
            <time>2010-08-05T10:55:47+02:00</time>
          </trkpt>
          <trkpt lon="8.10355854" lat="50.39909363">
            <ele>158.454</ele>
            <time>2010-08-05T10:55:52+02:00</time>
          </trkpt>
          <trkpt lon="8.10353088" lat="50.39903259">
            <ele>158.515</ele>
            <time>2010-08-05T10:55:57+02:00</time>
          </trkpt>
          <trkpt lon="8.10351562" lat="50.39897156">
            <ele>158.549</ele>
            <time>2010-08-05T10:56:02+02:00</time>
          </trkpt>
          <trkpt lon="8.10349178" lat="50.39891815">
            <ele>158.736</ele>
            <time>2010-08-05T10:56:07+02:00</time>
          </trkpt>
          <trkpt lon="8.10347366" lat="50.39886856">
            <ele>159.558</ele>
            <time>2010-08-05T10:56:12+02:00</time>
          </trkpt>
          <trkpt lon="8.10346413" lat="50.39881516">
            <ele>158.996</ele>
            <time>2010-08-05T10:56:17+02:00</time>
          </trkpt>
          <trkpt lon="8.10343838" lat="50.39876938">
            <ele>158.693</ele>
            <time>2010-08-05T10:56:22+02:00</time>
          </trkpt>
          <trkpt lon="8.10339928" lat="50.39870834">
            <ele>158.42</ele>
            <time>2010-08-05T10:56:27+02:00</time>
          </trkpt>
          <trkpt lon="8.10335541" lat="50.39866638">
            <ele>158.906</ele>
            <time>2010-08-05T10:56:32+02:00</time>
          </trkpt>
          <trkpt lon="8.10330296" lat="50.39861679">
            <ele>158.062</ele>
            <time>2010-08-05T10:56:37+02:00</time>
          </trkpt>
          <trkpt lon="8.10325241" lat="50.39855576">
            <ele>157.342</ele>
            <time>2010-08-05T10:56:42+02:00</time>
          </trkpt>
          <trkpt lon="8.10319138" lat="50.39850998">
            <ele>157.783</ele>
            <time>2010-08-05T10:56:47+02:00</time>
          </trkpt>
          <trkpt lon="8.10311985" lat="50.3984642">
            <ele>156.776</ele>
            <time>2010-08-05T10:56:52+02:00</time>
          </trkpt>
          <trkpt lon="8.10306835" lat="50.39841461">
            <ele>155.906</ele>
            <time>2010-08-05T10:56:57+02:00</time>
          </trkpt>
          <trkpt lon="8.10311699" lat="50.39836502">
            <ele>154.67</ele>
            <time>2010-08-05T10:57:02+02:00</time>
          </trkpt>
          <trkpt lon="8.1031971" lat="50.39832687">
            <ele>153.981</ele>
            <time>2010-08-05T10:57:07+02:00</time>
          </trkpt>
          <trkpt lon="8.10328102" lat="50.39828491">
            <ele>153.196</ele>
            <time>2010-08-05T10:57:12+02:00</time>
          </trkpt>
          <trkpt lon="8.1033411" lat="50.39824295">
            <ele>152.596</ele>
            <time>2010-08-05T10:57:17+02:00</time>
          </trkpt>
          <trkpt lon="8.10341835" lat="50.3982048">
            <ele>152.41</ele>
            <time>2010-08-05T10:57:22+02:00</time>
          </trkpt>
          <trkpt lon="8.10348701" lat="50.39817047">
            <ele>152.514</ele>
            <time>2010-08-05T10:57:27+02:00</time>
          </trkpt>
          <trkpt lon="8.10355282" lat="50.39812851">
            <ele>151.8</ele>
            <time>2010-08-05T10:57:32+02:00</time>
          </trkpt>
          <trkpt lon="8.10362434" lat="50.39808655">
            <ele>151.339</ele>
            <time>2010-08-05T10:57:37+02:00</time>
          </trkpt>
          <trkpt lon="8.10369492" lat="50.39805222">
            <ele>150.993</ele>
            <time>2010-08-05T10:57:42+02:00</time>
          </trkpt>
          <trkpt lon="8.10377312" lat="50.39801788">
            <ele>151.669</ele>
            <time>2010-08-05T10:57:47+02:00</time>
          </trkpt>
          <trkpt lon="8.10385132" lat="50.39797974">
            <ele>151.92</ele>
            <time>2010-08-05T10:57:52+02:00</time>
          </trkpt>
          <trkpt lon="8.10390568" lat="50.39793396">
            <ele>151.716</ele>
            <time>2010-08-05T10:57:57+02:00</time>
          </trkpt>
          <trkpt lon="8.10391521" lat="50.39786911">
            <ele>152.006</ele>
            <time>2010-08-05T10:58:02+02:00</time>
          </trkpt>
          <trkpt lon="8.10388279" lat="50.39781189">
            <ele>151.802</ele>
            <time>2010-08-05T10:58:07+02:00</time>
          </trkpt>
          <trkpt lon="8.10385799" lat="50.39775085">
            <ele>152.219</ele>
            <time>2010-08-05T10:58:12+02:00</time>
          </trkpt>
          <trkpt lon="8.10382938" lat="50.39769745">
            <ele>153.044</ele>
            <time>2010-08-05T10:58:17+02:00</time>
          </trkpt>
          <trkpt lon="8.10379314" lat="50.39764786">
            <ele>153.419</ele>
            <time>2010-08-05T10:58:22+02:00</time>
          </trkpt>
          <trkpt lon="8.10376072" lat="50.39759827">
            <ele>153.449</ele>
            <time>2010-08-05T10:58:27+02:00</time>
          </trkpt>
          <trkpt lon="8.10372639" lat="50.39754868">
            <ele>153.561</ele>
            <time>2010-08-05T10:58:32+02:00</time>
          </trkpt>
          <trkpt lon="8.10368729" lat="50.39749527">
            <ele>153.655</ele>
            <time>2010-08-05T10:58:37+02:00</time>
          </trkpt>
          <trkpt lon="8.10366154" lat="50.39744568">
            <ele>153.003</ele>
            <time>2010-08-05T10:58:42+02:00</time>
          </trkpt>
          <trkpt lon="8.10363102" lat="50.39739609">
            <ele>153.465</ele>
            <time>2010-08-05T10:58:47+02:00</time>
          </trkpt>
          <trkpt lon="8.10360622" lat="50.39735031">
            <ele>154.765</ele>
            <time>2010-08-05T10:58:52+02:00</time>
          </trkpt>
          <trkpt lon="8.10359097" lat="50.39731216">
            <ele>154.523</ele>
            <time>2010-08-05T10:58:57+02:00</time>
          </trkpt>
          <trkpt lon="8.10355186" lat="50.3972702">
            <ele>155.574</ele>
            <time>2010-08-05T10:59:02+02:00</time>
          </trkpt>
          <trkpt lon="8.10348701" lat="50.39723587">
            <ele>155.406</ele>
            <time>2010-08-05T10:59:07+02:00</time>
          </trkpt>
          <trkpt lon="8.10343361" lat="50.39719009">
            <ele>155.413</ele>
            <time>2010-08-05T10:59:12+02:00</time>
          </trkpt>
          <trkpt lon="8.10337925" lat="50.3971405">
            <ele>154.902</ele>
            <time>2010-08-05T10:59:17+02:00</time>
          </trkpt>
          <trkpt lon="8.10332298" lat="50.39709091">
            <ele>155.154</ele>
            <time>2010-08-05T10:59:22+02:00</time>
          </trkpt>
          <trkpt lon="8.10327625" lat="50.39703369">
            <ele>155.295</ele>
            <time>2010-08-05T10:59:27+02:00</time>
          </trkpt>
          <trkpt lon="8.10323334" lat="50.3969841">
            <ele>155.052</ele>
            <time>2010-08-05T10:59:32+02:00</time>
          </trkpt>
          <trkpt lon="8.10321045" lat="50.3969574">
            <ele>155.106</ele>
            <time>2010-08-05T10:59:37+02:00</time>
          </trkpt>
          <trkpt lon="8.10317135" lat="50.39690781">
            <ele>155.371</ele>
            <time>2010-08-05T10:59:42+02:00</time>
          </trkpt>
          <trkpt lon="8.10312843" lat="50.39686203">
            <ele>155.756</ele>
            <time>2010-08-05T10:59:47+02:00</time>
          </trkpt>
          <trkpt lon="8.10309601" lat="50.39682388">
            <ele>156.406</ele>
            <time>2010-08-05T10:59:52+02:00</time>
          </trkpt>
          <trkpt lon="8.10303783" lat="50.39678574">
            <ele>155.805</ele>
            <time>2010-08-05T10:59:57+02:00</time>
          </trkpt>
          <trkpt lon="8.1029768" lat="50.39673233">
            <ele>155.124</ele>
            <time>2010-08-05T11:00:02+02:00</time>
          </trkpt>
          <trkpt lon="8.10293674" lat="50.39668274">
            <ele>155.833</ele>
            <time>2010-08-05T11:00:07+02:00</time>
          </trkpt>
          <trkpt lon="8.10290909" lat="50.39662933">
            <ele>156.661</ele>
            <time>2010-08-05T11:00:12+02:00</time>
          </trkpt>
          <trkpt lon="8.10289764" lat="50.39658737">
            <ele>158.148</ele>
            <time>2010-08-05T11:00:17+02:00</time>
          </trkpt>
          <trkpt lon="8.10280991" lat="50.39655304">
            <ele>159.878</ele>
            <time>2010-08-05T11:00:22+02:00</time>
          </trkpt>
          <trkpt lon="8.10273266" lat="50.39651108">
            <ele>159.884</ele>
            <time>2010-08-05T11:00:27+02:00</time>
          </trkpt>
          <trkpt lon="8.10268116" lat="50.3964653">
            <ele>159.524</ele>
            <time>2010-08-05T11:00:32+02:00</time>
          </trkpt>
          <trkpt lon="8.10264969" lat="50.39642334">
            <ele>159.675</ele>
            <time>2010-08-05T11:00:37+02:00</time>
          </trkpt>
          <trkpt lon="8.10261059" lat="50.39637375">
            <ele>161.046</ele>
            <time>2010-08-05T11:00:42+02:00</time>
          </trkpt>
          <trkpt lon="8.10255814" lat="50.39632797">
            <ele>161.291</ele>
            <time>2010-08-05T11:00:47+02:00</time>
          </trkpt>
          <trkpt lon="8.10251331" lat="50.39627838">
            <ele>161.466</ele>
            <time>2010-08-05T11:00:52+02:00</time>
          </trkpt>
          <trkpt lon="8.1024828" lat="50.39623642">
            <ele>161.382</ele>
            <time>2010-08-05T11:00:57+02:00</time>
          </trkpt>
          <trkpt lon="8.10245419" lat="50.39619446">
            <ele>161.493</ele>
            <time>2010-08-05T11:01:02+02:00</time>
          </trkpt>
          <trkpt lon="8.10240269" lat="50.39615631">
            <ele>162.471</ele>
            <time>2010-08-05T11:01:07+02:00</time>
          </trkpt>
          <trkpt lon="8.10237312" lat="50.39610672">
            <ele>162.088</ele>
            <time>2010-08-05T11:01:12+02:00</time>
          </trkpt>
          <trkpt lon="8.1023283" lat="50.39606094">
            <ele>161.747</ele>
            <time>2010-08-05T11:01:17+02:00</time>
          </trkpt>
          <trkpt lon="8.10226631" lat="50.39601135">
            <ele>161.763</ele>
            <time>2010-08-05T11:01:22+02:00</time>
          </trkpt>
          <trkpt lon="8.1021862" lat="50.39596558">
            <ele>161.052</ele>
            <time>2010-08-05T11:01:27+02:00</time>
          </trkpt>
          <trkpt lon="8.10214043" lat="50.39591599">
            <ele>160.232</ele>
            <time>2010-08-05T11:01:32+02:00</time>
          </trkpt>
          <trkpt lon="8.10208035" lat="50.39587021">
            <ele>159.026</ele>
            <time>2010-08-05T11:01:37+02:00</time>
          </trkpt>
          <trkpt lon="8.10202885" lat="50.39583588">
            <ele>159.998</ele>
            <time>2010-08-05T11:01:42+02:00</time>
          </trkpt>
          <trkpt lon="8.10200119" lat="50.3957901">
            <ele>160.553</ele>
            <time>2010-08-05T11:01:47+02:00</time>
          </trkpt>
          <trkpt lon="8.10198116" lat="50.39573288">
            <ele>161.437</ele>
            <time>2010-08-05T11:01:52+02:00</time>
          </trkpt>
          <trkpt lon="8.10192966" lat="50.39567566">
            <ele>160.826</ele>
            <time>2010-08-05T11:01:57+02:00</time>
          </trkpt>
          <trkpt lon="8.10187912" lat="50.39562607">
            <ele>161.328</ele>
            <time>2010-08-05T11:02:02+02:00</time>
          </trkpt>
          <trkpt lon="8.10184765" lat="50.39558029">
            <ele>162.209</ele>
            <time>2010-08-05T11:02:07+02:00</time>
          </trkpt>
          <trkpt lon="8.10176182" lat="50.39552307">
            <ele>161.711</ele>
            <time>2010-08-05T11:02:12+02:00</time>
          </trkpt>
          <trkpt lon="8.10169601" lat="50.39547348">
            <ele>162.036</ele>
            <time>2010-08-05T11:02:17+02:00</time>
          </trkpt>
          <trkpt lon="8.10164356" lat="50.3954277">
            <ele>162.512</ele>
            <time>2010-08-05T11:02:22+02:00</time>
          </trkpt>
          <trkpt lon="8.10160065" lat="50.3953743">
            <ele>162.254</ele>
            <time>2010-08-05T11:02:27+02:00</time>
          </trkpt>
          <trkpt lon="8.10155678" lat="50.39531708">
            <ele>161.832</ele>
            <time>2010-08-05T11:02:32+02:00</time>
          </trkpt>
          <trkpt lon="8.10150719" lat="50.39528275">
            <ele>160.854</ele>
            <time>2010-08-05T11:02:37+02:00</time>
          </trkpt>
          <trkpt lon="8.10144711" lat="50.39524078">
            <ele>161.772</ele>
            <time>2010-08-05T11:02:42+02:00</time>
          </trkpt>
          <trkpt lon="8.10139179" lat="50.39519501">
            <ele>161.39</ele>
            <time>2010-08-05T11:02:47+02:00</time>
          </trkpt>
          <trkpt lon="8.10134888" lat="50.39513779">
            <ele>161.401</ele>
            <time>2010-08-05T11:02:52+02:00</time>
          </trkpt>
          <trkpt lon="8.10129642" lat="50.39508438">
            <ele>161.964</ele>
            <time>2010-08-05T11:02:57+02:00</time>
          </trkpt>
          <trkpt lon="8.10123825" lat="50.39504242">
            <ele>162.649</ele>
            <time>2010-08-05T11:03:02+02:00</time>
          </trkpt>
          <trkpt lon="8.10118389" lat="50.39499664">
            <ele>163.104</ele>
            <time>2010-08-05T11:03:07+02:00</time>
          </trkpt>
          <trkpt lon="8.10113239" lat="50.39494324">
            <ele>164.054</ele>
            <time>2010-08-05T11:03:12+02:00</time>
          </trkpt>
          <trkpt lon="8.10111904" lat="50.3948822">
            <ele>163.858</ele>
            <time>2010-08-05T11:03:17+02:00</time>
          </trkpt>
          <trkpt lon="8.10107613" lat="50.3948288">
            <ele>163.878</ele>
            <time>2010-08-05T11:03:22+02:00</time>
          </trkpt>
          <trkpt lon="8.10106087" lat="50.39480209">
            <ele>162.928</ele>
            <time>2010-08-05T11:03:27+02:00</time>
          </trkpt>
          <trkpt lon="8.10101604" lat="50.3947525">
            <ele>163.182</ele>
            <time>2010-08-05T11:03:32+02:00</time>
          </trkpt>
          <trkpt lon="8.10097218" lat="50.39471436">
            <ele>163.528</ele>
            <time>2010-08-05T11:03:37+02:00</time>
          </trkpt>
          <trkpt lon="8.10092163" lat="50.39466095">
            <ele>163.409</ele>
            <time>2010-08-05T11:03:42+02:00</time>
          </trkpt>
          <trkpt lon="8.10087776" lat="50.39461136">
            <ele>163.685</ele>
            <time>2010-08-05T11:03:47+02:00</time>
          </trkpt>
          <trkpt lon="8.1008234" lat="50.3945694">
            <ele>163.946</ele>
            <time>2010-08-05T11:03:52+02:00</time>
          </trkpt>
          <trkpt lon="8.10078812" lat="50.39451218">
            <ele>163.266</ele>
            <time>2010-08-05T11:03:57+02:00</time>
          </trkpt>
          <trkpt lon="8.10073471" lat="50.39445877">
            <ele>163.277</ele>
            <time>2010-08-05T11:04:02+02:00</time>
          </trkpt>
          <trkpt lon="8.10068417" lat="50.39440155">
            <ele>163.228</ele>
            <time>2010-08-05T11:04:07+02:00</time>
          </trkpt>
          <trkpt lon="8.10063076" lat="50.39435959">
            <ele>163.37</ele>
            <time>2010-08-05T11:04:12+02:00</time>
          </trkpt>
          <trkpt lon="8.10056782" lat="50.39433289">
            <ele>163.944</ele>
            <time>2010-08-05T11:04:17+02:00</time>
          </trkpt>
          <trkpt lon="8.10050583" lat="50.39429092">
            <ele>165</ele>
            <time>2010-08-05T11:04:22+02:00</time>
          </trkpt>
          <trkpt lon="8.10044479" lat="50.39425278">
            <ele>166.151</ele>
            <time>2010-08-05T11:04:27+02:00</time>
          </trkpt>
          <trkpt lon="8.10038471" lat="50.39421082">
            <ele>166.16</ele>
            <time>2010-08-05T11:04:32+02:00</time>
          </trkpt>
          <trkpt lon="8.10033035" lat="50.39417267">
            <ele>167.15</ele>
            <time>2010-08-05T11:04:37+02:00</time>
          </trkpt>
          <trkpt lon="8.1002636" lat="50.39413071">
            <ele>167.669</ele>
            <time>2010-08-05T11:04:42+02:00</time>
          </trkpt>
          <trkpt lon="8.10020161" lat="50.3940773">
            <ele>166.566</ele>
            <time>2010-08-05T11:04:47+02:00</time>
          </trkpt>
          <trkpt lon="8.10012913" lat="50.39403534">
            <ele>166.712</ele>
            <time>2010-08-05T11:04:52+02:00</time>
          </trkpt>
          <trkpt lon="8.10008907" lat="50.39398575">
            <ele>167.018</ele>
            <time>2010-08-05T11:04:57+02:00</time>
          </trkpt>
          <trkpt lon="8.10006523" lat="50.39394379">
            <ele>167.137</ele>
            <time>2010-08-05T11:05:02+02:00</time>
          </trkpt>
          <trkpt lon="8.10001373" lat="50.39389038">
            <ele>165.633</ele>
            <time>2010-08-05T11:05:07+02:00</time>
          </trkpt>
          <trkpt lon="8.09996033" lat="50.39383698">
            <ele>164.812</ele>
            <time>2010-08-05T11:05:12+02:00</time>
          </trkpt>
          <trkpt lon="8.09990597" lat="50.3937912">
            <ele>164.802</ele>
            <time>2010-08-05T11:05:17+02:00</time>
          </trkpt>
          <trkpt lon="8.09985256" lat="50.39374542">
            <ele>164.621</ele>
            <time>2010-08-05T11:05:22+02:00</time>
          </trkpt>
          <trkpt lon="8.09980869" lat="50.39369965">
            <ele>165.704</ele>
            <time>2010-08-05T11:05:27+02:00</time>
          </trkpt>
          <trkpt lon="8.09977245" lat="50.39365387">
            <ele>167.179</ele>
            <time>2010-08-05T11:05:32+02:00</time>
          </trkpt>
          <trkpt lon="8.09970856" lat="50.39360809">
            <ele>166.539</ele>
            <time>2010-08-05T11:05:37+02:00</time>
          </trkpt>
          <trkpt lon="8.09964561" lat="50.39357376">
            <ele>166.505</ele>
            <time>2010-08-05T11:05:42+02:00</time>
          </trkpt>
          <trkpt lon="8.09959316" lat="50.39352036">
            <ele>165.617</ele>
            <time>2010-08-05T11:05:47+02:00</time>
          </trkpt>
          <trkpt lon="8.09954453" lat="50.39346695">
            <ele>165.7</ele>
            <time>2010-08-05T11:05:52+02:00</time>
          </trkpt>
          <trkpt lon="8.09950256" lat="50.39341736">
            <ele>165.396</ele>
            <time>2010-08-05T11:05:57+02:00</time>
          </trkpt>
          <trkpt lon="8.09946346" lat="50.39338303">
            <ele>167.393</ele>
            <time>2010-08-05T11:06:02+02:00</time>
          </trkpt>
          <trkpt lon="8.09940338" lat="50.39334488">
            <ele>167.957</ele>
            <time>2010-08-05T11:06:07+02:00</time>
          </trkpt>
          <trkpt lon="8.09934521" lat="50.3932991">
            <ele>168.931</ele>
            <time>2010-08-05T11:06:12+02:00</time>
          </trkpt>
          <trkpt lon="8.09929276" lat="50.3932457">
            <ele>168.53</ele>
            <time>2010-08-05T11:06:17+02:00</time>
          </trkpt>
          <trkpt lon="8.09924793" lat="50.39319611">
            <ele>169.094</ele>
            <time>2010-08-05T11:06:22+02:00</time>
          </trkpt>
          <trkpt lon="8.09921074" lat="50.39313889">
            <ele>169.23</ele>
            <time>2010-08-05T11:06:27+02:00</time>
          </trkpt>
          <trkpt lon="8.09918213" lat="50.39308167">
            <ele>169.47</ele>
            <time>2010-08-05T11:06:32+02:00</time>
          </trkpt>
          <trkpt lon="8.09915543" lat="50.39302063">
            <ele>169.401</ele>
            <time>2010-08-05T11:06:37+02:00</time>
          </trkpt>
          <trkpt lon="8.099123" lat="50.39295578">
            <ele>169.218</ele>
            <time>2010-08-05T11:06:42+02:00</time>
          </trkpt>
          <trkpt lon="8.09910297" lat="50.39289856">
            <ele>168.582</ele>
            <time>2010-08-05T11:06:47+02:00</time>
          </trkpt>
          <trkpt lon="8.0990696" lat="50.39284515">
            <ele>168.763</ele>
            <time>2010-08-05T11:06:52+02:00</time>
          </trkpt>
          <trkpt lon="8.09901619" lat="50.39281082">
            <ele>169.755</ele>
            <time>2010-08-05T11:06:57+02:00</time>
          </trkpt>
          <trkpt lon="8.09897423" lat="50.39277267">
            <ele>169.984</ele>
            <time>2010-08-05T11:07:02+02:00</time>
          </trkpt>
          <trkpt lon="8.09894085" lat="50.3927536">
            <ele>170.383</ele>
            <time>2010-08-05T11:07:07+02:00</time>
          </trkpt>
          <trkpt lon="8.09893513" lat="50.39273071">
            <ele>170.744</ele>
            <time>2010-08-05T11:07:12+02:00</time>
          </trkpt>
          <trkpt lon="8.09891701" lat="50.39268875">
            <ele>171.038</ele>
            <time>2010-08-05T11:07:17+02:00</time>
          </trkpt>
          <trkpt lon="8.0989027" lat="50.39263535">
            <ele>171.424</ele>
            <time>2010-08-05T11:07:22+02:00</time>
          </trkpt>
          <trkpt lon="8.09888268" lat="50.39257812">
            <ele>170.59</ele>
            <time>2010-08-05T11:07:27+02:00</time>
          </trkpt>
          <trkpt lon="8.09887123" lat="50.39253235">
            <ele>171.213</ele>
            <time>2010-08-05T11:07:32+02:00</time>
          </trkpt>
          <trkpt lon="8.09883404" lat="50.39251709">
            <ele>174.293</ele>
            <time>2010-08-05T11:07:37+02:00</time>
          </trkpt>
          <trkpt lon="8.09877968" lat="50.39250565">
            <ele>174.788</ele>
            <time>2010-08-05T11:07:42+02:00</time>
          </trkpt>
          <trkpt lon="8.09870625" lat="50.39247513">
            <ele>172.667</ele>
            <time>2010-08-05T11:07:47+02:00</time>
          </trkpt>
          <trkpt lon="8.09862518" lat="50.39246368">
            <ele>171.292</ele>
            <time>2010-08-05T11:07:52+02:00</time>
          </trkpt>
          <trkpt lon="8.09853172" lat="50.39245224">
            <ele>171.611</ele>
            <time>2010-08-05T11:07:57+02:00</time>
          </trkpt>
          <trkpt lon="8.09844112" lat="50.39243317">
            <ele>171.506</ele>
            <time>2010-08-05T11:08:02+02:00</time>
          </trkpt>
          <trkpt lon="8.09835434" lat="50.39242935">
            <ele>170.863</ele>
            <time>2010-08-05T11:08:07+02:00</time>
          </trkpt>
          <trkpt lon="8.09826946" lat="50.39240646">
            <ele>169.562</ele>
            <time>2010-08-05T11:08:12+02:00</time>
          </trkpt>
          <trkpt lon="8.09819221" lat="50.39238739">
            <ele>169.994</ele>
            <time>2010-08-05T11:08:17+02:00</time>
          </trkpt>
          <trkpt lon="8.09818459" lat="50.3923912">
            <ele>170.089</ele>
            <time>2010-08-05T11:08:22+02:00</time>
          </trkpt>
          <trkpt lon="8.09818363" lat="50.3923912">
            <ele>170.056</ele>
            <time>2010-08-05T11:08:27+02:00</time>
          </trkpt>
          <trkpt lon="8.09818363" lat="50.3923912">
            <ele>170.033</ele>
            <time>2010-08-05T11:08:32+02:00</time>
          </trkpt>
          <trkpt lon="8.09818363" lat="50.3923912">
            <ele>170.036</ele>
            <time>2010-08-05T11:08:37+02:00</time>
          </trkpt>
          <trkpt lon="8.09818363" lat="50.3923912">
            <ele>170.035</ele>
            <time>2010-08-05T11:08:42+02:00</time>
          </trkpt>
          <trkpt lon="8.09816265" lat="50.3923912">
            <ele>170.532</ele>
            <time>2010-08-05T11:08:47+02:00</time>
          </trkpt>
          <trkpt lon="8.09808731" lat="50.3923912">
            <ele>173.275</ele>
            <time>2010-08-05T11:08:52+02:00</time>
          </trkpt>
          <trkpt lon="8.09799957" lat="50.39237595">
            <ele>170.464</ele>
            <time>2010-08-05T11:08:57+02:00</time>
          </trkpt>
          <trkpt lon="8.09789085" lat="50.3923645">
            <ele>170.816</ele>
            <time>2010-08-05T11:09:02+02:00</time>
          </trkpt>
          <trkpt lon="8.09777546" lat="50.39234161">
            <ele>170.656</ele>
            <time>2010-08-05T11:09:07+02:00</time>
          </trkpt>
          <trkpt lon="8.09768867" lat="50.39232635">
            <ele>170.258</ele>
            <time>2010-08-05T11:09:12+02:00</time>
          </trkpt>
          <trkpt lon="8.09761238" lat="50.39229584">
            <ele>168.795</ele>
            <time>2010-08-05T11:09:17+02:00</time>
          </trkpt>
          <trkpt lon="8.09751034" lat="50.39227295">
            <ele>169.122</ele>
            <time>2010-08-05T11:09:22+02:00</time>
          </trkpt>
          <trkpt lon="8.09741306" lat="50.39224625">
            <ele>169.535</ele>
            <time>2010-08-05T11:09:27+02:00</time>
          </trkpt>
          <trkpt lon="8.09732437" lat="50.3922348">
            <ele>170.176</ele>
            <time>2010-08-05T11:09:32+02:00</time>
          </trkpt>
          <trkpt lon="8.09722996" lat="50.39221954">
            <ele>169.565</ele>
            <time>2010-08-05T11:09:37+02:00</time>
          </trkpt>
          <trkpt lon="8.09714317" lat="50.39220047">
            <ele>170.082</ele>
            <time>2010-08-05T11:09:42+02:00</time>
          </trkpt>
          <trkpt lon="8.09704494" lat="50.39217377">
            <ele>169.97</ele>
            <time>2010-08-05T11:09:47+02:00</time>
          </trkpt>
          <trkpt lon="8.09695053" lat="50.39215088">
            <ele>169.174</ele>
            <time>2010-08-05T11:09:52+02:00</time>
          </trkpt>
          <trkpt lon="8.09686756" lat="50.39212036">
            <ele>167.858</ele>
            <time>2010-08-05T11:09:57+02:00</time>
          </trkpt>
          <trkpt lon="8.09676266" lat="50.39208221">
            <ele>166.211</ele>
            <time>2010-08-05T11:10:02+02:00</time>
          </trkpt>
          <trkpt lon="8.09665394" lat="50.39205933">
            <ele>165.014</ele>
            <time>2010-08-05T11:10:07+02:00</time>
          </trkpt>
          <trkpt lon="8.09655666" lat="50.39203262">
            <ele>163.446</ele>
            <time>2010-08-05T11:10:12+02:00</time>
          </trkpt>
          <trkpt lon="8.09647465" lat="50.39200592">
            <ele>162.967</ele>
            <time>2010-08-05T11:10:17+02:00</time>
          </trkpt>
          <trkpt lon="8.09638882" lat="50.39198685">
            <ele>162.967</ele>
            <time>2010-08-05T11:10:22+02:00</time>
          </trkpt>
          <trkpt lon="8.09630489" lat="50.39196777">
            <ele>163.359</ele>
            <time>2010-08-05T11:10:27+02:00</time>
          </trkpt>
          <trkpt lon="8.09622288" lat="50.39193726">
            <ele>163.2</ele>
            <time>2010-08-05T11:10:32+02:00</time>
          </trkpt>
          <trkpt lon="8.09615326" lat="50.391922">
            <ele>164.13</ele>
            <time>2010-08-05T11:10:37+02:00</time>
          </trkpt>
          <trkpt lon="8.09605598" lat="50.39189529">
            <ele>164.059</ele>
            <time>2010-08-05T11:10:42+02:00</time>
          </trkpt>
          <trkpt lon="8.09597588" lat="50.39187622">
            <ele>164.371</ele>
            <time>2010-08-05T11:10:47+02:00</time>
          </trkpt>
          <trkpt lon="8.09591293" lat="50.39184952">
            <ele>163.995</ele>
            <time>2010-08-05T11:10:52+02:00</time>
          </trkpt>
          <trkpt lon="8.09582615" lat="50.39182281">
            <ele>163.049</ele>
            <time>2010-08-05T11:10:57+02:00</time>
          </trkpt>
          <trkpt lon="8.09572983" lat="50.3917923">
            <ele>160.682</ele>
            <time>2010-08-05T11:11:02+02:00</time>
          </trkpt>
          <trkpt lon="8.09565258" lat="50.39177704">
            <ele>160.061</ele>
            <time>2010-08-05T11:11:07+02:00</time>
          </trkpt>
          <trkpt lon="8.09557343" lat="50.39175797">
            <ele>159.76</ele>
            <time>2010-08-05T11:11:12+02:00</time>
          </trkpt>
          <trkpt lon="8.09548378" lat="50.39173889">
            <ele>159.657</ele>
            <time>2010-08-05T11:11:17+02:00</time>
          </trkpt>
          <trkpt lon="8.09539127" lat="50.39171982">
            <ele>158.475</ele>
            <time>2010-08-05T11:11:22+02:00</time>
          </trkpt>
          <trkpt lon="8.09531116" lat="50.39169693">
            <ele>155.973</ele>
            <time>2010-08-05T11:11:27+02:00</time>
          </trkpt>
          <trkpt lon="8.09521008" lat="50.39168167">
            <ele>154.603</ele>
            <time>2010-08-05T11:11:32+02:00</time>
          </trkpt>
          <trkpt lon="8.09511471" lat="50.3916626">
            <ele>153.618</ele>
            <time>2010-08-05T11:11:37+02:00</time>
          </trkpt>
          <trkpt lon="8.09502888" lat="50.39164734">
            <ele>153.754</ele>
            <time>2010-08-05T11:11:42+02:00</time>
          </trkpt>
          <trkpt lon="8.09494495" lat="50.39162827">
            <ele>152.969</ele>
            <time>2010-08-05T11:11:47+02:00</time>
          </trkpt>
          <trkpt lon="8.09485912" lat="50.39161682">
            <ele>151.738</ele>
            <time>2010-08-05T11:11:52+02:00</time>
          </trkpt>
          <trkpt lon="8.09476757" lat="50.39160538">
            <ele>150.582</ele>
            <time>2010-08-05T11:11:57+02:00</time>
          </trkpt>
          <trkpt lon="8.09467411" lat="50.3915863">
            <ele>150.229</ele>
            <time>2010-08-05T11:12:02+02:00</time>
          </trkpt>
          <trkpt lon="8.09459877" lat="50.3915596">
            <ele>148.753</ele>
            <time>2010-08-05T11:12:07+02:00</time>
          </trkpt>
          <trkpt lon="8.0945158" lat="50.39154816">
            <ele>148.239</ele>
            <time>2010-08-05T11:12:12+02:00</time>
          </trkpt>
          <trkpt lon="8.09441662" lat="50.39151382">
            <ele>146.96</ele>
            <time>2010-08-05T11:12:17+02:00</time>
          </trkpt>
          <trkpt lon="8.0943327" lat="50.39149857">
            <ele>145.675</ele>
            <time>2010-08-05T11:12:22+02:00</time>
          </trkpt>
          <trkpt lon="8.09425831" lat="50.39148331">
            <ele>145.574</ele>
            <time>2010-08-05T11:12:27+02:00</time>
          </trkpt>
          <trkpt lon="8.09418869" lat="50.39146805">
            <ele>146.031</ele>
            <time>2010-08-05T11:12:32+02:00</time>
          </trkpt>
          <trkpt lon="8.09419441" lat="50.39146423">
            <ele>146.051</ele>
            <time>2010-08-05T11:12:37+02:00</time>
          </trkpt>
          <trkpt lon="8.09414577" lat="50.39144135">
            <ele>146.385</ele>
            <time>2010-08-05T11:12:42+02:00</time>
          </trkpt>
          <trkpt lon="8.09406757" lat="50.39143372">
            <ele>147.861</ele>
            <time>2010-08-05T11:12:47+02:00</time>
          </trkpt>
          <trkpt lon="8.09399223" lat="50.39143753">
            <ele>148.29</ele>
            <time>2010-08-05T11:12:52+02:00</time>
          </trkpt>
          <trkpt lon="8.09391117" lat="50.39143372">
            <ele>149.473</ele>
            <time>2010-08-05T11:12:57+02:00</time>
          </trkpt>
          <trkpt lon="8.09383678" lat="50.39141083">
            <ele>149.457</ele>
            <time>2010-08-05T11:13:02+02:00</time>
          </trkpt>
          <trkpt lon="8.09375286" lat="50.39139557">
            <ele>149.702</ele>
            <time>2010-08-05T11:13:07+02:00</time>
          </trkpt>
          <trkpt lon="8.0936842" lat="50.39139175">
            <ele>150.867</ele>
            <time>2010-08-05T11:13:12+02:00</time>
          </trkpt>
          <trkpt lon="8.09358406" lat="50.3913765">
            <ele>150.999</ele>
            <time>2010-08-05T11:13:17+02:00</time>
          </trkpt>
          <trkpt lon="8.09349346" lat="50.3913765">
            <ele>151.961</ele>
            <time>2010-08-05T11:13:22+02:00</time>
          </trkpt>
          <trkpt lon="8.09341526" lat="50.39138031">
            <ele>151.858</ele>
            <time>2010-08-05T11:13:27+02:00</time>
          </trkpt>
          <trkpt lon="8.09331608" lat="50.39136887">
            <ele>153.925</ele>
            <time>2010-08-05T11:13:32+02:00</time>
          </trkpt>
          <trkpt lon="8.09324646" lat="50.39135361">
            <ele>155.907</ele>
            <time>2010-08-05T11:13:37+02:00</time>
          </trkpt>
          <trkpt lon="8.09317303" lat="50.3913269">
            <ele>156.182</ele>
            <time>2010-08-05T11:13:42+02:00</time>
          </trkpt>
          <trkpt lon="8.09307861" lat="50.39131165">
            <ele>155.837</ele>
            <time>2010-08-05T11:13:47+02:00</time>
          </trkpt>
          <trkpt lon="8.09298706" lat="50.39128113">
            <ele>155.493</ele>
            <time>2010-08-05T11:13:52+02:00</time>
          </trkpt>
          <trkpt lon="8.09290981" lat="50.3912468">
            <ele>156.294</ele>
            <time>2010-08-05T11:13:57+02:00</time>
          </trkpt>
          <trkpt lon="8.09285927" lat="50.39125443">
            <ele>156.54</ele>
            <time>2010-08-05T11:14:02+02:00</time>
          </trkpt>
          <trkpt lon="8.092803" lat="50.39125443">
            <ele>157.344</ele>
            <time>2010-08-05T11:14:07+02:00</time>
          </trkpt>
          <trkpt lon="8.09277153" lat="50.39126205">
            <ele>156.625</ele>
            <time>2010-08-05T11:14:12+02:00</time>
          </trkpt>
          <trkpt lon="8.09276295" lat="50.39126205">
            <ele>156.062</ele>
            <time>2010-08-05T11:14:17+02:00</time>
          </trkpt>
          <trkpt lon="8.09276009" lat="50.39126205">
            <ele>155.913</ele>
            <time>2010-08-05T11:14:22+02:00</time>
          </trkpt>
          <trkpt lon="8.09276009" lat="50.39126205">
            <ele>155.873</ele>
            <time>2010-08-05T11:14:27+02:00</time>
          </trkpt>
          <trkpt lon="8.09276009" lat="50.39126205">
            <ele>155.856</ele>
            <time>2010-08-05T11:14:32+02:00</time>
          </trkpt>
          <trkpt lon="8.09276009" lat="50.39126205">
            <ele>155.861</ele>
            <time>2010-08-05T11:14:37+02:00</time>
          </trkpt>
          <trkpt lon="8.09276009" lat="50.39126205">
            <ele>155.897</ele>
            <time>2010-08-05T11:14:42+02:00</time>
          </trkpt>
          <trkpt lon="8.09275723" lat="50.39125824">
            <ele>155.797</ele>
            <time>2010-08-05T11:14:47+02:00</time>
          </trkpt>
          <trkpt lon="8.09275246" lat="50.39125443">
            <ele>155.512</ele>
            <time>2010-08-05T11:14:52+02:00</time>
          </trkpt>
          <trkpt lon="8.09272194" lat="50.39125443">
            <ele>156.779</ele>
            <time>2010-08-05T11:14:57+02:00</time>
          </trkpt>
          <trkpt lon="8.09267807" lat="50.39124298">
            <ele>156.53</ele>
            <time>2010-08-05T11:15:02+02:00</time>
          </trkpt>
          <trkpt lon="8.09265137" lat="50.39122772">
            <ele>156.486</ele>
            <time>2010-08-05T11:15:07+02:00</time>
          </trkpt>
          <trkpt lon="8.0925951" lat="50.39121628">
            <ele>157.065</ele>
            <time>2010-08-05T11:15:12+02:00</time>
          </trkpt>
          <trkpt lon="8.09253311" lat="50.39120865">
            <ele>156.831</ele>
            <time>2010-08-05T11:15:17+02:00</time>
          </trkpt>
          <trkpt lon="8.09248924" lat="50.39118958">
            <ele>156.639</ele>
            <time>2010-08-05T11:15:22+02:00</time>
          </trkpt>
          <trkpt lon="8.09242916" lat="50.39116669">
            <ele>156.666</ele>
            <time>2010-08-05T11:15:27+02:00</time>
          </trkpt>
          <trkpt lon="8.0923748" lat="50.39115143">
            <ele>157.301</ele>
            <time>2010-08-05T11:15:32+02:00</time>
          </trkpt>
          <trkpt lon="8.09235096" lat="50.39114761">
            <ele>158.188</ele>
            <time>2010-08-05T11:15:37+02:00</time>
          </trkpt>
          <trkpt lon="8.09235096" lat="50.39114761">
            <ele>158.334</ele>
            <time>2010-08-05T11:15:42+02:00</time>
          </trkpt>
          <trkpt lon="8.0923481" lat="50.39114761">
            <ele>158.406</ele>
            <time>2010-08-05T11:15:47+02:00</time>
          </trkpt>
          <trkpt lon="8.09234333" lat="50.39114761">
            <ele>158.682</ele>
            <time>2010-08-05T11:15:52+02:00</time>
          </trkpt>
          <trkpt lon="8.0922699" lat="50.39117813">
            <ele>158.973</ele>
            <time>2010-08-05T11:15:57+02:00</time>
          </trkpt>
          <trkpt lon="8.0922327" lat="50.39117432">
            <ele>159.992</ele>
            <time>2010-08-05T11:16:02+02:00</time>
          </trkpt>
          <trkpt lon="8.09218979" lat="50.39115906">
            <ele>160.447</ele>
            <time>2010-08-05T11:16:07+02:00</time>
          </trkpt>
          <trkpt lon="8.09210682" lat="50.39115524">
            <ele>161.342</ele>
            <time>2010-08-05T11:16:12+02:00</time>
          </trkpt>
          <trkpt lon="8.0920372" lat="50.39113617">
            <ele>161.742</ele>
            <time>2010-08-05T11:16:17+02:00</time>
          </trkpt>
          <trkpt lon="8.09195042" lat="50.39113235">
            <ele>162.072</ele>
            <time>2010-08-05T11:16:22+02:00</time>
          </trkpt>
          <trkpt lon="8.0918932" lat="50.39110947">
            <ele>162.451</ele>
            <time>2010-08-05T11:16:27+02:00</time>
          </trkpt>
          <trkpt lon="8.09180737" lat="50.39109802">
            <ele>162.366</ele>
            <time>2010-08-05T11:16:32+02:00</time>
          </trkpt>
          <trkpt lon="8.09175491" lat="50.39107895">
            <ele>161.55</ele>
            <time>2010-08-05T11:16:37+02:00</time>
          </trkpt>
          <trkpt lon="8.0916996" lat="50.39104843">
            <ele>160.935</ele>
            <time>2010-08-05T11:16:42+02:00</time>
          </trkpt>
          <trkpt lon="8.09162617" lat="50.39101791">
            <ele>160.99</ele>
            <time>2010-08-05T11:16:47+02:00</time>
          </trkpt>
          <trkpt lon="8.09146404" lat="50.39102936">
            <ele>162.122</ele>
            <time>2010-08-05T11:16:52+02:00</time>
          </trkpt>
          <trkpt lon="8.0913887" lat="50.39100266">
            <ele>162.686</ele>
            <time>2010-08-05T11:16:57+02:00</time>
          </trkpt>
          <trkpt lon="8.09132957" lat="50.39099121">
            <ele>164.749</ele>
            <time>2010-08-05T11:17:02+02:00</time>
          </trkpt>
          <trkpt lon="8.09125423" lat="50.39099121">
            <ele>164.589</ele>
            <time>2010-08-05T11:17:07+02:00</time>
          </trkpt>
          <trkpt lon="8.09117317" lat="50.3909874">
            <ele>165.248</ele>
            <time>2010-08-05T11:17:12+02:00</time>
          </trkpt>
          <trkpt lon="8.09109402" lat="50.39095688">
            <ele>164.576</ele>
            <time>2010-08-05T11:17:17+02:00</time>
          </trkpt>
          <trkpt lon="8.09101677" lat="50.39094543">
            <ele>163.601</ele>
            <time>2010-08-05T11:17:22+02:00</time>
          </trkpt>
          <trkpt lon="8.09092236" lat="50.39091873">
            <ele>163.508</ele>
            <time>2010-08-05T11:17:27+02:00</time>
          </trkpt>
          <trkpt lon="8.09084225" lat="50.39088821">
            <ele>163.305</ele>
            <time>2010-08-05T11:17:32+02:00</time>
          </trkpt>
          <trkpt lon="8.09075737" lat="50.39086533">
            <ele>163.608</ele>
            <time>2010-08-05T11:17:37+02:00</time>
          </trkpt>
          <trkpt lon="8.09065437" lat="50.39084244">
            <ele>161.779</ele>
            <time>2010-08-05T11:17:42+02:00</time>
          </trkpt>
          <trkpt lon="8.09050846" lat="50.39080429">
            <ele>160.531</ele>
            <time>2010-08-05T11:17:47+02:00</time>
          </trkpt>
          <trkpt lon="8.09042168" lat="50.39078522">
            <ele>160.669</ele>
            <time>2010-08-05T11:17:52+02:00</time>
          </trkpt>
          <trkpt lon="8.09035492" lat="50.39076233">
            <ele>160.083</ele>
            <time>2010-08-05T11:17:57+02:00</time>
          </trkpt>
          <trkpt lon="8.09029484" lat="50.39074326">
            <ele>159.715</ele>
            <time>2010-08-05T11:18:02+02:00</time>
          </trkpt>
          <trkpt lon="8.09018993" lat="50.39072037">
            <ele>159.107</ele>
            <time>2010-08-05T11:18:07+02:00</time>
          </trkpt>
          <trkpt lon="8.09014702" lat="50.39069748">
            <ele>158.269</ele>
            <time>2010-08-05T11:18:12+02:00</time>
          </trkpt>
          <trkpt lon="8.09006405" lat="50.39069366">
            <ele>157.646</ele>
            <time>2010-08-05T11:18:17+02:00</time>
          </trkpt>
          <trkpt lon="8.08997631" lat="50.39067078">
            <ele>158.126</ele>
            <time>2010-08-05T11:18:22+02:00</time>
          </trkpt>
          <trkpt lon="8.08984089" lat="50.39064026">
            <ele>157.81</ele>
            <time>2010-08-05T11:18:27+02:00</time>
          </trkpt>
          <trkpt lon="8.08974934" lat="50.39062119">
            <ele>157.807</ele>
            <time>2010-08-05T11:18:32+02:00</time>
          </trkpt>
          <trkpt lon="8.08965111" lat="50.39062119">
            <ele>158.794</ele>
            <time>2010-08-05T11:18:37+02:00</time>
          </trkpt>
          <trkpt lon="8.08956337" lat="50.3905983">
            <ele>160.689</ele>
            <time>2010-08-05T11:18:42+02:00</time>
          </trkpt>
          <trkpt lon="8.08949947" lat="50.39059448">
            <ele>162.209</ele>
            <time>2010-08-05T11:18:47+02:00</time>
          </trkpt>
          <trkpt lon="8.08942604" lat="50.39057922">
            <ele>163.634</ele>
            <time>2010-08-05T11:18:52+02:00</time>
          </trkpt>
          <trkpt lon="8.08934784" lat="50.39056778">
            <ele>165.139</ele>
            <time>2010-08-05T11:18:57+02:00</time>
          </trkpt>
          <trkpt lon="8.08928204" lat="50.39055634">
            <ele>166.555</ele>
            <time>2010-08-05T11:19:02+02:00</time>
          </trkpt>
          <trkpt lon="8.08915234" lat="50.39054871">
            <ele>167.672</ele>
            <time>2010-08-05T11:19:07+02:00</time>
          </trkpt>
          <trkpt lon="8.0890913" lat="50.39053726">
            <ele>167.657</ele>
            <time>2010-08-05T11:19:12+02:00</time>
          </trkpt>
          <trkpt lon="8.08898258" lat="50.39051819">
            <ele>167.126</ele>
            <time>2010-08-05T11:19:17+02:00</time>
          </trkpt>
          <trkpt lon="8.08890724" lat="50.39051056">
            <ele>167.338</ele>
            <time>2010-08-05T11:19:22+02:00</time>
          </trkpt>
          <trkpt lon="8.08884525" lat="50.39048767">
            <ele>167.586</ele>
            <time>2010-08-05T11:19:27+02:00</time>
          </trkpt>
          <trkpt lon="8.08880234" lat="50.3904686">
            <ele>166.924</ele>
            <time>2010-08-05T11:19:32+02:00</time>
          </trkpt>
          <trkpt lon="8.08873367" lat="50.39044189">
            <ele>166.976</ele>
            <time>2010-08-05T11:19:37+02:00</time>
          </trkpt>
          <trkpt lon="8.08866215" lat="50.39044189">
            <ele>166.517</ele>
            <time>2010-08-05T11:19:42+02:00</time>
          </trkpt>
          <trkpt lon="8.08861256" lat="50.39041519">
            <ele>165.744</ele>
            <time>2010-08-05T11:19:47+02:00</time>
          </trkpt>
          <trkpt lon="8.08857155" lat="50.39039993">
            <ele>164.685</ele>
            <time>2010-08-05T11:19:52+02:00</time>
          </trkpt>
          <trkpt lon="8.08843517" lat="50.39040375">
            <ele>164.486</ele>
            <time>2010-08-05T11:19:57+02:00</time>
          </trkpt>
          <trkpt lon="8.08834076" lat="50.3903923">
            <ele>163.643</ele>
            <time>2010-08-05T11:20:02+02:00</time>
          </trkpt>
          <trkpt lon="8.08827114" lat="50.3903923">
            <ele>162.572</ele>
            <time>2010-08-05T11:20:07+02:00</time>
          </trkpt>
          <trkpt lon="8.08820057" lat="50.3903656">
            <ele>162.022</ele>
            <time>2010-08-05T11:20:12+02:00</time>
          </trkpt>
          <trkpt lon="8.0881052" lat="50.39033508">
            <ele>161.349</ele>
            <time>2010-08-05T11:20:17+02:00</time>
          </trkpt>
          <trkpt lon="8.08803844" lat="50.39033508">
            <ele>160.882</ele>
            <time>2010-08-05T11:20:22+02:00</time>
          </trkpt>
          <trkpt lon="8.08795261" lat="50.39033127">
            <ele>159.785</ele>
            <time>2010-08-05T11:20:27+02:00</time>
          </trkpt>
          <trkpt lon="8.08785629" lat="50.39030075">
            <ele>158.637</ele>
            <time>2010-08-05T11:20:32+02:00</time>
          </trkpt>
          <trkpt lon="8.08774471" lat="50.39026642">
            <ele>158.987</ele>
            <time>2010-08-05T11:20:37+02:00</time>
          </trkpt>
          <trkpt lon="8.08768559" lat="50.39024734">
            <ele>158.772</ele>
            <time>2010-08-05T11:20:42+02:00</time>
          </trkpt>
          <trkpt lon="8.08753395" lat="50.3902092">
            <ele>158.613</ele>
            <time>2010-08-05T11:20:47+02:00</time>
          </trkpt>
          <trkpt lon="8.08745575" lat="50.39019012">
            <ele>158.34</ele>
            <time>2010-08-05T11:20:52+02:00</time>
          </trkpt>
          <trkpt lon="8.08741665" lat="50.39016342">
            <ele>156.543</ele>
            <time>2010-08-05T11:20:57+02:00</time>
          </trkpt>
          <trkpt lon="8.0873251" lat="50.39015579">
            <ele>157.192</ele>
            <time>2010-08-05T11:21:02+02:00</time>
          </trkpt>
          <trkpt lon="8.08725357" lat="50.39014053">
            <ele>156.629</ele>
            <time>2010-08-05T11:21:07+02:00</time>
          </trkpt>
          <trkpt lon="8.08722687" lat="50.39011383">
            <ele>155.69</ele>
            <time>2010-08-05T11:21:12+02:00</time>
          </trkpt>
          <trkpt lon="8.08718491" lat="50.39009476">
            <ele>155.176</ele>
            <time>2010-08-05T11:21:17+02:00</time>
          </trkpt>
          <trkpt lon="8.08717537" lat="50.39009094">
            <ele>154.34</ele>
            <time>2010-08-05T11:21:22+02:00</time>
          </trkpt>
          <trkpt lon="8.08713627" lat="50.39008331">
            <ele>153.153</ele>
            <time>2010-08-05T11:21:27+02:00</time>
          </trkpt>
          <trkpt lon="8.08710003" lat="50.39006805">
            <ele>151.193</ele>
            <time>2010-08-05T11:21:32+02:00</time>
          </trkpt>
          <trkpt lon="8.08707333" lat="50.39004517">
            <ele>151.805</ele>
            <time>2010-08-05T11:21:37+02:00</time>
          </trkpt>
          <trkpt lon="8.08701897" lat="50.39002609">
            <ele>152.684</ele>
            <time>2010-08-05T11:21:42+02:00</time>
          </trkpt>
          <trkpt lon="8.08693409" lat="50.39001465">
            <ele>155.032</ele>
            <time>2010-08-05T11:21:47+02:00</time>
          </trkpt>
          <trkpt lon="8.08685112" lat="50.39001846">
            <ele>156.808</ele>
            <time>2010-08-05T11:21:52+02:00</time>
          </trkpt>
          <trkpt lon="8.08676434" lat="50.39001465">
            <ele>157.882</ele>
            <time>2010-08-05T11:21:57+02:00</time>
          </trkpt>
          <trkpt lon="8.0866766" lat="50.38999176">
            <ele>159.445</ele>
            <time>2010-08-05T11:22:02+02:00</time>
          </trkpt>
          <trkpt lon="8.0865593" lat="50.38998032">
            <ele>160.828</ele>
            <time>2010-08-05T11:22:07+02:00</time>
          </trkpt>
          <trkpt lon="8.08639622" lat="50.38996124">
            <ele>162.163</ele>
            <time>2010-08-05T11:22:12+02:00</time>
          </trkpt>
          <trkpt lon="8.08626366" lat="50.38994217">
            <ele>162.338</ele>
            <time>2010-08-05T11:22:17+02:00</time>
          </trkpt>
          <trkpt lon="8.08612156" lat="50.38992691">
            <ele>163.673</ele>
            <time>2010-08-05T11:22:22+02:00</time>
          </trkpt>
          <trkpt lon="8.08597088" lat="50.38988876">
            <ele>164.492</ele>
            <time>2010-08-05T11:22:27+02:00</time>
          </trkpt>
          <trkpt lon="8.08582973" lat="50.38986206">
            <ele>165.656</ele>
            <time>2010-08-05T11:22:32+02:00</time>
          </trkpt>
          <trkpt lon="8.08574009" lat="50.38984299">
            <ele>167.108</ele>
            <time>2010-08-05T11:22:37+02:00</time>
          </trkpt>
          <trkpt lon="8.0857172" lat="50.38980865">
            <ele>165.415</ele>
            <time>2010-08-05T11:22:42+02:00</time>
          </trkpt>
          <trkpt lon="8.0856638" lat="50.38979721">
            <ele>165.47</ele>
            <time>2010-08-05T11:22:47+02:00</time>
          </trkpt>
          <trkpt lon="8.08562946" lat="50.38978577">
            <ele>165.426</ele>
            <time>2010-08-05T11:22:52+02:00</time>
          </trkpt>
          <trkpt lon="8.08553696" lat="50.38977432">
            <ele>165.061</ele>
            <time>2010-08-05T11:22:57+02:00</time>
          </trkpt>
          <trkpt lon="8.08544159" lat="50.38976288">
            <ele>164.459</ele>
            <time>2010-08-05T11:23:02+02:00</time>
          </trkpt>
          <trkpt lon="8.08536339" lat="50.38975525">
            <ele>164.589</ele>
            <time>2010-08-05T11:23:07+02:00</time>
          </trkpt>
          <trkpt lon="8.08530331" lat="50.38973236">
            <ele>164.907</ele>
            <time>2010-08-05T11:23:12+02:00</time>
          </trkpt>
          <trkpt lon="8.08520603" lat="50.38970184">
            <ele>164.772</ele>
            <time>2010-08-05T11:23:17+02:00</time>
          </trkpt>
          <trkpt lon="8.08514118" lat="50.38967133">
            <ele>164.124</ele>
            <time>2010-08-05T11:23:22+02:00</time>
          </trkpt>
          <trkpt lon="8.08503532" lat="50.38965225">
            <ele>164.38</ele>
            <time>2010-08-05T11:23:27+02:00</time>
          </trkpt>
          <trkpt lon="8.08491898" lat="50.38962173">
            <ele>164.149</ele>
            <time>2010-08-05T11:23:32+02:00</time>
          </trkpt>
          <trkpt lon="8.08485031" lat="50.38959122">
            <ele>163.561</ele>
            <time>2010-08-05T11:23:37+02:00</time>
          </trkpt>
          <trkpt lon="8.08476162" lat="50.38956833">
            <ele>162.94</ele>
            <time>2010-08-05T11:23:42+02:00</time>
          </trkpt>
          <trkpt lon="8.08467674" lat="50.38953781">
            <ele>162.693</ele>
            <time>2010-08-05T11:23:47+02:00</time>
          </trkpt>
          <trkpt lon="8.08460617" lat="50.38951111">
            <ele>162.514</ele>
            <time>2010-08-05T11:23:52+02:00</time>
          </trkpt>
          <trkpt lon="8.08455658" lat="50.38946915">
            <ele>163.235</ele>
            <time>2010-08-05T11:23:57+02:00</time>
          </trkpt>
          <trkpt lon="8.08452415" lat="50.38945007">
            <ele>162.612</ele>
            <time>2010-08-05T11:24:02+02:00</time>
          </trkpt>
          <trkpt lon="8.08447456" lat="50.38942719">
            <ele>161.953</ele>
            <time>2010-08-05T11:24:07+02:00</time>
          </trkpt>
          <trkpt lon="8.08442783" lat="50.3894043">
            <ele>161.151</ele>
            <time>2010-08-05T11:24:12+02:00</time>
          </trkpt>
          <trkpt lon="8.08435345" lat="50.38938141">
            <ele>160.625</ele>
            <time>2010-08-05T11:24:17+02:00</time>
          </trkpt>
          <trkpt lon="8.08428955" lat="50.38937378">
            <ele>160.345</ele>
            <time>2010-08-05T11:24:22+02:00</time>
          </trkpt>
          <trkpt lon="8.08421135" lat="50.38935852">
            <ele>160.531</ele>
            <time>2010-08-05T11:24:27+02:00</time>
          </trkpt>
          <trkpt lon="8.08413696" lat="50.38934326">
            <ele>161.102</ele>
            <time>2010-08-05T11:24:32+02:00</time>
          </trkpt>
          <trkpt lon="8.08405399" lat="50.38930893">
            <ele>161.928</ele>
            <time>2010-08-05T11:24:37+02:00</time>
          </trkpt>
          <trkpt lon="8.08395386" lat="50.38929367">
            <ele>162.097</ele>
            <time>2010-08-05T11:24:42+02:00</time>
          </trkpt>
          <trkpt lon="8.08388138" lat="50.38928223">
            <ele>164.021</ele>
            <time>2010-08-05T11:24:47+02:00</time>
          </trkpt>
          <trkpt lon="8.08379078" lat="50.38925934">
            <ele>164.943</ele>
            <time>2010-08-05T11:24:52+02:00</time>
          </trkpt>
          <trkpt lon="8.08372688" lat="50.38922882">
            <ele>165.67</ele>
            <time>2010-08-05T11:24:57+02:00</time>
          </trkpt>
          <trkpt lon="8.08368206" lat="50.38920975">
            <ele>166.862</ele>
            <time>2010-08-05T11:25:02+02:00</time>
          </trkpt>
          <trkpt lon="8.08363914" lat="50.3891983">
            <ele>167.747</ele>
            <time>2010-08-05T11:25:07+02:00</time>
          </trkpt>
          <trkpt lon="8.08356094" lat="50.38919067">
            <ele>168.185</ele>
            <time>2010-08-05T11:25:12+02:00</time>
          </trkpt>
          <trkpt lon="8.08345604" lat="50.38915253">
            <ele>168.472</ele>
            <time>2010-08-05T11:25:17+02:00</time>
          </trkpt>
          <trkpt lon="8.08335781" lat="50.38912201">
            <ele>168.678</ele>
            <time>2010-08-05T11:25:22+02:00</time>
          </trkpt>
          <trkpt lon="8.08327293" lat="50.38912582">
            <ele>168.694</ele>
            <time>2010-08-05T11:25:27+02:00</time>
          </trkpt>
          <trkpt lon="8.08320427" lat="50.38910294">
            <ele>166.269</ele>
            <time>2010-08-05T11:25:32+02:00</time>
          </trkpt>
          <trkpt lon="8.08313656" lat="50.38907623">
            <ele>163.771</ele>
            <time>2010-08-05T11:25:37+02:00</time>
          </trkpt>
          <trkpt lon="8.08304214" lat="50.38903809">
            <ele>161.283</ele>
            <time>2010-08-05T11:25:42+02:00</time>
          </trkpt>
          <trkpt lon="8.08295155" lat="50.38901138">
            <ele>159.273</ele>
            <time>2010-08-05T11:25:47+02:00</time>
          </trkpt>
          <trkpt lon="8.08285904" lat="50.38898468">
            <ele>158.987</ele>
            <time>2010-08-05T11:25:52+02:00</time>
          </trkpt>
          <trkpt lon="8.08278179" lat="50.38895035">
            <ele>159.032</ele>
            <time>2010-08-05T11:25:57+02:00</time>
          </trkpt>
          <trkpt lon="8.08269501" lat="50.38891983">
            <ele>158.934</ele>
            <time>2010-08-05T11:26:02+02:00</time>
          </trkpt>
          <trkpt lon="8.08258438" lat="50.38889313">
            <ele>159.492</ele>
            <time>2010-08-05T11:26:07+02:00</time>
          </trkpt>
          <trkpt lon="8.08246803" lat="50.38887787">
            <ele>160.018</ele>
            <time>2010-08-05T11:26:12+02:00</time>
          </trkpt>
          <trkpt lon="8.08235455" lat="50.38887024">
            <ele>161.054</ele>
            <time>2010-08-05T11:26:17+02:00</time>
          </trkpt>
          <trkpt lon="8.08234024" lat="50.38885117">
            <ele>161.594</ele>
            <time>2010-08-05T11:26:22+02:00</time>
          </trkpt>
          <trkpt lon="8.08228397" lat="50.38884735">
            <ele>161.262</ele>
            <time>2010-08-05T11:26:27+02:00</time>
          </trkpt>
          <trkpt lon="8.08224869" lat="50.38882446">
            <ele>160.986</ele>
            <time>2010-08-05T11:26:32+02:00</time>
          </trkpt>
          <trkpt lon="8.08221054" lat="50.38880539">
            <ele>161.397</ele>
            <time>2010-08-05T11:26:37+02:00</time>
          </trkpt>
          <trkpt lon="8.08214855" lat="50.38879013">
            <ele>161.524</ele>
            <time>2010-08-05T11:26:42+02:00</time>
          </trkpt>
          <trkpt lon="8.08207417" lat="50.38876724">
            <ele>162.888</ele>
            <time>2010-08-05T11:26:47+02:00</time>
          </trkpt>
          <trkpt lon="8.08200264" lat="50.38875961">
            <ele>163.233</ele>
            <time>2010-08-05T11:26:52+02:00</time>
          </trkpt>
          <trkpt lon="8.08191586" lat="50.38873291">
            <ele>166.195</ele>
            <time>2010-08-05T11:26:57+02:00</time>
          </trkpt>
          <trkpt lon="8.08185291" lat="50.38873291">
            <ele>168.028</ele>
            <time>2010-08-05T11:27:02+02:00</time>
          </trkpt>
          <trkpt lon="8.08180237" lat="50.38870621">
            <ele>169.252</ele>
            <time>2010-08-05T11:27:07+02:00</time>
          </trkpt>
          <trkpt lon="8.08174324" lat="50.38869476">
            <ele>169.049</ele>
            <time>2010-08-05T11:27:12+02:00</time>
          </trkpt>
          <trkpt lon="8.08168411" lat="50.38868713">
            <ele>169.213</ele>
            <time>2010-08-05T11:27:17+02:00</time>
          </trkpt>
          <trkpt lon="8.0816021" lat="50.38866425">
            <ele>169.631</ele>
            <time>2010-08-05T11:27:22+02:00</time>
          </trkpt>
          <trkpt lon="8.08151245" lat="50.38866043">
            <ele>169.065</ele>
            <time>2010-08-05T11:27:27+02:00</time>
          </trkpt>
          <trkpt lon="8.08140469" lat="50.38863754">
            <ele>169.68</ele>
            <time>2010-08-05T11:27:32+02:00</time>
          </trkpt>
          <trkpt lon="8.0813179" lat="50.3885994">
            <ele>171.01</ele>
            <time>2010-08-05T11:27:37+02:00</time>
          </trkpt>
          <trkpt lon="8.08123398" lat="50.38857269">
            <ele>171.004</ele>
            <time>2010-08-05T11:27:42+02:00</time>
          </trkpt>
          <trkpt lon="8.08114433" lat="50.3885498">
            <ele>170.755</ele>
            <time>2010-08-05T11:27:47+02:00</time>
          </trkpt>
          <trkpt lon="8.08106327" lat="50.38854218">
            <ele>171.016</ele>
            <time>2010-08-05T11:27:52+02:00</time>
          </trkpt>
          <trkpt lon="8.08099842" lat="50.3885231">
            <ele>172.056</ele>
            <time>2010-08-05T11:27:57+02:00</time>
          </trkpt>
          <trkpt lon="8.08091831" lat="50.3885231">
            <ele>172.084</ele>
            <time>2010-08-05T11:28:02+02:00</time>
          </trkpt>
          <trkpt lon="8.08084679" lat="50.38851929">
            <ele>171.441</ele>
            <time>2010-08-05T11:28:07+02:00</time>
          </trkpt>
          <trkpt lon="8.08077621" lat="50.38850021">
            <ele>170.015</ele>
            <time>2010-08-05T11:28:12+02:00</time>
          </trkpt>
          <trkpt lon="8.08069611" lat="50.3884964">
            <ele>168.548</ele>
            <time>2010-08-05T11:28:17+02:00</time>
          </trkpt>
          <trkpt lon="8.08059311" lat="50.38847351">
            <ele>166.371</ele>
            <time>2010-08-05T11:28:22+02:00</time>
          </trkpt>
          <trkpt lon="8.08049965" lat="50.38845825">
            <ele>164.807</ele>
            <time>2010-08-05T11:28:27+02:00</time>
          </trkpt>
          <trkpt lon="8.08038425" lat="50.38843918">
            <ele>164.51</ele>
            <time>2010-08-05T11:28:32+02:00</time>
          </trkpt>
          <trkpt lon="8.08026218" lat="50.38842773">
            <ele>165.118</ele>
            <time>2010-08-05T11:28:37+02:00</time>
          </trkpt>
          <trkpt lon="8.08019066" lat="50.38841248">
            <ele>165.674</ele>
            <time>2010-08-05T11:28:42+02:00</time>
          </trkpt>
          <trkpt lon="8.08011913" lat="50.38839722">
            <ele>165.804</ele>
            <time>2010-08-05T11:28:47+02:00</time>
          </trkpt>
          <trkpt lon="8.08003044" lat="50.38838196">
            <ele>166.514</ele>
            <time>2010-08-05T11:28:52+02:00</time>
          </trkpt>
          <trkpt lon="8.07997417" lat="50.38837814">
            <ele>166.905</ele>
            <time>2010-08-05T11:28:57+02:00</time>
          </trkpt>
          <trkpt lon="8.0799427" lat="50.38833618">
            <ele>167.051</ele>
            <time>2010-08-05T11:29:02+02:00</time>
          </trkpt>
          <trkpt lon="8.07993031" lat="50.38831711">
            <ele>167.203</ele>
            <time>2010-08-05T11:29:07+02:00</time>
          </trkpt>
          <trkpt lon="8.07987976" lat="50.38833618">
            <ele>167.286</ele>
            <time>2010-08-05T11:29:12+02:00</time>
          </trkpt>
          <trkpt lon="8.07986641" lat="50.38831711">
            <ele>167.266</ele>
            <time>2010-08-05T11:29:17+02:00</time>
          </trkpt>
          <trkpt lon="8.07986832" lat="50.38830948">
            <ele>167.29</ele>
            <time>2010-08-05T11:29:22+02:00</time>
          </trkpt>
          <trkpt lon="8.07986641" lat="50.38831711">
            <ele>167.304</ele>
            <time>2010-08-05T11:29:27+02:00</time>
          </trkpt>
          <trkpt lon="8.07986736" lat="50.38832474">
            <ele>167.324</ele>
            <time>2010-08-05T11:29:32+02:00</time>
          </trkpt>
          <trkpt lon="8.07986069" lat="50.38834">
            <ele>167.334</ele>
            <time>2010-08-05T11:29:37+02:00</time>
          </trkpt>
          <trkpt lon="8.07983017" lat="50.38835907">
            <ele>167.409</ele>
            <time>2010-08-05T11:29:42+02:00</time>
          </trkpt>
          <trkpt lon="8.07982159" lat="50.38836288">
            <ele>167.419</ele>
            <time>2010-08-05T11:29:47+02:00</time>
          </trkpt>
          <trkpt lon="8.07980728" lat="50.38838577">
            <ele>167.516</ele>
            <time>2010-08-05T11:29:52+02:00</time>
          </trkpt>
          <trkpt lon="8.07981491" lat="50.38840103">
            <ele>167.749</ele>
            <time>2010-08-05T11:29:57+02:00</time>
          </trkpt>
          <trkpt lon="8.07982826" lat="50.3883934">
            <ele>167.239</ele>
            <time>2010-08-05T11:30:02+02:00</time>
          </trkpt>
          <trkpt lon="8.07980156" lat="50.38829422">
            <ele>166.205</ele>
            <time>2010-08-05T11:30:07+02:00</time>
          </trkpt>
          <trkpt lon="8.07979488" lat="50.38825989">
            <ele>165.36</ele>
            <time>2010-08-05T11:30:12+02:00</time>
          </trkpt>
          <trkpt lon="8.07979584" lat="50.38825989">
            <ele>165.273</ele>
            <time>2010-08-05T11:30:17+02:00</time>
          </trkpt>
          <trkpt lon="8.0797987" lat="50.38825989">
            <ele>164.9</ele>
            <time>2010-08-05T11:30:22+02:00</time>
          </trkpt>
          <trkpt lon="8.07979774" lat="50.38825989">
            <ele>164.875</ele>
            <time>2010-08-05T11:30:27+02:00</time>
          </trkpt>
          <trkpt lon="8.07979298" lat="50.38825226">
            <ele>164.507</ele>
            <time>2010-08-05T11:30:32+02:00</time>
          </trkpt>
          <trkpt lon="8.0797739" lat="50.3882103">
            <ele>164.778</ele>
            <time>2010-08-05T11:30:37+02:00</time>
          </trkpt>
          <trkpt lon="8.07973003" lat="50.38822556">
            <ele>165.497</ele>
            <time>2010-08-05T11:30:42+02:00</time>
          </trkpt>
          <trkpt lon="8.07966995" lat="50.38822174">
            <ele>165.082</ele>
            <time>2010-08-05T11:30:47+02:00</time>
          </trkpt>
          <trkpt lon="8.07961464" lat="50.38822174">
            <ele>164.194</ele>
            <time>2010-08-05T11:30:52+02:00</time>
          </trkpt>
          <trkpt lon="8.07958221" lat="50.38827515">
            <ele>164.786</ele>
            <time>2010-08-05T11:30:57+02:00</time>
          </trkpt>
          <trkpt lon="8.07955837" lat="50.38826752">
            <ele>165.226</ele>
            <time>2010-08-05T11:31:02+02:00</time>
          </trkpt>
          <trkpt lon="8.07950687" lat="50.38831329">
            <ele>165.415</ele>
            <time>2010-08-05T11:31:07+02:00</time>
          </trkpt>
          <trkpt lon="8.07947826" lat="50.38830185">
            <ele>165.867</ele>
            <time>2010-08-05T11:31:12+02:00</time>
          </trkpt>
          <trkpt lon="8.07946491" lat="50.38828659">
            <ele>166.496</ele>
            <time>2010-08-05T11:31:17+02:00</time>
          </trkpt>
          <trkpt lon="8.07941628" lat="50.38827896">
            <ele>166.853</ele>
            <time>2010-08-05T11:31:22+02:00</time>
          </trkpt>
          <trkpt lon="8.07932758" lat="50.388237">
            <ele>167.359</ele>
            <time>2010-08-05T11:31:27+02:00</time>
          </trkpt>
          <trkpt lon="8.07924175" lat="50.38821411">
            <ele>167.782</ele>
            <time>2010-08-05T11:31:32+02:00</time>
          </trkpt>
          <trkpt lon="8.07914639" lat="50.38820648">
            <ele>168.303</ele>
            <time>2010-08-05T11:31:37+02:00</time>
          </trkpt>
          <trkpt lon="8.07905293" lat="50.38820267">
            <ele>168.84</ele>
            <time>2010-08-05T11:31:42+02:00</time>
          </trkpt>
          <trkpt lon="8.07896805" lat="50.38823318">
            <ele>170.076</ele>
            <time>2010-08-05T11:31:47+02:00</time>
          </trkpt>
          <trkpt lon="8.07888508" lat="50.38824463">
            <ele>171.402</ele>
            <time>2010-08-05T11:31:52+02:00</time>
          </trkpt>
          <trkpt lon="8.07879353" lat="50.38824463">
            <ele>170.747</ele>
            <time>2010-08-05T11:31:57+02:00</time>
          </trkpt>
          <trkpt lon="8.07866764" lat="50.38823318">
            <ele>170.868</ele>
            <time>2010-08-05T11:32:02+02:00</time>
          </trkpt>
          <trkpt lon="8.07854271" lat="50.38819885">
            <ele>169.482</ele>
            <time>2010-08-05T11:32:07+02:00</time>
          </trkpt>
          <trkpt lon="8.07844353" lat="50.38815308">
            <ele>167.757</ele>
            <time>2010-08-05T11:32:12+02:00</time>
          </trkpt>
          <trkpt lon="8.07836914" lat="50.38811874">
            <ele>166.439</ele>
            <time>2010-08-05T11:32:17+02:00</time>
          </trkpt>
          <trkpt lon="8.07827759" lat="50.3881073">
            <ele>165.302</ele>
            <time>2010-08-05T11:32:22+02:00</time>
          </trkpt>
          <trkpt lon="8.07817554" lat="50.38808823">
            <ele>164.626</ele>
            <time>2010-08-05T11:32:27+02:00</time>
          </trkpt>
          <trkpt lon="8.07807064" lat="50.38806915">
            <ele>163.634</ele>
            <time>2010-08-05T11:32:32+02:00</time>
          </trkpt>
          <trkpt lon="8.07797813" lat="50.38802338">
            <ele>162.462</ele>
            <time>2010-08-05T11:32:37+02:00</time>
          </trkpt>
          <trkpt lon="8.07787323" lat="50.38802338">
            <ele>162.342</ele>
            <time>2010-08-05T11:32:42+02:00</time>
          </trkpt>
          <trkpt lon="8.077775" lat="50.38800812">
            <ele>162.421</ele>
            <time>2010-08-05T11:32:47+02:00</time>
          </trkpt>
          <trkpt lon="8.0776844" lat="50.3880043">
            <ele>162.863</ele>
            <time>2010-08-05T11:32:52+02:00</time>
          </trkpt>
          <trkpt lon="8.0776062" lat="50.38800812">
            <ele>163.567</ele>
            <time>2010-08-05T11:32:57+02:00</time>
          </trkpt>
          <trkpt lon="8.07754517" lat="50.3879776">
            <ele>163.464</ele>
            <time>2010-08-05T11:33:02+02:00</time>
          </trkpt>
          <trkpt lon="8.07744217" lat="50.38798904">
            <ele>163.566</ele>
            <time>2010-08-05T11:33:07+02:00</time>
          </trkpt>
          <trkpt lon="8.07734585" lat="50.38799667">
            <ele>163.531</ele>
            <time>2010-08-05T11:33:12+02:00</time>
          </trkpt>
          <trkpt lon="8.07724285" lat="50.38799667">
            <ele>163.523</ele>
            <time>2010-08-05T11:33:17+02:00</time>
          </trkpt>
          <trkpt lon="8.07718182" lat="50.38798523">
            <ele>163.818</ele>
            <time>2010-08-05T11:33:22+02:00</time>
          </trkpt>
          <trkpt lon="8.07711887" lat="50.38798141">
            <ele>164.037</ele>
            <time>2010-08-05T11:33:27+02:00</time>
          </trkpt>
          <trkpt lon="8.07697964" lat="50.38803864">
            <ele>164.301</ele>
            <time>2010-08-05T11:33:32+02:00</time>
          </trkpt>
          <trkpt lon="8.07691097" lat="50.38804626">
            <ele>164.607</ele>
            <time>2010-08-05T11:33:37+02:00</time>
          </trkpt>
          <trkpt lon="8.07679844" lat="50.38804245">
            <ele>165.593</ele>
            <time>2010-08-05T11:33:42+02:00</time>
          </trkpt>
          <trkpt lon="8.07671833" lat="50.38800812">
            <ele>166.534</ele>
            <time>2010-08-05T11:33:47+02:00</time>
          </trkpt>
          <trkpt lon="8.07662201" lat="50.38799667">
            <ele>165.503</ele>
            <time>2010-08-05T11:33:52+02:00</time>
          </trkpt>
          <trkpt lon="8.07655716" lat="50.38795471">
            <ele>165.631</ele>
            <time>2010-08-05T11:33:57+02:00</time>
          </trkpt>
          <trkpt lon="8.07647133" lat="50.38787079">
            <ele>165.671</ele>
            <time>2010-08-05T11:34:02+02:00</time>
          </trkpt>
          <trkpt lon="8.07639122" lat="50.38787842">
            <ele>165.702</ele>
            <time>2010-08-05T11:34:07+02:00</time>
          </trkpt>
          <trkpt lon="8.07631588" lat="50.38787842">
            <ele>166.356</ele>
            <time>2010-08-05T11:34:12+02:00</time>
          </trkpt>
          <trkpt lon="8.07623482" lat="50.3878479">
            <ele>167.118</ele>
            <time>2010-08-05T11:34:17+02:00</time>
          </trkpt>
          <trkpt lon="8.07617474" lat="50.38780975">
            <ele>166.927</ele>
            <time>2010-08-05T11:34:22+02:00</time>
          </trkpt>
          <trkpt lon="8.07609367" lat="50.38780594">
            <ele>166.33</ele>
            <time>2010-08-05T11:34:27+02:00</time>
          </trkpt>
          <trkpt lon="8.07603073" lat="50.38776779">
            <ele>166.007</ele>
            <time>2010-08-05T11:34:32+02:00</time>
          </trkpt>
          <trkpt lon="8.07594013" lat="50.38776779">
            <ele>165.52</ele>
            <time>2010-08-05T11:34:37+02:00</time>
          </trkpt>
          <trkpt lon="8.07588577" lat="50.38772583">
            <ele>164.84</ele>
            <time>2010-08-05T11:34:42+02:00</time>
          </trkpt>
          <trkpt lon="8.07579517" lat="50.38774109">
            <ele>164.068</ele>
            <time>2010-08-05T11:34:47+02:00</time>
          </trkpt>
          <trkpt lon="8.07569408" lat="50.38777161">
            <ele>163.069</ele>
            <time>2010-08-05T11:34:52+02:00</time>
          </trkpt>
          <trkpt lon="8.07560539" lat="50.3878212">
            <ele>162.638</ele>
            <time>2010-08-05T11:34:57+02:00</time>
          </trkpt>
          <trkpt lon="8.07550335" lat="50.38783646">
            <ele>160.185</ele>
            <time>2010-08-05T11:35:02+02:00</time>
          </trkpt>
          <trkpt lon="8.07541275" lat="50.38787842">
            <ele>159.14</ele>
            <time>2010-08-05T11:35:07+02:00</time>
          </trkpt>
          <trkpt lon="8.07531357" lat="50.38788986">
            <ele>158.645</ele>
            <time>2010-08-05T11:35:12+02:00</time>
          </trkpt>
          <trkpt lon="8.07520866" lat="50.38791656">
            <ele>158.279</ele>
            <time>2010-08-05T11:35:17+02:00</time>
          </trkpt>
          <trkpt lon="8.0751009" lat="50.38791275">
            <ele>159.054</ele>
            <time>2010-08-05T11:35:22+02:00</time>
          </trkpt>
          <trkpt lon="8.07503033" lat="50.38790894">
            <ele>159.55</ele>
            <time>2010-08-05T11:35:27+02:00</time>
          </trkpt>
          <trkpt lon="8.07494831" lat="50.38789368">
            <ele>158.921</ele>
            <time>2010-08-05T11:35:32+02:00</time>
          </trkpt>
          <trkpt lon="8.0748806" lat="50.38788986">
            <ele>158.991</ele>
            <time>2010-08-05T11:35:37+02:00</time>
          </trkpt>
          <trkpt lon="8.07478905" lat="50.38790894">
            <ele>158.874</ele>
            <time>2010-08-05T11:35:42+02:00</time>
          </trkpt>
          <trkpt lon="8.07471466" lat="50.38791275">
            <ele>159.088</ele>
            <time>2010-08-05T11:35:47+02:00</time>
          </trkpt>
          <trkpt lon="8.07466698" lat="50.3878746">
            <ele>158.83</ele>
            <time>2010-08-05T11:35:52+02:00</time>
          </trkpt>
          <trkpt lon="8.07458878" lat="50.38786697">
            <ele>158.206</ele>
            <time>2010-08-05T11:35:57+02:00</time>
          </trkpt>
          <trkpt lon="8.07451153" lat="50.38785553">
            <ele>157.804</ele>
            <time>2010-08-05T11:36:02+02:00</time>
          </trkpt>
          <trkpt lon="8.07444477" lat="50.3878479">
            <ele>156.534</ele>
            <time>2010-08-05T11:36:07+02:00</time>
          </trkpt>
          <trkpt lon="8.07435513" lat="50.38789368">
            <ele>156.983</ele>
            <time>2010-08-05T11:36:12+02:00</time>
          </trkpt>
          <trkpt lon="8.07427311" lat="50.38792419">
            <ele>157.146</ele>
            <time>2010-08-05T11:36:17+02:00</time>
          </trkpt>
          <trkpt lon="8.07419109" lat="50.3879509">
            <ele>157.866</ele>
            <time>2010-08-05T11:36:22+02:00</time>
          </trkpt>
          <trkpt lon="8.07413483" lat="50.38788986">
            <ele>157.726</ele>
            <time>2010-08-05T11:36:27+02:00</time>
          </trkpt>
          <trkpt lon="8.07408333" lat="50.38793182">
            <ele>158.49</ele>
            <time>2010-08-05T11:36:32+02:00</time>
          </trkpt>
          <trkpt lon="8.07404518" lat="50.38793945">
            <ele>157.251</ele>
            <time>2010-08-05T11:36:37+02:00</time>
          </trkpt>
          <trkpt lon="8.07404232" lat="50.38793564">
            <ele>157.271</ele>
            <time>2010-08-05T11:36:42+02:00</time>
          </trkpt>
          <trkpt lon="8.07403946" lat="50.38793564">
            <ele>157.207</ele>
            <time>2010-08-05T11:36:47+02:00</time>
          </trkpt>
          <trkpt lon="8.07403755" lat="50.38793564">
            <ele>157.193</ele>
            <time>2010-08-05T11:36:52+02:00</time>
          </trkpt>
          <trkpt lon="8.07401752" lat="50.38793564">
            <ele>157.39</ele>
            <time>2010-08-05T11:36:57+02:00</time>
          </trkpt>
          <trkpt lon="8.07393932" lat="50.38792038">
            <ele>157.475</ele>
            <time>2010-08-05T11:37:02+02:00</time>
          </trkpt>
          <trkpt lon="8.07385731" lat="50.38789749">
            <ele>155.915</ele>
            <time>2010-08-05T11:37:07+02:00</time>
          </trkpt>
          <trkpt lon="8.07380009" lat="50.38788605">
            <ele>156.542</ele>
            <time>2010-08-05T11:37:12+02:00</time>
          </trkpt>
          <trkpt lon="8.07379913" lat="50.38782883">
            <ele>156.367</ele>
            <time>2010-08-05T11:37:17+02:00</time>
          </trkpt>
          <trkpt lon="8.0737257" lat="50.38788223">
            <ele>156.227</ele>
            <time>2010-08-05T11:37:22+02:00</time>
          </trkpt>
          <trkpt lon="8.07363415" lat="50.38791656">
            <ele>155.968</ele>
            <time>2010-08-05T11:37:27+02:00</time>
          </trkpt>
          <trkpt lon="8.07357788" lat="50.38790894">
            <ele>156.234</ele>
            <time>2010-08-05T11:37:32+02:00</time>
          </trkpt>
          <trkpt lon="8.07357407" lat="50.38789749">
            <ele>156.482</ele>
            <time>2010-08-05T11:37:37+02:00</time>
          </trkpt>
          <trkpt lon="8.07355213" lat="50.38787842">
            <ele>156.564</ele>
            <time>2010-08-05T11:37:42+02:00</time>
          </trkpt>
          <trkpt lon="8.07346821" lat="50.38788223">
            <ele>156.773</ele>
            <time>2010-08-05T11:37:47+02:00</time>
          </trkpt>
          <trkpt lon="8.0733757" lat="50.38787079">
            <ele>156.775</ele>
            <time>2010-08-05T11:37:52+02:00</time>
          </trkpt>
          <trkpt lon="8.07328033" lat="50.38787079">
            <ele>156.932</ele>
            <time>2010-08-05T11:37:57+02:00</time>
          </trkpt>
          <trkpt lon="8.07319641" lat="50.38786316">
            <ele>157.643</ele>
            <time>2010-08-05T11:38:02+02:00</time>
          </trkpt>
          <trkpt lon="8.07311916" lat="50.38787079">
            <ele>157.869</ele>
            <time>2010-08-05T11:38:07+02:00</time>
          </trkpt>
          <trkpt lon="8.07301712" lat="50.38786697">
            <ele>157.684</ele>
            <time>2010-08-05T11:38:12+02:00</time>
          </trkpt>
          <trkpt lon="8.07293129" lat="50.38785934">
            <ele>156.653</ele>
            <time>2010-08-05T11:38:17+02:00</time>
          </trkpt>
          <trkpt lon="8.07286167" lat="50.38788986">
            <ele>155.57</ele>
            <time>2010-08-05T11:38:22+02:00</time>
          </trkpt>
          <trkpt lon="8.07284546" lat="50.38790131">
            <ele>154.473</ele>
            <time>2010-08-05T11:38:27+02:00</time>
          </trkpt>
          <trkpt lon="8.07283115" lat="50.38790131">
            <ele>153.307</ele>
            <time>2010-08-05T11:38:32+02:00</time>
          </trkpt>
          <trkpt lon="8.07275963" lat="50.38790131">
            <ele>152.68</ele>
            <time>2010-08-05T11:38:37+02:00</time>
          </trkpt>
          <trkpt lon="8.07265663" lat="50.38793182">
            <ele>152.058</ele>
            <time>2010-08-05T11:38:42+02:00</time>
          </trkpt>
          <trkpt lon="8.07256317" lat="50.38793564">
            <ele>151.974</ele>
            <time>2010-08-05T11:38:47+02:00</time>
          </trkpt>
          <trkpt lon="8.07247162" lat="50.38796997">
            <ele>152.234</ele>
            <time>2010-08-05T11:38:52+02:00</time>
          </trkpt>
          <trkpt lon="8.07239342" lat="50.3880043">
            <ele>152.563</ele>
            <time>2010-08-05T11:38:57+02:00</time>
          </trkpt>
          <trkpt lon="8.07229137" lat="50.38804626">
            <ele>151.966</ele>
            <time>2010-08-05T11:39:02+02:00</time>
          </trkpt>
          <trkpt lon="8.07218361" lat="50.38807297">
            <ele>152.173</ele>
            <time>2010-08-05T11:39:07+02:00</time>
          </trkpt>
          <trkpt lon="8.07207775" lat="50.38808441">
            <ele>152.076</ele>
            <time>2010-08-05T11:39:12+02:00</time>
          </trkpt>
          <trkpt lon="8.07199001" lat="50.38810349">
            <ele>151.832</ele>
            <time>2010-08-05T11:39:17+02:00</time>
          </trkpt>
          <trkpt lon="8.07191563" lat="50.38809967">
            <ele>151.774</ele>
            <time>2010-08-05T11:39:22+02:00</time>
          </trkpt>
          <trkpt lon="8.0718298" lat="50.38806152">
            <ele>152.057</ele>
            <time>2010-08-05T11:39:27+02:00</time>
          </trkpt>
          <trkpt lon="8.07174397" lat="50.38807678">
            <ele>152.483</ele>
            <time>2010-08-05T11:39:32+02:00</time>
          </trkpt>
          <trkpt lon="8.07166481" lat="50.38810349">
            <ele>153.909</ele>
            <time>2010-08-05T11:39:37+02:00</time>
          </trkpt>
          <trkpt lon="8.07159424" lat="50.38812256">
            <ele>154.753</ele>
            <time>2010-08-05T11:39:42+02:00</time>
          </trkpt>
          <trkpt lon="8.07151222" lat="50.38812637">
            <ele>156.16</ele>
            <time>2010-08-05T11:39:47+02:00</time>
          </trkpt>
          <trkpt lon="8.07142544" lat="50.38812256">
            <ele>157.525</ele>
            <time>2010-08-05T11:39:52+02:00</time>
          </trkpt>
          <trkpt lon="8.07139206" lat="50.38816071">
            <ele>158.124</ele>
            <time>2010-08-05T11:39:57+02:00</time>
          </trkpt>
          <trkpt lon="8.0713501" lat="50.38819885">
            <ele>158.119</ele>
            <time>2010-08-05T11:40:02+02:00</time>
          </trkpt>
          <trkpt lon="8.0712862" lat="50.3882103">
            <ele>158.594</ele>
            <time>2010-08-05T11:40:07+02:00</time>
          </trkpt>
          <trkpt lon="8.07120323" lat="50.38819885">
            <ele>158.995</ele>
            <time>2010-08-05T11:40:12+02:00</time>
          </trkpt>
          <trkpt lon="8.07111073" lat="50.38818359">
            <ele>158.538</ele>
            <time>2010-08-05T11:40:17+02:00</time>
          </trkpt>
          <trkpt lon="8.07099533" lat="50.38818741">
            <ele>157.699</ele>
            <time>2010-08-05T11:40:22+02:00</time>
          </trkpt>
          <trkpt lon="8.07085896" lat="50.38815689">
            <ele>157.276</ele>
            <time>2010-08-05T11:40:27+02:00</time>
          </trkpt>
          <trkpt lon="8.070755" lat="50.38818359">
            <ele>156.64</ele>
            <time>2010-08-05T11:40:32+02:00</time>
          </trkpt>
          <trkpt lon="8.07065487" lat="50.3882103">
            <ele>156.211</ele>
            <time>2010-08-05T11:40:37+02:00</time>
          </trkpt>
          <trkpt lon="8.07057095" lat="50.38822556">
            <ele>156.943</ele>
            <time>2010-08-05T11:40:42+02:00</time>
          </trkpt>
          <trkpt lon="8.07047367" lat="50.38825226">
            <ele>155.169</ele>
            <time>2010-08-05T11:40:47+02:00</time>
          </trkpt>
          <trkpt lon="8.07036591" lat="50.38827896">
            <ele>155.687</ele>
            <time>2010-08-05T11:40:52+02:00</time>
          </trkpt>
          <trkpt lon="8.07028389" lat="50.38827515">
            <ele>155.956</ele>
            <time>2010-08-05T11:40:57+02:00</time>
          </trkpt>
          <trkpt lon="8.07022095" lat="50.3882637">
            <ele>156.059</ele>
            <time>2010-08-05T11:41:02+02:00</time>
          </trkpt>
          <trkpt lon="8.07015324" lat="50.38825226">
            <ele>155.738</ele>
            <time>2010-08-05T11:41:07+02:00</time>
          </trkpt>
          <trkpt lon="8.07008934" lat="50.38825989">
            <ele>154.607</ele>
            <time>2010-08-05T11:41:12+02:00</time>
          </trkpt>
          <trkpt lon="8.0700407" lat="50.38824081">
            <ele>154.196</ele>
            <time>2010-08-05T11:41:17+02:00</time>
          </trkpt>
          <trkpt lon="8.06997871" lat="50.38824844">
            <ele>154.651</ele>
            <time>2010-08-05T11:41:22+02:00</time>
          </trkpt>
          <trkpt lon="8.06993198" lat="50.38823318">
            <ele>155.063</ele>
            <time>2010-08-05T11:41:27+02:00</time>
          </trkpt>
          <trkpt lon="8.0699091" lat="50.38823318">
            <ele>154.844</ele>
            <time>2010-08-05T11:41:32+02:00</time>
          </trkpt>
          <trkpt lon="8.06990623" lat="50.38825226">
            <ele>155.211</ele>
            <time>2010-08-05T11:41:37+02:00</time>
          </trkpt>
          <trkpt lon="8.06989479" lat="50.38828659">
            <ele>156.128</ele>
            <time>2010-08-05T11:41:42+02:00</time>
          </trkpt>
          <trkpt lon="8.06984711" lat="50.38832474">
            <ele>156.381</ele>
            <time>2010-08-05T11:41:47+02:00</time>
          </trkpt>
          <trkpt lon="8.06971931" lat="50.38829041">
            <ele>155.071</ele>
            <time>2010-08-05T11:41:52+02:00</time>
          </trkpt>
          <trkpt lon="8.06959343" lat="50.38828278">
            <ele>152.568</ele>
            <time>2010-08-05T11:41:57+02:00</time>
          </trkpt>
          <trkpt lon="8.06948376" lat="50.38827896">
            <ele>151.644</ele>
            <time>2010-08-05T11:42:02+02:00</time>
          </trkpt>
          <trkpt lon="8.06939411" lat="50.3882637">
            <ele>151.103</ele>
            <time>2010-08-05T11:42:07+02:00</time>
          </trkpt>
          <trkpt lon="8.06932163" lat="50.38829803">
            <ele>151.124</ele>
            <time>2010-08-05T11:42:12+02:00</time>
          </trkpt>
          <trkpt lon="8.06923771" lat="50.38828659">
            <ele>150.638</ele>
            <time>2010-08-05T11:42:17+02:00</time>
          </trkpt>
          <trkpt lon="8.06913757" lat="50.38826752">
            <ele>149.212</ele>
            <time>2010-08-05T11:42:22+02:00</time>
          </trkpt>
          <trkpt lon="8.06907654" lat="50.38824844">
            <ele>148.355</ele>
            <time>2010-08-05T11:42:27+02:00</time>
          </trkpt>
          <trkpt lon="8.06904221" lat="50.38820267">
            <ele>148.743</ele>
            <time>2010-08-05T11:42:32+02:00</time>
          </trkpt>
          <trkpt lon="8.06903076" lat="50.388134">
            <ele>149.768</ele>
            <time>2010-08-05T11:42:37+02:00</time>
          </trkpt>
          <trkpt lon="8.06898975" lat="50.38808441">
            <ele>149.268</ele>
            <time>2010-08-05T11:42:42+02:00</time>
          </trkpt>
          <trkpt lon="8.06898499" lat="50.38807678">
            <ele>150.251</ele>
            <time>2010-08-05T11:42:47+02:00</time>
          </trkpt>
          <trkpt lon="8.06895828" lat="50.38801956">
            <ele>150.858</ele>
            <time>2010-08-05T11:42:52+02:00</time>
          </trkpt>
          <trkpt lon="8.06892109" lat="50.3879776">
            <ele>151.119</ele>
            <time>2010-08-05T11:42:57+02:00</time>
          </trkpt>
          <trkpt lon="8.06898403" lat="50.38792419">
            <ele>151.554</ele>
            <time>2010-08-05T11:43:02+02:00</time>
          </trkpt>
          <trkpt lon="8.06898594" lat="50.38789368">
            <ele>150.793</ele>
            <time>2010-08-05T11:43:07+02:00</time>
          </trkpt>
          <trkpt lon="8.0689497" lat="50.38779831">
            <ele>149.216</ele>
            <time>2010-08-05T11:43:12+02:00</time>
          </trkpt>
          <trkpt lon="8.06888771" lat="50.38769913">
            <ele>148.654</ele>
            <time>2010-08-05T11:43:17+02:00</time>
          </trkpt>
          <trkpt lon="8.06884193" lat="50.38768387">
            <ele>150.16</ele>
            <time>2010-08-05T11:43:22+02:00</time>
          </trkpt>
          <trkpt lon="8.06880569" lat="50.38768005">
            <ele>150.649</ele>
            <time>2010-08-05T11:43:27+02:00</time>
          </trkpt>
          <trkpt lon="8.06876659" lat="50.38773346">
            <ele>150.937</ele>
            <time>2010-08-05T11:43:32+02:00</time>
          </trkpt>
          <trkpt lon="8.06872177" lat="50.38775635">
            <ele>151.333</ele>
            <time>2010-08-05T11:43:37+02:00</time>
          </trkpt>
          <trkpt lon="8.06866646" lat="50.38777542">
            <ele>152.165</ele>
            <time>2010-08-05T11:43:42+02:00</time>
          </trkpt>
          <trkpt lon="8.06862164" lat="50.38779449">
            <ele>153.693</ele>
            <time>2010-08-05T11:43:47+02:00</time>
          </trkpt>
          <trkpt lon="8.06857586" lat="50.38779831">
            <ele>154.118</ele>
            <time>2010-08-05T11:43:52+02:00</time>
          </trkpt>
          <trkpt lon="8.06853962" lat="50.38780212">
            <ele>154.747</ele>
            <time>2010-08-05T11:43:57+02:00</time>
          </trkpt>
          <trkpt lon="8.06849575" lat="50.38780212">
            <ele>155.493</ele>
            <time>2010-08-05T11:44:02+02:00</time>
          </trkpt>
          <trkpt lon="8.06842041" lat="50.38777542">
            <ele>156.198</ele>
            <time>2010-08-05T11:44:07+02:00</time>
          </trkpt>
          <trkpt lon="8.06836319" lat="50.38775635">
            <ele>156.657</ele>
            <time>2010-08-05T11:44:12+02:00</time>
          </trkpt>
          <trkpt lon="8.06822491" lat="50.38773346">
            <ele>157.369</ele>
            <time>2010-08-05T11:44:17+02:00</time>
          </trkpt>
          <trkpt lon="8.06814671" lat="50.38779831">
            <ele>159.124</ele>
            <time>2010-08-05T11:44:22+02:00</time>
          </trkpt>
          <trkpt lon="8.06814384" lat="50.38783646">
            <ele>158.225</ele>
            <time>2010-08-05T11:44:27+02:00</time>
          </trkpt>
          <trkpt lon="8.06814575" lat="50.38784027">
            <ele>157.424</ele>
            <time>2010-08-05T11:44:32+02:00</time>
          </trkpt>
          <trkpt lon="8.0681839" lat="50.38779068">
            <ele>156.8</ele>
            <time>2010-08-05T11:44:37+02:00</time>
          </trkpt>
          <trkpt lon="8.06818962" lat="50.38779449">
            <ele>156.425</ele>
            <time>2010-08-05T11:44:42+02:00</time>
          </trkpt>
          <trkpt lon="8.06818485" lat="50.38779449">
            <ele>156.264</ele>
            <time>2010-08-05T11:44:47+02:00</time>
          </trkpt>
          <trkpt lon="8.06817055" lat="50.38780594">
            <ele>156.275</ele>
            <time>2010-08-05T11:44:52+02:00</time>
          </trkpt>
          <trkpt lon="8.06806755" lat="50.38793564">
            <ele>157.558</ele>
            <time>2010-08-05T11:44:57+02:00</time>
          </trkpt>
          <trkpt lon="8.06803036" lat="50.38792801">
            <ele>158.508</ele>
            <time>2010-08-05T11:45:02+02:00</time>
          </trkpt>
          <trkpt lon="8.06797409" lat="50.38796234">
            <ele>159.557</ele>
            <time>2010-08-05T11:45:07+02:00</time>
          </trkpt>
          <trkpt lon="8.06788158" lat="50.3879509">
            <ele>159.995</ele>
            <time>2010-08-05T11:45:12+02:00</time>
          </trkpt>
          <trkpt lon="8.06785583" lat="50.38795471">
            <ele>160.825</ele>
            <time>2010-08-05T11:45:17+02:00</time>
          </trkpt>
          <trkpt lon="8.06779957" lat="50.38801575">
            <ele>161.739</ele>
            <time>2010-08-05T11:45:22+02:00</time>
          </trkpt>
          <trkpt lon="8.06775284" lat="50.38805389">
            <ele>162.033</ele>
            <time>2010-08-05T11:45:27+02:00</time>
          </trkpt>
          <trkpt lon="8.06771564" lat="50.38806534">
            <ele>162.375</ele>
            <time>2010-08-05T11:45:32+02:00</time>
          </trkpt>
          <trkpt lon="8.06766319" lat="50.38809967">
            <ele>162.205</ele>
            <time>2010-08-05T11:45:37+02:00</time>
          </trkpt>
          <trkpt lon="8.06761074" lat="50.38812256">
            <ele>163.007</ele>
            <time>2010-08-05T11:45:42+02:00</time>
          </trkpt>
          <trkpt lon="8.06756878" lat="50.38813019">
            <ele>163.511</ele>
            <time>2010-08-05T11:45:47+02:00</time>
          </trkpt>
          <trkpt lon="8.06752014" lat="50.38816071">
            <ele>163.92</ele>
            <time>2010-08-05T11:45:52+02:00</time>
          </trkpt>
          <trkpt lon="8.06746101" lat="50.38813019">
            <ele>164.779</ele>
            <time>2010-08-05T11:45:57+02:00</time>
          </trkpt>
          <trkpt lon="8.06739616" lat="50.388134">
            <ele>165.252</ele>
            <time>2010-08-05T11:46:02+02:00</time>
          </trkpt>
          <trkpt lon="8.06733799" lat="50.38810349">
            <ele>165.192</ele>
            <time>2010-08-05T11:46:07+02:00</time>
          </trkpt>
          <trkpt lon="8.06730556" lat="50.38814545">
            <ele>166.108</ele>
            <time>2010-08-05T11:46:12+02:00</time>
          </trkpt>
          <trkpt lon="8.0672617" lat="50.38816071">
            <ele>167.408</ele>
            <time>2010-08-05T11:46:17+02:00</time>
          </trkpt>
          <trkpt lon="8.06723499" lat="50.38814163">
            <ele>170.001</ele>
            <time>2010-08-05T11:46:22+02:00</time>
          </trkpt>
          <trkpt lon="8.06715775" lat="50.38815689">
            <ele>171.208</ele>
            <time>2010-08-05T11:46:27+02:00</time>
          </trkpt>
          <trkpt lon="8.06710052" lat="50.38814163">
            <ele>172.24</ele>
            <time>2010-08-05T11:46:32+02:00</time>
          </trkpt>
          <trkpt lon="8.06704521" lat="50.38817978">
            <ele>173.144</ele>
            <time>2010-08-05T11:46:37+02:00</time>
          </trkpt>
          <trkpt lon="8.06700516" lat="50.38820267">
            <ele>174.312</ele>
            <time>2010-08-05T11:46:42+02:00</time>
          </trkpt>
          <trkpt lon="8.06699944" lat="50.38822174">
            <ele>175.5</ele>
            <time>2010-08-05T11:46:47+02:00</time>
          </trkpt>
          <trkpt lon="8.06702518" lat="50.38824844">
            <ele>176.791</ele>
            <time>2010-08-05T11:46:52+02:00</time>
          </trkpt>
          <trkpt lon="8.06706619" lat="50.38828659">
            <ele>178.438</ele>
            <time>2010-08-05T11:46:57+02:00</time>
          </trkpt>
          <trkpt lon="8.06709099" lat="50.38829803">
            <ele>179.447</ele>
            <time>2010-08-05T11:47:02+02:00</time>
          </trkpt>
          <trkpt lon="8.06713104" lat="50.38830566">
            <ele>180.233</ele>
            <time>2010-08-05T11:47:07+02:00</time>
          </trkpt>
          <trkpt lon="8.06715298" lat="50.38833618">
            <ele>181.366</ele>
            <time>2010-08-05T11:47:12+02:00</time>
          </trkpt>
          <trkpt lon="8.06711483" lat="50.38838959">
            <ele>182.557</ele>
            <time>2010-08-05T11:47:17+02:00</time>
          </trkpt>
          <trkpt lon="8.06712246" lat="50.38842773">
            <ele>183.535</ele>
            <time>2010-08-05T11:47:22+02:00</time>
          </trkpt>
          <trkpt lon="8.06711197" lat="50.38846588">
            <ele>184.335</ele>
            <time>2010-08-05T11:47:27+02:00</time>
          </trkpt>
          <trkpt lon="8.06716728" lat="50.38845444">
            <ele>186.39</ele>
            <time>2010-08-05T11:47:32+02:00</time>
          </trkpt>
          <trkpt lon="8.06714153" lat="50.38843536">
            <ele>187.982</ele>
            <time>2010-08-05T11:47:37+02:00</time>
          </trkpt>
          <trkpt lon="8.06714058" lat="50.3884201">
            <ele>188.292</ele>
            <time>2010-08-05T11:47:42+02:00</time>
          </trkpt>
          <trkpt lon="8.06715679" lat="50.38840866">
            <ele>188.571</ele>
            <time>2010-08-05T11:47:47+02:00</time>
          </trkpt>
          <trkpt lon="8.06719017" lat="50.38842773">
            <ele>188.762</ele>
            <time>2010-08-05T11:47:52+02:00</time>
          </trkpt>
          <trkpt lon="8.06721306" lat="50.38841629">
            <ele>189.213</ele>
            <time>2010-08-05T11:47:57+02:00</time>
          </trkpt>
          <trkpt lon="8.06727982" lat="50.38839722">
            <ele>190.682</ele>
            <time>2010-08-05T11:48:02+02:00</time>
          </trkpt>
          <trkpt lon="8.06730175" lat="50.38839722">
            <ele>190.922</ele>
            <time>2010-08-05T11:48:07+02:00</time>
          </trkpt>
          <trkpt lon="8.06730461" lat="50.3883934">
            <ele>191.398</ele>
            <time>2010-08-05T11:48:12+02:00</time>
          </trkpt>
          <trkpt lon="8.06730175" lat="50.38840103">
            <ele>191.575</ele>
            <time>2010-08-05T11:48:17+02:00</time>
          </trkpt>
          <trkpt lon="8.06732845" lat="50.38841629">
            <ele>190.618</ele>
            <time>2010-08-05T11:48:22+02:00</time>
          </trkpt>
          <trkpt lon="8.06733322" lat="50.3884201">
            <ele>190.536</ele>
            <time>2010-08-05T11:48:27+02:00</time>
          </trkpt>
          <trkpt lon="8.06733036" lat="50.38842392">
            <ele>190.481</ele>
            <time>2010-08-05T11:48:32+02:00</time>
          </trkpt>
          <trkpt lon="8.06733322" lat="50.38842773">
            <ele>190.483</ele>
            <time>2010-08-05T11:48:37+02:00</time>
          </trkpt>
          <trkpt lon="8.06733894" lat="50.38842773">
            <ele>190.504</ele>
            <time>2010-08-05T11:48:42+02:00</time>
          </trkpt>
          <trkpt lon="8.06737232" lat="50.38843536">
            <ele>191.157</ele>
            <time>2010-08-05T11:48:47+02:00</time>
          </trkpt>
          <trkpt lon="8.06740189" lat="50.38843918">
            <ele>191.14</ele>
            <time>2010-08-05T11:48:52+02:00</time>
          </trkpt>
          <trkpt lon="8.06742573" lat="50.38845825">
            <ele>190.944</ele>
            <time>2010-08-05T11:48:57+02:00</time>
          </trkpt>
          <trkpt lon="8.06745911" lat="50.38847351">
            <ele>190.748</ele>
            <time>2010-08-05T11:49:02+02:00</time>
          </trkpt>
          <trkpt lon="8.06747437" lat="50.38843536">
            <ele>190.782</ele>
            <time>2010-08-05T11:49:07+02:00</time>
          </trkpt>
          <trkpt lon="8.06750298" lat="50.3883934">
            <ele>190.738</ele>
            <time>2010-08-05T11:49:12+02:00</time>
          </trkpt>
          <trkpt lon="8.06752968" lat="50.38836288">
            <ele>190.735</ele>
            <time>2010-08-05T11:49:17+02:00</time>
          </trkpt>
          <trkpt lon="8.06754017" lat="50.38832474">
            <ele>190.386</ele>
            <time>2010-08-05T11:49:22+02:00</time>
          </trkpt>
          <trkpt lon="8.06749344" lat="50.38835144">
            <ele>190.676</ele>
            <time>2010-08-05T11:49:27+02:00</time>
          </trkpt>
          <trkpt lon="8.06747723" lat="50.38835526">
            <ele>190.831</ele>
            <time>2010-08-05T11:49:32+02:00</time>
          </trkpt>
          <trkpt lon="8.0674448" lat="50.3883667">
            <ele>190.841</ele>
            <time>2010-08-05T11:49:37+02:00</time>
          </trkpt>
          <trkpt lon="8.06738186" lat="50.38838959">
            <ele>190.801</ele>
            <time>2010-08-05T11:49:42+02:00</time>
          </trkpt>
          <trkpt lon="8.0673008" lat="50.3884201">
            <ele>190.784</ele>
            <time>2010-08-05T11:49:47+02:00</time>
          </trkpt>
          <trkpt lon="8.06718922" lat="50.38848495">
            <ele>190.66</ele>
            <time>2010-08-05T11:49:52+02:00</time>
          </trkpt>
          <trkpt lon="8.06712627" lat="50.38847733">
            <ele>190.299</ele>
            <time>2010-08-05T11:49:57+02:00</time>
          </trkpt>
          <trkpt lon="8.06702995" lat="50.38851929">
            <ele>190.047</ele>
            <time>2010-08-05T11:50:02+02:00</time>
          </trkpt>
          <trkpt lon="8.06696415" lat="50.38853836">
            <ele>189.921</ele>
            <time>2010-08-05T11:50:07+02:00</time>
          </trkpt>
          <trkpt lon="8.06688499" lat="50.38857651">
            <ele>189.897</ele>
            <time>2010-08-05T11:50:12+02:00</time>
          </trkpt>
          <trkpt lon="8.06680107" lat="50.38861847">
            <ele>189.68</ele>
            <time>2010-08-05T11:50:17+02:00</time>
          </trkpt>
          <trkpt lon="8.06673336" lat="50.38864136">
            <ele>189.44</ele>
            <time>2010-08-05T11:50:22+02:00</time>
          </trkpt>
          <trkpt lon="8.0664959" lat="50.3886528">
            <ele>188.819</ele>
            <time>2010-08-05T11:50:27+02:00</time>
          </trkpt>
          <trkpt lon="8.06643677" lat="50.38869095">
            <ele>188.746</ele>
            <time>2010-08-05T11:50:32+02:00</time>
          </trkpt>
          <trkpt lon="8.06638908" lat="50.38871765">
            <ele>188.631</ele>
            <time>2010-08-05T11:50:37+02:00</time>
          </trkpt>
          <trkpt lon="8.06634235" lat="50.38869858">
            <ele>188.159</ele>
            <time>2010-08-05T11:50:42+02:00</time>
          </trkpt>
          <trkpt lon="8.06634808" lat="50.38867188">
            <ele>188.288</ele>
            <time>2010-08-05T11:50:47+02:00</time>
          </trkpt>
          <trkpt lon="8.06633759" lat="50.38866806">
            <ele>188.26</ele>
            <time>2010-08-05T11:50:52+02:00</time>
          </trkpt>
          <trkpt lon="8.066329" lat="50.38867569">
            <ele>187.617</ele>
            <time>2010-08-05T11:50:57+02:00</time>
          </trkpt>
          <trkpt lon="8.06626987" lat="50.38873291">
            <ele>186.325</ele>
            <time>2010-08-05T11:51:02+02:00</time>
          </trkpt>
          <trkpt lon="8.06625366" lat="50.38874054">
            <ele>185.821</ele>
            <time>2010-08-05T11:51:07+02:00</time>
          </trkpt>
          <trkpt lon="8.06621075" lat="50.38874817">
            <ele>185.439</ele>
            <time>2010-08-05T11:51:12+02:00</time>
          </trkpt>
          <trkpt lon="8.0661459" lat="50.38877487">
            <ele>184.855</ele>
            <time>2010-08-05T11:51:17+02:00</time>
          </trkpt>
          <trkpt lon="8.06611061" lat="50.3887825">
            <ele>185.737</ele>
            <time>2010-08-05T11:51:22+02:00</time>
          </trkpt>
          <trkpt lon="8.06608677" lat="50.38875961">
            <ele>185.479</ele>
            <time>2010-08-05T11:51:27+02:00</time>
          </trkpt>
          <trkpt lon="8.06596375" lat="50.38880539">
            <ele>183.561</ele>
            <time>2010-08-05T11:51:32+02:00</time>
          </trkpt>
          <trkpt lon="8.06593609" lat="50.38881683">
            <ele>182.127</ele>
            <time>2010-08-05T11:51:37+02:00</time>
          </trkpt>
          <trkpt lon="8.06593704" lat="50.38881683">
            <ele>181.867</ele>
            <time>2010-08-05T11:51:42+02:00</time>
          </trkpt>
          <trkpt lon="8.06593704" lat="50.38881683">
            <ele>181.786</ele>
            <time>2010-08-05T11:51:47+02:00</time>
          </trkpt>
          <trkpt lon="8.06593704" lat="50.38881683">
            <ele>181.779</ele>
            <time>2010-08-05T11:51:52+02:00</time>
          </trkpt>
          <trkpt lon="8.06593704" lat="50.38881683">
            <ele>181.773</ele>
            <time>2010-08-05T11:51:57+02:00</time>
          </trkpt>
          <trkpt lon="8.06585789" lat="50.38884354">
            <ele>181.945</ele>
            <time>2010-08-05T11:52:02+02:00</time>
          </trkpt>
          <trkpt lon="8.06577587" lat="50.38887787">
            <ele>180.998</ele>
            <time>2010-08-05T11:52:07+02:00</time>
          </trkpt>
          <trkpt lon="8.0657177" lat="50.38889313">
            <ele>179.594</ele>
            <time>2010-08-05T11:52:12+02:00</time>
          </trkpt>
          <trkpt lon="8.06566238" lat="50.38888931">
            <ele>178.082</ele>
            <time>2010-08-05T11:52:17+02:00</time>
          </trkpt>
          <trkpt lon="8.06560802" lat="50.38893127">
            <ele>176.228</ele>
            <time>2010-08-05T11:52:22+02:00</time>
          </trkpt>
          <trkpt lon="8.06556988" lat="50.38899231">
            <ele>174.62</ele>
            <time>2010-08-05T11:52:27+02:00</time>
          </trkpt>
          <trkpt lon="8.06551933" lat="50.38906097">
            <ele>172.763</ele>
            <time>2010-08-05T11:52:32+02:00</time>
          </trkpt>
          <trkpt lon="8.06546021" lat="50.38907242">
            <ele>171.205</ele>
            <time>2010-08-05T11:52:37+02:00</time>
          </trkpt>
          <trkpt lon="8.0653801" lat="50.38903809">
            <ele>170.276</ele>
            <time>2010-08-05T11:52:42+02:00</time>
          </trkpt>
          <trkpt lon="8.06532288" lat="50.38898087">
            <ele>169.4</ele>
            <time>2010-08-05T11:52:47+02:00</time>
          </trkpt>
          <trkpt lon="8.06525707" lat="50.3890152">
            <ele>168.738</ele>
            <time>2010-08-05T11:52:52+02:00</time>
          </trkpt>
          <trkpt lon="8.06517982" lat="50.3890419">
            <ele>167.581</ele>
            <time>2010-08-05T11:52:57+02:00</time>
          </trkpt>
          <trkpt lon="8.06507874" lat="50.38905716">
            <ele>166.45</ele>
            <time>2010-08-05T11:53:02+02:00</time>
          </trkpt>
          <trkpt lon="8.06500816" lat="50.38904953">
            <ele>165.19</ele>
            <time>2010-08-05T11:53:07+02:00</time>
          </trkpt>
          <trkpt lon="8.06499004" lat="50.38894653">
            <ele>163.963</ele>
            <time>2010-08-05T11:53:12+02:00</time>
          </trkpt>
          <trkpt lon="8.06488991" lat="50.38900375">
            <ele>162.34</ele>
            <time>2010-08-05T11:53:17+02:00</time>
          </trkpt>
          <trkpt lon="8.06480026" lat="50.3890686">
            <ele>160.758</ele>
            <time>2010-08-05T11:53:22+02:00</time>
          </trkpt>
          <trkpt lon="8.06474495" lat="50.3891449">
            <ele>159.006</ele>
            <time>2010-08-05T11:53:27+02:00</time>
          </trkpt>
          <trkpt lon="8.0646534" lat="50.38917923">
            <ele>157.489</ele>
            <time>2010-08-05T11:53:32+02:00</time>
          </trkpt>
          <trkpt lon="8.06459904" lat="50.38921738">
            <ele>156.356</ele>
            <time>2010-08-05T11:53:37+02:00</time>
          </trkpt>
          <trkpt lon="8.06457996" lat="50.38924789">
            <ele>155.223</ele>
            <time>2010-08-05T11:53:42+02:00</time>
          </trkpt>
          <trkpt lon="8.06455994" lat="50.38927078">
            <ele>154.612</ele>
            <time>2010-08-05T11:53:47+02:00</time>
          </trkpt>
          <trkpt lon="8.06450558" lat="50.38927841">
            <ele>154.311</ele>
            <time>2010-08-05T11:53:52+02:00</time>
          </trkpt>
          <trkpt lon="8.0644846" lat="50.38925552">
            <ele>154.422</ele>
            <time>2010-08-05T11:53:57+02:00</time>
          </trkpt>
          <trkpt lon="8.06445312" lat="50.38924026">
            <ele>154.634</ele>
            <time>2010-08-05T11:54:02+02:00</time>
          </trkpt>
          <trkpt lon="8.06444263" lat="50.38923645">
            <ele>153.947</ele>
            <time>2010-08-05T11:54:07+02:00</time>
          </trkpt>
          <trkpt lon="8.06443977" lat="50.38922882">
            <ele>153.309</ele>
            <time>2010-08-05T11:54:12+02:00</time>
          </trkpt>
          <trkpt lon="8.06443691" lat="50.38922501">
            <ele>152.69</ele>
            <time>2010-08-05T11:54:17+02:00</time>
          </trkpt>
          <trkpt lon="8.06443501" lat="50.38921738">
            <ele>152.122</ele>
            <time>2010-08-05T11:54:22+02:00</time>
          </trkpt>
          <trkpt lon="8.06442928" lat="50.38920975">
            <ele>151.556</ele>
            <time>2010-08-05T11:54:27+02:00</time>
          </trkpt>
          <trkpt lon="8.06442356" lat="50.3891983">
            <ele>150.978</ele>
            <time>2010-08-05T11:54:32+02:00</time>
          </trkpt>
          <trkpt lon="8.0644207" lat="50.38919067">
            <ele>150.412</ele>
            <time>2010-08-05T11:54:37+02:00</time>
          </trkpt>
          <trkpt lon="8.06439114" lat="50.38912964">
            <ele>151.954</ele>
            <time>2010-08-05T11:54:42+02:00</time>
          </trkpt>
          <trkpt lon="8.06434917" lat="50.38895035">
            <ele>155.495</ele>
            <time>2010-08-05T11:54:47+02:00</time>
          </trkpt>
          <trkpt lon="8.06432915" lat="50.38883972">
            <ele>155.238</ele>
            <time>2010-08-05T11:54:52+02:00</time>
          </trkpt>
          <trkpt lon="8.06440258" lat="50.38877869">
            <ele>155.855</ele>
            <time>2010-08-05T11:54:57+02:00</time>
          </trkpt>
          <trkpt lon="8.06444454" lat="50.38875961">
            <ele>155.767</ele>
            <time>2010-08-05T11:55:02+02:00</time>
          </trkpt>
          <trkpt lon="8.06447887" lat="50.38870621">
            <ele>159.377</ele>
            <time>2010-08-05T11:55:07+02:00</time>
          </trkpt>
          <trkpt lon="8.06453228" lat="50.38866425">
            <ele>161.524</ele>
            <time>2010-08-05T11:55:12+02:00</time>
          </trkpt>
          <trkpt lon="8.06455708" lat="50.38864136">
            <ele>163.51</ele>
            <time>2010-08-05T11:55:17+02:00</time>
          </trkpt>
          <trkpt lon="8.06459141" lat="50.38860703">
            <ele>165.135</ele>
            <time>2010-08-05T11:55:22+02:00</time>
          </trkpt>
          <trkpt lon="8.06466961" lat="50.38858032">
            <ele>168.13</ele>
            <time>2010-08-05T11:55:27+02:00</time>
          </trkpt>
          <trkpt lon="8.06471539" lat="50.38853836">
            <ele>171.428</ele>
            <time>2010-08-05T11:55:32+02:00</time>
          </trkpt>
          <trkpt lon="8.06473064" lat="50.38847733">
            <ele>170.737</ele>
            <time>2010-08-05T11:55:37+02:00</time>
          </trkpt>
          <trkpt lon="8.06478691" lat="50.38844299">
            <ele>171.3</ele>
            <time>2010-08-05T11:55:42+02:00</time>
          </trkpt>
          <trkpt lon="8.06486893" lat="50.38843155">
            <ele>173.334</ele>
            <time>2010-08-05T11:55:47+02:00</time>
          </trkpt>
          <trkpt lon="8.06490993" lat="50.38840103">
            <ele>174.321</ele>
            <time>2010-08-05T11:55:52+02:00</time>
          </trkpt>
          <trkpt lon="8.06496906" lat="50.38838196">
            <ele>177.499</ele>
            <time>2010-08-05T11:55:57+02:00</time>
          </trkpt>
          <trkpt lon="8.06505489" lat="50.38838577">
            <ele>178.317</ele>
            <time>2010-08-05T11:56:02+02:00</time>
          </trkpt>
          <trkpt lon="8.06508064" lat="50.38835144">
            <ele>180.424</ele>
            <time>2010-08-05T11:56:07+02:00</time>
          </trkpt>
          <trkpt lon="8.06509876" lat="50.38829422">
            <ele>181.487</ele>
            <time>2010-08-05T11:56:12+02:00</time>
          </trkpt>
          <trkpt lon="8.065135" lat="50.38827515">
            <ele>182.88</ele>
            <time>2010-08-05T11:56:17+02:00</time>
          </trkpt>
          <trkpt lon="8.06506538" lat="50.38817596">
            <ele>184.688</ele>
            <time>2010-08-05T11:56:22+02:00</time>
          </trkpt>
          <trkpt lon="8.06505966" lat="50.38814163">
            <ele>186.1</ele>
            <time>2010-08-05T11:56:27+02:00</time>
          </trkpt>
          <trkpt lon="8.06512928" lat="50.38811874">
            <ele>188.161</ele>
            <time>2010-08-05T11:56:32+02:00</time>
          </trkpt>
          <trkpt lon="8.06520462" lat="50.38809204">
            <ele>190.725</ele>
            <time>2010-08-05T11:56:37+02:00</time>
          </trkpt>
          <trkpt lon="8.06527328" lat="50.38808441">
            <ele>192.365</ele>
            <time>2010-08-05T11:56:42+02:00</time>
          </trkpt>
          <trkpt lon="8.06532669" lat="50.38807297">
            <ele>193.64</ele>
            <time>2010-08-05T11:56:47+02:00</time>
          </trkpt>
          <trkpt lon="8.06538582" lat="50.38806152">
            <ele>195.313</ele>
            <time>2010-08-05T11:56:52+02:00</time>
          </trkpt>
          <trkpt lon="8.06540871" lat="50.38804626">
            <ele>194.96</ele>
            <time>2010-08-05T11:56:57+02:00</time>
          </trkpt>
          <trkpt lon="8.06552029" lat="50.38806915">
            <ele>193.491</ele>
            <time>2010-08-05T11:57:02+02:00</time>
          </trkpt>
          <trkpt lon="8.06559753" lat="50.3880806">
            <ele>191.857</ele>
            <time>2010-08-05T11:57:07+02:00</time>
          </trkpt>
          <trkpt lon="8.06566429" lat="50.38807678">
            <ele>191.292</ele>
            <time>2010-08-05T11:57:12+02:00</time>
          </trkpt>
          <trkpt lon="8.06564331" lat="50.38809967">
            <ele>191.496</ele>
            <time>2010-08-05T11:57:17+02:00</time>
          </trkpt>
          <trkpt lon="8.06566238" lat="50.38810349">
            <ele>191.823</ele>
            <time>2010-08-05T11:57:22+02:00</time>
          </trkpt>
          <trkpt lon="8.06567001" lat="50.38804245">
            <ele>194.401</ele>
            <time>2010-08-05T11:57:27+02:00</time>
          </trkpt>
          <trkpt lon="8.06569099" lat="50.38800812">
            <ele>197.176</ele>
            <time>2010-08-05T11:57:32+02:00</time>
          </trkpt>
          <trkpt lon="8.06572819" lat="50.38798141">
            <ele>196.33</ele>
            <time>2010-08-05T11:57:37+02:00</time>
          </trkpt>
          <trkpt lon="8.06581211" lat="50.3879776">
            <ele>194.853</ele>
            <time>2010-08-05T11:57:42+02:00</time>
          </trkpt>
          <trkpt lon="8.06582355" lat="50.3879776">
            <ele>195.284</ele>
            <time>2010-08-05T11:57:47+02:00</time>
          </trkpt>
          <trkpt lon="8.06583786" lat="50.38792801">
            <ele>196.827</ele>
            <time>2010-08-05T11:57:52+02:00</time>
          </trkpt>
          <trkpt lon="8.06585217" lat="50.38789368">
            <ele>197.055</ele>
            <time>2010-08-05T11:57:57+02:00</time>
          </trkpt>
          <trkpt lon="8.06588364" lat="50.38783264">
            <ele>197.071</ele>
            <time>2010-08-05T11:58:02+02:00</time>
          </trkpt>
          <trkpt lon="8.0658989" lat="50.38780212">
            <ele>197.211</ele>
            <time>2010-08-05T11:58:07+02:00</time>
          </trkpt>
          <trkpt lon="8.06589794" lat="50.38780212">
            <ele>197.316</ele>
            <time>2010-08-05T11:58:12+02:00</time>
          </trkpt>
          <trkpt lon="8.06595612" lat="50.38779068">
            <ele>198.616</ele>
            <time>2010-08-05T11:58:17+02:00</time>
          </trkpt>
          <trkpt lon="8.06598759" lat="50.38780975">
            <ele>200.317</ele>
            <time>2010-08-05T11:58:22+02:00</time>
          </trkpt>
          <trkpt lon="8.06599712" lat="50.38783264">
            <ele>203.13</ele>
            <time>2010-08-05T11:58:27+02:00</time>
          </trkpt>
          <trkpt lon="8.06591606" lat="50.38780975">
            <ele>205.651</ele>
            <time>2010-08-05T11:58:32+02:00</time>
          </trkpt>
          <trkpt lon="8.06582546" lat="50.38779831">
            <ele>207.876</ele>
            <time>2010-08-05T11:58:37+02:00</time>
          </trkpt>
          <trkpt lon="8.06578255" lat="50.38779449">
            <ele>209.382</ele>
            <time>2010-08-05T11:58:42+02:00</time>
          </trkpt>
          <trkpt lon="8.06586456" lat="50.38777924">
            <ele>212.474</ele>
            <time>2010-08-05T11:58:47+02:00</time>
          </trkpt>
          <trkpt lon="8.06592464" lat="50.38772964">
            <ele>218.782</ele>
            <time>2010-08-05T11:58:52+02:00</time>
          </trkpt>
          <trkpt lon="8.06597424" lat="50.38771439">
            <ele>222.697</ele>
            <time>2010-08-05T11:58:57+02:00</time>
          </trkpt>
          <trkpt lon="8.06599712" lat="50.38769913">
            <ele>226.061</ele>
            <time>2010-08-05T11:59:02+02:00</time>
          </trkpt>
          <trkpt lon="8.0659771" lat="50.38765717">
            <ele>229.231</ele>
            <time>2010-08-05T11:59:07+02:00</time>
          </trkpt>
          <trkpt lon="8.06598282" lat="50.38759232">
            <ele>232.289</ele>
            <time>2010-08-05T11:59:12+02:00</time>
          </trkpt>
          <trkpt lon="8.06605625" lat="50.38748169">
            <ele>235.689</ele>
            <time>2010-08-05T11:59:17+02:00</time>
          </trkpt>
          <trkpt lon="8.06606388" lat="50.3874054">
            <ele>238.673</ele>
            <time>2010-08-05T11:59:22+02:00</time>
          </trkpt>
          <trkpt lon="8.06585121" lat="50.38708878">
            <ele>239.562</ele>
            <time>2010-08-05T11:59:27+02:00</time>
          </trkpt>
          <trkpt lon="8.06585503" lat="50.38702011">
            <ele>240.823</ele>
            <time>2010-08-05T11:59:32+02:00</time>
          </trkpt>
          <trkpt lon="8.06589794" lat="50.38697433">
            <ele>241.988</ele>
            <time>2010-08-05T11:59:37+02:00</time>
          </trkpt>
          <trkpt lon="8.06591892" lat="50.38694">
            <ele>243.174</ele>
            <time>2010-08-05T11:59:42+02:00</time>
          </trkpt>
          <trkpt lon="8.06591892" lat="50.38690948">
            <ele>244.185</ele>
            <time>2010-08-05T11:59:47+02:00</time>
          </trkpt>
          <trkpt lon="8.0658989" lat="50.38690567">
            <ele>244.07</ele>
            <time>2010-08-05T11:59:52+02:00</time>
          </trkpt>
          <trkpt lon="8.06587315" lat="50.38689041">
            <ele>244.395</ele>
            <time>2010-08-05T11:59:57+02:00</time>
          </trkpt>
          <trkpt lon="8.06585693" lat="50.3868866">
            <ele>244.397</ele>
            <time>2010-08-05T12:00:02+02:00</time>
          </trkpt>
          <trkpt lon="8.06575298" lat="50.38681412">
            <ele>244.218</ele>
            <time>2010-08-05T12:00:07+02:00</time>
          </trkpt>
          <trkpt lon="8.06572628" lat="50.3867836">
            <ele>244.338</ele>
            <time>2010-08-05T12:00:12+02:00</time>
          </trkpt>
          <trkpt lon="8.06572437" lat="50.38677216">
            <ele>244.438</ele>
            <time>2010-08-05T12:00:17+02:00</time>
          </trkpt>
          <trkpt lon="8.06568813" lat="50.38675308">
            <ele>244.505</ele>
            <time>2010-08-05T12:00:22+02:00</time>
          </trkpt>
          <trkpt lon="8.06578636" lat="50.3867836">
            <ele>243.47</ele>
            <time>2010-08-05T12:00:27+02:00</time>
          </trkpt>
          <trkpt lon="8.06580257" lat="50.38679123">
            <ele>243.293</ele>
            <time>2010-08-05T12:00:32+02:00</time>
          </trkpt>
          <trkpt lon="8.06580067" lat="50.3867836">
            <ele>242.517</ele>
            <time>2010-08-05T12:00:37+02:00</time>
          </trkpt>
          <trkpt lon="8.06577969" lat="50.38677216">
            <ele>241.544</ele>
            <time>2010-08-05T12:00:42+02:00</time>
          </trkpt>
          <trkpt lon="8.06556225" lat="50.38664246">
            <ele>239.44</ele>
            <time>2010-08-05T12:00:47+02:00</time>
          </trkpt>
          <trkpt lon="8.06559467" lat="50.3866272">
            <ele>237.618</ele>
            <time>2010-08-05T12:00:52+02:00</time>
          </trkpt>
          <trkpt lon="8.06566715" lat="50.38657379">
            <ele>237.511</ele>
            <time>2010-08-05T12:00:57+02:00</time>
          </trkpt>
          <trkpt lon="8.06571579" lat="50.3865509">
            <ele>238.028</ele>
            <time>2010-08-05T12:01:02+02:00</time>
          </trkpt>
          <trkpt lon="8.06573868" lat="50.3865509">
            <ele>237.932</ele>
            <time>2010-08-05T12:01:07+02:00</time>
          </trkpt>
          <trkpt lon="8.06575584" lat="50.38653564">
            <ele>237.659</ele>
            <time>2010-08-05T12:01:12+02:00</time>
          </trkpt>
          <trkpt lon="8.06577682" lat="50.38643265">
            <ele>237.165</ele>
            <time>2010-08-05T12:01:17+02:00</time>
          </trkpt>
          <trkpt lon="8.06579113" lat="50.38637924">
            <ele>238.204</ele>
            <time>2010-08-05T12:01:22+02:00</time>
          </trkpt>
          <trkpt lon="8.06580544" lat="50.38636017">
            <ele>238.713</ele>
            <time>2010-08-05T12:01:27+02:00</time>
          </trkpt>
          <trkpt lon="8.0658617" lat="50.38633347">
            <ele>239.028</ele>
            <time>2010-08-05T12:01:32+02:00</time>
          </trkpt>
          <trkpt lon="8.06589794" lat="50.38631058">
            <ele>239.558</ele>
            <time>2010-08-05T12:01:37+02:00</time>
          </trkpt>
          <trkpt lon="8.06587124" lat="50.38632584">
            <ele>240.368</ele>
            <time>2010-08-05T12:01:42+02:00</time>
          </trkpt>
          <trkpt lon="8.06589985" lat="50.38628006">
            <ele>240.903</ele>
            <time>2010-08-05T12:01:47+02:00</time>
          </trkpt>
          <trkpt lon="8.06589603" lat="50.38628006">
            <ele>241.261</ele>
            <time>2010-08-05T12:01:52+02:00</time>
          </trkpt>
          <trkpt lon="8.06586933" lat="50.38624954">
            <ele>241.154</ele>
            <time>2010-08-05T12:01:57+02:00</time>
          </trkpt>
          <trkpt lon="8.06586742" lat="50.38624954">
            <ele>240.891</ele>
            <time>2010-08-05T12:02:02+02:00</time>
          </trkpt>
          <trkpt lon="8.06585217" lat="50.38625717">
            <ele>240.9</ele>
            <time>2010-08-05T12:02:07+02:00</time>
          </trkpt>
          <trkpt lon="8.06589413" lat="50.38623047">
            <ele>240.752</ele>
            <time>2010-08-05T12:02:12+02:00</time>
          </trkpt>
          <trkpt lon="8.06596184" lat="50.38618469">
            <ele>240.928</ele>
            <time>2010-08-05T12:02:17+02:00</time>
          </trkpt>
          <trkpt lon="8.06609535" lat="50.38618851">
            <ele>241.088</ele>
            <time>2010-08-05T12:02:22+02:00</time>
          </trkpt>
          <trkpt lon="8.06624699" lat="50.38620758">
            <ele>241.261</ele>
            <time>2010-08-05T12:02:27+02:00</time>
          </trkpt>
          <trkpt lon="8.06639957" lat="50.38628387">
            <ele>241.341</ele>
            <time>2010-08-05T12:02:32+02:00</time>
          </trkpt>
          <trkpt lon="8.06646061" lat="50.38628769">
            <ele>240.857</ele>
            <time>2010-08-05T12:02:37+02:00</time>
          </trkpt>
          <trkpt lon="8.06650352" lat="50.38628769">
            <ele>241.143</ele>
            <time>2010-08-05T12:02:42+02:00</time>
          </trkpt>
          <trkpt lon="8.06700134" lat="50.38611221">
            <ele>240.561</ele>
            <time>2010-08-05T12:02:47+02:00</time>
          </trkpt>
          <trkpt lon="8.06695366" lat="50.38581085">
            <ele>240.075</ele>
            <time>2010-08-05T12:02:52+02:00</time>
          </trkpt>
          <trkpt lon="8.0668869" lat="50.38573837">
            <ele>239.555</ele>
            <time>2010-08-05T12:02:57+02:00</time>
          </trkpt>
          <trkpt lon="8.0669117" lat="50.38563919">
            <ele>239.211</ele>
            <time>2010-08-05T12:03:02+02:00</time>
          </trkpt>
          <trkpt lon="8.06684589" lat="50.38566971">
            <ele>239.078</ele>
            <time>2010-08-05T12:03:07+02:00</time>
          </trkpt>
          <trkpt lon="8.06676102" lat="50.38556671">
            <ele>237.692</ele>
            <time>2010-08-05T12:03:12+02:00</time>
          </trkpt>
          <trkpt lon="8.06669044" lat="50.38554001">
            <ele>236.922</ele>
            <time>2010-08-05T12:03:17+02:00</time>
          </trkpt>
          <trkpt lon="8.06661129" lat="50.38553238">
            <ele>236.136</ele>
            <time>2010-08-05T12:03:22+02:00</time>
          </trkpt>
          <trkpt lon="8.066535" lat="50.38552856">
            <ele>235.455</ele>
            <time>2010-08-05T12:03:27+02:00</time>
          </trkpt>
          <trkpt lon="8.06645203" lat="50.38557816">
            <ele>235.312</ele>
            <time>2010-08-05T12:03:32+02:00</time>
          </trkpt>
          <trkpt lon="8.06639481" lat="50.38561249">
            <ele>235.289</ele>
            <time>2010-08-05T12:03:37+02:00</time>
          </trkpt>
          <trkpt lon="8.06632614" lat="50.38565826">
            <ele>235.272</ele>
            <time>2010-08-05T12:03:42+02:00</time>
          </trkpt>
          <trkpt lon="8.0662384" lat="50.38568497">
            <ele>235.244</ele>
            <time>2010-08-05T12:03:47+02:00</time>
          </trkpt>
          <trkpt lon="8.06615257" lat="50.38565063">
            <ele>234.992</ele>
            <time>2010-08-05T12:03:52+02:00</time>
          </trkpt>
          <trkpt lon="8.06607056" lat="50.38563919">
            <ele>234.637</ele>
            <time>2010-08-05T12:03:57+02:00</time>
          </trkpt>
          <trkpt lon="8.06600094" lat="50.38566971">
            <ele>234.529</ele>
            <time>2010-08-05T12:04:02+02:00</time>
          </trkpt>
          <trkpt lon="8.06593227" lat="50.38568115">
            <ele>234.256</ele>
            <time>2010-08-05T12:04:07+02:00</time>
          </trkpt>
          <trkpt lon="8.06585693" lat="50.38570786">
            <ele>234.168</ele>
            <time>2010-08-05T12:04:12+02:00</time>
          </trkpt>
          <trkpt lon="8.06577778" lat="50.38572693">
            <ele>233.828</ele>
            <time>2010-08-05T12:04:17+02:00</time>
          </trkpt>
          <trkpt lon="8.0656786" lat="50.38568497">
            <ele>232.863</ele>
            <time>2010-08-05T12:04:22+02:00</time>
          </trkpt>
          <trkpt lon="8.06562614" lat="50.3856926">
            <ele>232.685</ele>
            <time>2010-08-05T12:04:27+02:00</time>
          </trkpt>
          <trkpt lon="8.06560135" lat="50.38562775">
            <ele>231.743</ele>
            <time>2010-08-05T12:04:32+02:00</time>
          </trkpt>
          <trkpt lon="8.06556034" lat="50.38554382">
            <ele>231.36</ele>
            <time>2010-08-05T12:04:37+02:00</time>
          </trkpt>
          <trkpt lon="8.06551456" lat="50.38550949">
            <ele>231.348</ele>
            <time>2010-08-05T12:04:42+02:00</time>
          </trkpt>
          <trkpt lon="8.06544685" lat="50.38547134">
            <ele>231.066</ele>
            <time>2010-08-05T12:04:47+02:00</time>
          </trkpt>
          <trkpt lon="8.06536388" lat="50.38520813">
            <ele>230.507</ele>
            <time>2010-08-05T12:04:52+02:00</time>
          </trkpt>
          <trkpt lon="8.06529522" lat="50.38506317">
            <ele>229.771</ele>
            <time>2010-08-05T12:04:57+02:00</time>
          </trkpt>
          <trkpt lon="8.06518078" lat="50.38504028">
            <ele>229.027</ele>
            <time>2010-08-05T12:05:02+02:00</time>
          </trkpt>
          <trkpt lon="8.06511784" lat="50.38500977">
            <ele>228.361</ele>
            <time>2010-08-05T12:05:07+02:00</time>
          </trkpt>
          <trkpt lon="8.06515121" lat="50.3847847">
            <ele>227.305</ele>
            <time>2010-08-05T12:05:12+02:00</time>
          </trkpt>
          <trkpt lon="8.06507969" lat="50.38469315">
            <ele>226.41</ele>
            <time>2010-08-05T12:05:17+02:00</time>
          </trkpt>
          <trkpt lon="8.06499386" lat="50.38461304">
            <ele>225.531</ele>
            <time>2010-08-05T12:05:22+02:00</time>
          </trkpt>
          <trkpt lon="8.06494808" lat="50.38462448">
            <ele>225.001</ele>
            <time>2010-08-05T12:05:27+02:00</time>
          </trkpt>
          <trkpt lon="8.06486988" lat="50.38454819">
            <ele>223.935</ele>
            <time>2010-08-05T12:05:32+02:00</time>
          </trkpt>
          <trkpt lon="8.06480122" lat="50.384552">
            <ele>222.245</ele>
            <time>2010-08-05T12:05:37+02:00</time>
          </trkpt>
          <trkpt lon="8.06454563" lat="50.38468552">
            <ele>219.559</ele>
            <time>2010-08-05T12:05:42+02:00</time>
          </trkpt>
          <trkpt lon="8.0644722" lat="50.38471603">
            <ele>218.354</ele>
            <time>2010-08-05T12:05:47+02:00</time>
          </trkpt>
          <trkpt lon="8.06438446" lat="50.38478088">
            <ele>216.897</ele>
            <time>2010-08-05T12:05:52+02:00</time>
          </trkpt>
          <trkpt lon="8.06428814" lat="50.38484192">
            <ele>215.451</ele>
            <time>2010-08-05T12:05:57+02:00</time>
          </trkpt>
          <trkpt lon="8.06414223" lat="50.38489914">
            <ele>213.837</ele>
            <time>2010-08-05T12:06:02+02:00</time>
          </trkpt>
          <trkpt lon="8.06410694" lat="50.38490677">
            <ele>213.53</ele>
            <time>2010-08-05T12:06:07+02:00</time>
          </trkpt>
          <trkpt lon="8.06403732" lat="50.38488388">
            <ele>212.78</ele>
            <time>2010-08-05T12:06:12+02:00</time>
          </trkpt>
          <trkpt lon="8.06393814" lat="50.38483429">
            <ele>211.687</ele>
            <time>2010-08-05T12:06:17+02:00</time>
          </trkpt>
          <trkpt lon="8.06373596" lat="50.38489914">
            <ele>210.699</ele>
            <time>2010-08-05T12:06:22+02:00</time>
          </trkpt>
          <trkpt lon="8.06367111" lat="50.38486862">
            <ele>208.058</ele>
            <time>2010-08-05T12:06:27+02:00</time>
          </trkpt>
          <trkpt lon="8.063591" lat="50.38486481">
            <ele>204.608</ele>
            <time>2010-08-05T12:06:32+02:00</time>
          </trkpt>
          <trkpt lon="8.06349659" lat="50.38488388">
            <ele>202.131</ele>
            <time>2010-08-05T12:06:37+02:00</time>
          </trkpt>
          <trkpt lon="8.06335545" lat="50.38497162">
            <ele>199.863</ele>
            <time>2010-08-05T12:06:42+02:00</time>
          </trkpt>
          <trkpt lon="8.06328583" lat="50.38498306">
            <ele>197.696</ele>
            <time>2010-08-05T12:06:47+02:00</time>
          </trkpt>
          <trkpt lon="8.063241" lat="50.38499451">
            <ele>195.265</ele>
            <time>2010-08-05T12:06:52+02:00</time>
          </trkpt>
          <trkpt lon="8.06323528" lat="50.38500977">
            <ele>193.697</ele>
            <time>2010-08-05T12:06:57+02:00</time>
          </trkpt>
          <trkpt lon="8.06322956" lat="50.38498688">
            <ele>192.636</ele>
            <time>2010-08-05T12:07:02+02:00</time>
          </trkpt>
          <trkpt lon="8.06321335" lat="50.38499069">
            <ele>191.676</ele>
            <time>2010-08-05T12:07:07+02:00</time>
          </trkpt>
          <trkpt lon="8.06317043" lat="50.38501358">
            <ele>190.954</ele>
            <time>2010-08-05T12:07:12+02:00</time>
          </trkpt>
          <trkpt lon="8.06311703" lat="50.38502121">
            <ele>191.696</ele>
            <time>2010-08-05T12:07:17+02:00</time>
          </trkpt>
          <trkpt lon="8.06305408" lat="50.38500214">
            <ele>193.659</ele>
            <time>2010-08-05T12:07:22+02:00</time>
          </trkpt>
          <trkpt lon="8.06299019" lat="50.38497925">
            <ele>196.246</ele>
            <time>2010-08-05T12:07:27+02:00</time>
          </trkpt>
          <trkpt lon="8.06292534" lat="50.38499069">
            <ele>197.064</ele>
            <time>2010-08-05T12:07:32+02:00</time>
          </trkpt>
          <trkpt lon="8.06284332" lat="50.38503647">
            <ele>197.108</ele>
            <time>2010-08-05T12:07:37+02:00</time>
          </trkpt>
          <trkpt lon="8.06275463" lat="50.38510132">
            <ele>197.516</ele>
            <time>2010-08-05T12:07:42+02:00</time>
          </trkpt>
          <trkpt lon="8.0626812" lat="50.38511658">
            <ele>198.987</ele>
            <time>2010-08-05T12:07:47+02:00</time>
          </trkpt>
          <trkpt lon="8.06261158" lat="50.38513565">
            <ele>200.58</ele>
            <time>2010-08-05T12:07:52+02:00</time>
          </trkpt>
          <trkpt lon="8.06255054" lat="50.38513947">
            <ele>202.621</ele>
            <time>2010-08-05T12:07:57+02:00</time>
          </trkpt>
          <trkpt lon="8.06250477" lat="50.38512802">
            <ele>205.758</ele>
            <time>2010-08-05T12:08:02+02:00</time>
          </trkpt>
          <trkpt lon="8.06246853" lat="50.38515091">
            <ele>208.189</ele>
            <time>2010-08-05T12:08:07+02:00</time>
          </trkpt>
          <trkpt lon="8.06240082" lat="50.38515854">
            <ele>210.322</ele>
            <time>2010-08-05T12:08:12+02:00</time>
          </trkpt>
          <trkpt lon="8.06234169" lat="50.38514328">
            <ele>212.407</ele>
            <time>2010-08-05T12:08:17+02:00</time>
          </trkpt>
          <trkpt lon="8.0622921" lat="50.38516235">
            <ele>214.67</ele>
            <time>2010-08-05T12:08:22+02:00</time>
          </trkpt>
          <trkpt lon="8.06226444" lat="50.38521576">
            <ele>216.668</ele>
            <time>2010-08-05T12:08:27+02:00</time>
          </trkpt>
          <trkpt lon="8.06223774" lat="50.38526917">
            <ele>218.32</ele>
            <time>2010-08-05T12:08:32+02:00</time>
          </trkpt>
          <trkpt lon="8.06221581" lat="50.38535309">
            <ele>220.036</ele>
            <time>2010-08-05T12:08:37+02:00</time>
          </trkpt>
          <trkpt lon="8.06221199" lat="50.38534927">
            <ele>221.179</ele>
            <time>2010-08-05T12:08:42+02:00</time>
          </trkpt>
          <trkpt lon="8.06219292" lat="50.38536835">
            <ele>223.712</ele>
            <time>2010-08-05T12:08:47+02:00</time>
          </trkpt>
          <trkpt lon="8.0621624" lat="50.38539124">
            <ele>223.338</ele>
            <time>2010-08-05T12:08:52+02:00</time>
          </trkpt>
          <trkpt lon="8.06210613" lat="50.38540268">
            <ele>224.212</ele>
            <time>2010-08-05T12:08:57+02:00</time>
          </trkpt>
          <trkpt lon="8.06204891" lat="50.3854332">
            <ele>224.762</ele>
            <time>2010-08-05T12:09:02+02:00</time>
          </trkpt>
          <trkpt lon="8.0619812" lat="50.38550186">
            <ele>225.335</ele>
            <time>2010-08-05T12:09:07+02:00</time>
          </trkpt>
          <trkpt lon="8.06192303" lat="50.38553619">
            <ele>225.56</ele>
            <time>2010-08-05T12:09:12+02:00</time>
          </trkpt>
          <trkpt lon="8.06187439" lat="50.38553619">
            <ele>225.272</ele>
            <time>2010-08-05T12:09:17+02:00</time>
          </trkpt>
          <trkpt lon="8.06184483" lat="50.38555527">
            <ele>225.009</ele>
            <time>2010-08-05T12:09:22+02:00</time>
          </trkpt>
          <trkpt lon="8.06179619" lat="50.38558197">
            <ele>224.68</ele>
            <time>2010-08-05T12:09:27+02:00</time>
          </trkpt>
          <trkpt lon="8.06171608" lat="50.38559723">
            <ele>224.256</ele>
            <time>2010-08-05T12:09:32+02:00</time>
          </trkpt>
          <trkpt lon="8.06162834" lat="50.38565826">
            <ele>223.918</ele>
            <time>2010-08-05T12:09:37+02:00</time>
          </trkpt>
          <trkpt lon="8.06153107" lat="50.38573456">
            <ele>223.847</ele>
            <time>2010-08-05T12:09:42+02:00</time>
          </trkpt>
          <trkpt lon="8.06143188" lat="50.38574982">
            <ele>224.324</ele>
            <time>2010-08-05T12:09:47+02:00</time>
          </trkpt>
          <trkpt lon="8.06132984" lat="50.3857193">
            <ele>224.081</ele>
            <time>2010-08-05T12:09:52+02:00</time>
          </trkpt>
          <trkpt lon="8.06125069" lat="50.38566589">
            <ele>223.744</ele>
            <time>2010-08-05T12:09:57+02:00</time>
          </trkpt>
          <trkpt lon="8.06114864" lat="50.38569641">
            <ele>222.776</ele>
            <time>2010-08-05T12:10:02+02:00</time>
          </trkpt>
          <trkpt lon="8.06105614" lat="50.38572311">
            <ele>221.991</ele>
            <time>2010-08-05T12:10:07+02:00</time>
          </trkpt>
          <trkpt lon="8.06096172" lat="50.38575363">
            <ele>220.501</ele>
            <time>2010-08-05T12:10:12+02:00</time>
          </trkpt>
          <trkpt lon="8.06094265" lat="50.38574219">
            <ele>219.663</ele>
            <time>2010-08-05T12:10:17+02:00</time>
          </trkpt>
          <trkpt lon="8.06085968" lat="50.38575363">
            <ele>218.908</ele>
            <time>2010-08-05T12:10:22+02:00</time>
          </trkpt>
          <trkpt lon="8.06072807" lat="50.38579941">
            <ele>217.585</ele>
            <time>2010-08-05T12:10:27+02:00</time>
          </trkpt>
          <trkpt lon="8.06062698" lat="50.38583755">
            <ele>216.234</ele>
            <time>2010-08-05T12:10:32+02:00</time>
          </trkpt>
          <trkpt lon="8.06056118" lat="50.38585281">
            <ele>215.371</ele>
            <time>2010-08-05T12:10:37+02:00</time>
          </trkpt>
          <trkpt lon="8.06050396" lat="50.3858757">
            <ele>214.883</ele>
            <time>2010-08-05T12:10:42+02:00</time>
          </trkpt>
          <trkpt lon="8.06043816" lat="50.38592911">
            <ele>214.565</ele>
            <time>2010-08-05T12:10:47+02:00</time>
          </trkpt>
          <trkpt lon="8.06037712" lat="50.38599396">
            <ele>214.455</ele>
            <time>2010-08-05T12:10:52+02:00</time>
          </trkpt>
          <trkpt lon="8.06029034" lat="50.38607788">
            <ele>214.088</ele>
            <time>2010-08-05T12:10:57+02:00</time>
          </trkpt>
          <trkpt lon="8.06019211" lat="50.3861084">
            <ele>214.322</ele>
            <time>2010-08-05T12:11:02+02:00</time>
          </trkpt>
          <trkpt lon="8.06014061" lat="50.38610077">
            <ele>215.148</ele>
            <time>2010-08-05T12:11:07+02:00</time>
          </trkpt>
          <trkpt lon="8.06007576" lat="50.38609314">
            <ele>215.718</ele>
            <time>2010-08-05T12:11:12+02:00</time>
          </trkpt>
          <trkpt lon="8.05998898" lat="50.38610458">
            <ele>216.294</ele>
            <time>2010-08-05T12:11:17+02:00</time>
          </trkpt>
          <trkpt lon="8.05992603" lat="50.3861084">
            <ele>216.144</ele>
            <time>2010-08-05T12:11:22+02:00</time>
          </trkpt>
          <trkpt lon="8.05984306" lat="50.38610077">
            <ele>215.572</ele>
            <time>2010-08-05T12:11:27+02:00</time>
          </trkpt>
          <trkpt lon="8.05970669" lat="50.38608932">
            <ele>214.544</ele>
            <time>2010-08-05T12:11:32+02:00</time>
          </trkpt>
          <trkpt lon="8.05959797" lat="50.38610077">
            <ele>213.803</ele>
            <time>2010-08-05T12:11:37+02:00</time>
          </trkpt>
          <trkpt lon="8.05945301" lat="50.38612747">
            <ele>212.861</ele>
            <time>2010-08-05T12:11:42+02:00</time>
          </trkpt>
          <trkpt lon="8.05937481" lat="50.38613129">
            <ele>212.622</ele>
            <time>2010-08-05T12:11:47+02:00</time>
          </trkpt>
          <trkpt lon="8.05932426" lat="50.3861351">
            <ele>211.855</ele>
            <time>2010-08-05T12:11:52+02:00</time>
          </trkpt>
          <trkpt lon="8.05924225" lat="50.3860817">
            <ele>210.956</ele>
            <time>2010-08-05T12:11:57+02:00</time>
          </trkpt>
          <trkpt lon="8.05920029" lat="50.38605881">
            <ele>209.951</ele>
            <time>2010-08-05T12:12:02+02:00</time>
          </trkpt>
          <trkpt lon="8.05916882" lat="50.38604736">
            <ele>208.967</ele>
            <time>2010-08-05T12:12:07+02:00</time>
          </trkpt>
          <trkpt lon="8.05916882" lat="50.38600159">
            <ele>207.719</ele>
            <time>2010-08-05T12:12:12+02:00</time>
          </trkpt>
          <trkpt lon="8.05904865" lat="50.3860321">
            <ele>206.147</ele>
            <time>2010-08-05T12:12:17+02:00</time>
          </trkpt>
          <trkpt lon="8.05893993" lat="50.38607407">
            <ele>204.639</ele>
            <time>2010-08-05T12:12:22+02:00</time>
          </trkpt>
          <trkpt lon="8.05890942" lat="50.38607407">
            <ele>204.138</ele>
            <time>2010-08-05T12:12:27+02:00</time>
          </trkpt>
          <trkpt lon="8.05890274" lat="50.38606644">
            <ele>203.912</ele>
            <time>2010-08-05T12:12:32+02:00</time>
          </trkpt>
          <trkpt lon="8.05889416" lat="50.38607025">
            <ele>203.815</ele>
            <time>2010-08-05T12:12:37+02:00</time>
          </trkpt>
          <trkpt lon="8.05885506" lat="50.38603592">
            <ele>203.238</ele>
            <time>2010-08-05T12:12:42+02:00</time>
          </trkpt>
          <trkpt lon="8.05880165" lat="50.38596344">
            <ele>200.714</ele>
            <time>2010-08-05T12:12:47+02:00</time>
          </trkpt>
          <trkpt lon="8.05877018" lat="50.38598633">
            <ele>198.962</ele>
            <time>2010-08-05T12:12:52+02:00</time>
          </trkpt>
          <trkpt lon="8.05879688" lat="50.38602829">
            <ele>199.262</ele>
            <time>2010-08-05T12:12:57+02:00</time>
          </trkpt>
          <trkpt lon="8.05887699" lat="50.38609314">
            <ele>196.772</ele>
            <time>2010-08-05T12:13:02+02:00</time>
          </trkpt>
          <trkpt lon="8.05883026" lat="50.38611984">
            <ele>196.399</ele>
            <time>2010-08-05T12:13:07+02:00</time>
          </trkpt>
          <trkpt lon="8.05875492" lat="50.38616562">
            <ele>196.566</ele>
            <time>2010-08-05T12:13:12+02:00</time>
          </trkpt>
          <trkpt lon="8.05867004" lat="50.3862381">
            <ele>196.715</ele>
            <time>2010-08-05T12:13:17+02:00</time>
          </trkpt>
          <trkpt lon="8.05854511" lat="50.38635254">
            <ele>196.733</ele>
            <time>2010-08-05T12:13:22+02:00</time>
          </trkpt>
          <trkpt lon="8.05844975" lat="50.38646317">
            <ele>197.022</ele>
            <time>2010-08-05T12:13:27+02:00</time>
          </trkpt>
          <trkpt lon="8.05838108" lat="50.3865509">
            <ele>197.449</ele>
            <time>2010-08-05T12:13:32+02:00</time>
          </trkpt>
          <trkpt lon="8.058321" lat="50.38662338">
            <ele>197.636</ele>
            <time>2010-08-05T12:13:37+02:00</time>
          </trkpt>
          <trkpt lon="8.05823708" lat="50.38666153">
            <ele>197.678</ele>
            <time>2010-08-05T12:13:42+02:00</time>
          </trkpt>
          <trkpt lon="8.05813503" lat="50.38668442">
            <ele>198.132</ele>
            <time>2010-08-05T12:13:47+02:00</time>
          </trkpt>
          <trkpt lon="8.05803871" lat="50.38669205">
            <ele>197.958</ele>
            <time>2010-08-05T12:13:52+02:00</time>
          </trkpt>
          <trkpt lon="8.05794144" lat="50.38673782">
            <ele>197.557</ele>
            <time>2010-08-05T12:13:57+02:00</time>
          </trkpt>
          <trkpt lon="8.05788326" lat="50.38669586">
            <ele>197.147</ele>
            <time>2010-08-05T12:14:02+02:00</time>
          </trkpt>
          <trkpt lon="8.05782604" lat="50.38663101">
            <ele>196.559</ele>
            <time>2010-08-05T12:14:07+02:00</time>
          </trkpt>
          <trkpt lon="8.0577774" lat="50.38650131">
            <ele>196.758</ele>
            <time>2010-08-05T12:14:12+02:00</time>
          </trkpt>
          <trkpt lon="8.05768776" lat="50.3864975">
            <ele>195.516</ele>
            <time>2010-08-05T12:14:17+02:00</time>
          </trkpt>
          <trkpt lon="8.05762291" lat="50.38650131">
            <ele>194.233</ele>
            <time>2010-08-05T12:14:22+02:00</time>
          </trkpt>
          <trkpt lon="8.05756855" lat="50.38647079">
            <ele>194.256</ele>
            <time>2010-08-05T12:14:27+02:00</time>
          </trkpt>
          <trkpt lon="8.05749321" lat="50.38646317">
            <ele>193.678</ele>
            <time>2010-08-05T12:14:32+02:00</time>
          </trkpt>
          <trkpt lon="8.05735397" lat="50.38650131">
            <ele>193.414</ele>
            <time>2010-08-05T12:14:37+02:00</time>
          </trkpt>
          <trkpt lon="8.05725861" lat="50.38654709">
            <ele>191.746</ele>
            <time>2010-08-05T12:14:42+02:00</time>
          </trkpt>
          <trkpt lon="8.05714035" lat="50.38658905">
            <ele>191.177</ele>
            <time>2010-08-05T12:14:47+02:00</time>
          </trkpt>
          <trkpt lon="8.05704784" lat="50.3866272">
            <ele>190.054</ele>
            <time>2010-08-05T12:14:52+02:00</time>
          </trkpt>
          <trkpt lon="8.05698776" lat="50.3866539">
            <ele>189.031</ele>
            <time>2010-08-05T12:14:57+02:00</time>
          </trkpt>
          <trkpt lon="8.05690002" lat="50.38666534">
            <ele>187.932</ele>
            <time>2010-08-05T12:15:02+02:00</time>
          </trkpt>
          <trkpt lon="8.05681419" lat="50.38666153">
            <ele>187.045</ele>
            <time>2010-08-05T12:15:07+02:00</time>
          </trkpt>
          <trkpt lon="8.05670738" lat="50.38665771">
            <ele>186.303</ele>
            <time>2010-08-05T12:15:12+02:00</time>
          </trkpt>
          <trkpt lon="8.05661583" lat="50.3866539">
            <ele>185.522</ele>
            <time>2010-08-05T12:15:17+02:00</time>
          </trkpt>
          <trkpt lon="8.05648994" lat="50.38661957">
            <ele>185.04</ele>
            <time>2010-08-05T12:15:22+02:00</time>
          </trkpt>
          <trkpt lon="8.05639553" lat="50.38661575">
            <ele>184.492</ele>
            <time>2010-08-05T12:15:27+02:00</time>
          </trkpt>
          <trkpt lon="8.05629826" lat="50.38663864">
            <ele>184.284</ele>
            <time>2010-08-05T12:15:32+02:00</time>
          </trkpt>
          <trkpt lon="8.05624962" lat="50.38674927">
            <ele>181.013</ele>
            <time>2010-08-05T12:15:37+02:00</time>
          </trkpt>
          <trkpt lon="8.05620193" lat="50.38676834">
            <ele>180.971</ele>
            <time>2010-08-05T12:15:42+02:00</time>
          </trkpt>
          <trkpt lon="8.05616665" lat="50.38676453">
            <ele>180.367</ele>
            <time>2010-08-05T12:15:47+02:00</time>
          </trkpt>
          <trkpt lon="8.05611324" lat="50.38677216">
            <ele>179.603</ele>
            <time>2010-08-05T12:15:52+02:00</time>
          </trkpt>
          <trkpt lon="8.05599499" lat="50.38679123">
            <ele>178.879</ele>
            <time>2010-08-05T12:15:57+02:00</time>
          </trkpt>
          <trkpt lon="8.05589581" lat="50.38679123">
            <ele>178.457</ele>
            <time>2010-08-05T12:16:02+02:00</time>
          </trkpt>
          <trkpt lon="8.05579185" lat="50.3867836">
            <ele>177.56</ele>
            <time>2010-08-05T12:16:07+02:00</time>
          </trkpt>
          <trkpt lon="8.05567741" lat="50.38684082">
            <ele>177.291</ele>
            <time>2010-08-05T12:16:12+02:00</time>
          </trkpt>
          <trkpt lon="8.05557442" lat="50.38692856">
            <ele>174.975</ele>
            <time>2010-08-05T12:16:17+02:00</time>
          </trkpt>
          <trkpt lon="8.05545521" lat="50.38693619">
            <ele>172.93</ele>
            <time>2010-08-05T12:16:22+02:00</time>
          </trkpt>
          <trkpt lon="8.05538559" lat="50.38690567">
            <ele>172.361</ele>
            <time>2010-08-05T12:16:27+02:00</time>
          </trkpt>
          <trkpt lon="8.05526066" lat="50.38686752">
            <ele>169.828</ele>
            <time>2010-08-05T12:16:32+02:00</time>
          </trkpt>
          <trkpt lon="8.05514526" lat="50.38685226">
            <ele>169.129</ele>
            <time>2010-08-05T12:16:37+02:00</time>
          </trkpt>
          <trkpt lon="8.05504799" lat="50.38685608">
            <ele>167.825</ele>
            <time>2010-08-05T12:16:42+02:00</time>
          </trkpt>
          <trkpt lon="8.0549469" lat="50.38684464">
            <ele>166.312</ele>
            <time>2010-08-05T12:16:47+02:00</time>
          </trkpt>
          <trkpt lon="8.0549078" lat="50.38682938">
            <ele>166.916</ele>
            <time>2010-08-05T12:16:52+02:00</time>
          </trkpt>
          <trkpt lon="8.05492783" lat="50.38680649">
            <ele>167.52</ele>
            <time>2010-08-05T12:16:57+02:00</time>
          </trkpt>
          <trkpt lon="8.05489826" lat="50.38682175">
            <ele>167.696</ele>
            <time>2010-08-05T12:17:02+02:00</time>
          </trkpt>
          <trkpt lon="8.05473518" lat="50.3868103">
            <ele>167.613</ele>
            <time>2010-08-05T12:17:07+02:00</time>
          </trkpt>
          <trkpt lon="8.05467224" lat="50.38682175">
            <ele>168.625</ele>
            <time>2010-08-05T12:17:12+02:00</time>
          </trkpt>
          <trkpt lon="8.05460167" lat="50.38681793">
            <ele>171.682</ele>
            <time>2010-08-05T12:17:17+02:00</time>
          </trkpt>
          <trkpt lon="8.0545063" lat="50.38682938">
            <ele>175.35</ele>
            <time>2010-08-05T12:17:22+02:00</time>
          </trkpt>
          <trkpt lon="8.05445385" lat="50.38687897">
            <ele>177.455</ele>
            <time>2010-08-05T12:17:27+02:00</time>
          </trkpt>
          <trkpt lon="8.05442238" lat="50.3868866">
            <ele>182.322</ele>
            <time>2010-08-05T12:17:32+02:00</time>
          </trkpt>
          <trkpt lon="8.05444527" lat="50.38695526">
            <ele>184.262</ele>
            <time>2010-08-05T12:17:37+02:00</time>
          </trkpt>
          <trkpt lon="8.05456734" lat="50.38694">
            <ele>187.184</ele>
            <time>2010-08-05T12:17:42+02:00</time>
          </trkpt>
          <trkpt lon="8.05461407" lat="50.38696671">
            <ele>188.433</ele>
            <time>2010-08-05T12:17:47+02:00</time>
          </trkpt>
          <trkpt lon="8.05463314" lat="50.38699341">
            <ele>189.913</ele>
            <time>2010-08-05T12:17:52+02:00</time>
          </trkpt>
          <trkpt lon="8.05464268" lat="50.38699722">
            <ele>190.458</ele>
            <time>2010-08-05T12:17:57+02:00</time>
          </trkpt>
          <trkpt lon="8.05468082" lat="50.38714218">
            <ele>190.521</ele>
            <time>2010-08-05T12:18:02+02:00</time>
          </trkpt>
          <trkpt lon="8.05467796" lat="50.38720703">
            <ele>190.063</ele>
            <time>2010-08-05T12:18:07+02:00</time>
          </trkpt>
          <trkpt lon="8.05466938" lat="50.3871994">
            <ele>195.27</ele>
            <time>2010-08-05T12:18:12+02:00</time>
          </trkpt>
          <trkpt lon="8.05469322" lat="50.38726044">
            <ele>195.192</ele>
            <time>2010-08-05T12:18:17+02:00</time>
          </trkpt>
          <trkpt lon="8.05476093" lat="50.38735962">
            <ele>194.691</ele>
            <time>2010-08-05T12:18:22+02:00</time>
          </trkpt>
          <trkpt lon="8.05474186" lat="50.38741684">
            <ele>195.648</ele>
            <time>2010-08-05T12:18:27+02:00</time>
          </trkpt>
          <trkpt lon="8.05472565" lat="50.38745117">
            <ele>196.813</ele>
            <time>2010-08-05T12:18:32+02:00</time>
          </trkpt>
          <trkpt lon="8.05475521" lat="50.3875618">
            <ele>195.911</ele>
            <time>2010-08-05T12:18:37+02:00</time>
          </trkpt>
          <trkpt lon="8.05485725" lat="50.3876915">
            <ele>193.481</ele>
            <time>2010-08-05T12:18:42+02:00</time>
          </trkpt>
          <trkpt lon="8.05487823" lat="50.38779068">
            <ele>191.804</ele>
            <time>2010-08-05T12:18:47+02:00</time>
          </trkpt>
          <trkpt lon="8.05485916" lat="50.38785934">
            <ele>190.864</ele>
            <time>2010-08-05T12:18:52+02:00</time>
          </trkpt>
          <trkpt lon="8.054842" lat="50.3879509">
            <ele>185.93</ele>
            <time>2010-08-05T12:18:57+02:00</time>
          </trkpt>
          <trkpt lon="8.05462265" lat="50.38797379">
            <ele>177.169</ele>
            <time>2010-08-05T12:19:02+02:00</time>
          </trkpt>
          <trkpt lon="8.05462456" lat="50.38807678">
            <ele>173.793</ele>
            <time>2010-08-05T12:19:07+02:00</time>
          </trkpt>
          <trkpt lon="8.05460262" lat="50.38817215">
            <ele>171.773</ele>
            <time>2010-08-05T12:19:12+02:00</time>
          </trkpt>
          <trkpt lon="8.05454159" lat="50.3882103">
            <ele>169.778</ele>
            <time>2010-08-05T12:19:17+02:00</time>
          </trkpt>
          <trkpt lon="8.05451107" lat="50.38824463">
            <ele>169.309</ele>
            <time>2010-08-05T12:19:22+02:00</time>
          </trkpt>
          <trkpt lon="8.0545311" lat="50.38830566">
            <ele>166.898</ele>
            <time>2010-08-05T12:19:27+02:00</time>
          </trkpt>
          <trkpt lon="8.05454159" lat="50.38839722">
            <ele>164.327</ele>
            <time>2010-08-05T12:19:32+02:00</time>
          </trkpt>
          <trkpt lon="8.05451965" lat="50.38845825">
            <ele>160.884</ele>
            <time>2010-08-05T12:19:37+02:00</time>
          </trkpt>
          <trkpt lon="8.05449677" lat="50.38851166">
            <ele>159.324</ele>
            <time>2010-08-05T12:19:42+02:00</time>
          </trkpt>
          <trkpt lon="8.05444622" lat="50.38856888">
            <ele>157.337</ele>
            <time>2010-08-05T12:19:47+02:00</time>
          </trkpt>
          <trkpt lon="8.05440617" lat="50.3886261">
            <ele>155.74</ele>
            <time>2010-08-05T12:19:52+02:00</time>
          </trkpt>
          <trkpt lon="8.05435181" lat="50.38866425">
            <ele>159.026</ele>
            <time>2010-08-05T12:19:57+02:00</time>
          </trkpt>
          <trkpt lon="8.054389" lat="50.38875198">
            <ele>157.398</ele>
            <time>2010-08-05T12:20:02+02:00</time>
          </trkpt>
          <trkpt lon="8.05441475" lat="50.38884735">
            <ele>154.77</ele>
            <time>2010-08-05T12:20:07+02:00</time>
          </trkpt>
          <trkpt lon="8.05443478" lat="50.38886261">
            <ele>158.804</ele>
            <time>2010-08-05T12:20:12+02:00</time>
          </trkpt>
          <trkpt lon="8.05442142" lat="50.38888168">
            <ele>159.705</ele>
            <time>2010-08-05T12:20:17+02:00</time>
          </trkpt>
          <trkpt lon="8.05442524" lat="50.38895035">
            <ele>159.076</ele>
            <time>2010-08-05T12:20:22+02:00</time>
          </trkpt>
          <trkpt lon="8.05440331" lat="50.38895416">
            <ele>160.995</ele>
            <time>2010-08-05T12:20:27+02:00</time>
          </trkpt>
          <trkpt lon="8.05437279" lat="50.38893127">
            <ele>160.871</ele>
            <time>2010-08-05T12:20:32+02:00</time>
          </trkpt>
          <trkpt lon="8.05435371" lat="50.3889389">
            <ele>161.658</ele>
            <time>2010-08-05T12:20:37+02:00</time>
          </trkpt>
          <trkpt lon="8.05438805" lat="50.38896942">
            <ele>164.328</ele>
            <time>2010-08-05T12:20:42+02:00</time>
          </trkpt>
          <trkpt lon="8.05441093" lat="50.38899612">
            <ele>165.458</ele>
            <time>2010-08-05T12:20:47+02:00</time>
          </trkpt>
          <trkpt lon="8.05448437" lat="50.38901901">
            <ele>167.173</ele>
            <time>2010-08-05T12:20:52+02:00</time>
          </trkpt>
          <trkpt lon="8.0545454" lat="50.38900757">
            <ele>168.302</ele>
            <time>2010-08-05T12:20:57+02:00</time>
          </trkpt>
          <trkpt lon="8.05460835" lat="50.38906097">
            <ele>166.082</ele>
            <time>2010-08-05T12:21:02+02:00</time>
          </trkpt>
          <trkpt lon="8.05465126" lat="50.38917542">
            <ele>162.836</ele>
            <time>2010-08-05T12:21:07+02:00</time>
          </trkpt>
          <trkpt lon="8.05467033" lat="50.38921738">
            <ele>162.771</ele>
            <time>2010-08-05T12:21:12+02:00</time>
          </trkpt>
          <trkpt lon="8.05467606" lat="50.3892746">
            <ele>163.429</ele>
            <time>2010-08-05T12:21:17+02:00</time>
          </trkpt>
          <trkpt lon="8.05464554" lat="50.38938904">
            <ele>163.552</ele>
            <time>2010-08-05T12:21:22+02:00</time>
          </trkpt>
          <trkpt lon="8.0546627" lat="50.38950729">
            <ele>161.198</ele>
            <time>2010-08-05T12:21:27+02:00</time>
          </trkpt>
          <trkpt lon="8.05462456" lat="50.38958359">
            <ele>160.526</ele>
            <time>2010-08-05T12:21:32+02:00</time>
          </trkpt>
          <trkpt lon="8.05461502" lat="50.38961792">
            <ele>160.617</ele>
            <time>2010-08-05T12:21:37+02:00</time>
          </trkpt>
          <trkpt lon="8.05463886" lat="50.3896637">
            <ele>160.407</ele>
            <time>2010-08-05T12:21:42+02:00</time>
          </trkpt>
          <trkpt lon="8.05467319" lat="50.38973236">
            <ele>160.103</ele>
            <time>2010-08-05T12:21:47+02:00</time>
          </trkpt>
          <trkpt lon="8.05471992" lat="50.38978577">
            <ele>159.764</ele>
            <time>2010-08-05T12:21:52+02:00</time>
          </trkpt>
          <trkpt lon="8.05474377" lat="50.38981628">
            <ele>161.052</ele>
            <time>2010-08-05T12:21:57+02:00</time>
          </trkpt>
          <trkpt lon="8.0547142" lat="50.3897934">
            <ele>160.519</ele>
            <time>2010-08-05T12:22:02+02:00</time>
          </trkpt>
          <trkpt lon="8.05475712" lat="50.38985443">
            <ele>161.31</ele>
            <time>2010-08-05T12:22:07+02:00</time>
          </trkpt>
          <trkpt lon="8.05476761" lat="50.38989258">
            <ele>161.613</ele>
            <time>2010-08-05T12:22:12+02:00</time>
          </trkpt>
          <trkpt lon="8.05485821" lat="50.39004135">
            <ele>157.588</ele>
            <time>2010-08-05T12:22:17+02:00</time>
          </trkpt>
          <trkpt lon="8.05487442" lat="50.3901329">
            <ele>156.578</ele>
            <time>2010-08-05T12:22:22+02:00</time>
          </trkpt>
          <trkpt lon="8.05488396" lat="50.39020157">
            <ele>155.541</ele>
            <time>2010-08-05T12:22:27+02:00</time>
          </trkpt>
          <trkpt lon="8.05487919" lat="50.39022827">
            <ele>155.82</ele>
            <time>2010-08-05T12:22:32+02:00</time>
          </trkpt>
          <trkpt lon="8.05483723" lat="50.3902359">
            <ele>155.872</ele>
            <time>2010-08-05T12:22:37+02:00</time>
          </trkpt>
          <trkpt lon="8.0547781" lat="50.39023209">
            <ele>157.198</ele>
            <time>2010-08-05T12:22:42+02:00</time>
          </trkpt>
          <trkpt lon="8.05474854" lat="50.39022827">
            <ele>160.276</ele>
            <time>2010-08-05T12:22:47+02:00</time>
          </trkpt>
          <trkpt lon="8.05469418" lat="50.39024353">
            <ele>162.304</ele>
            <time>2010-08-05T12:22:52+02:00</time>
          </trkpt>
          <trkpt lon="8.05461693" lat="50.39028168">
            <ele>163.418</ele>
            <time>2010-08-05T12:22:57+02:00</time>
          </trkpt>
          <trkpt lon="8.05456257" lat="50.39031219">
            <ele>163.817</ele>
            <time>2010-08-05T12:23:02+02:00</time>
          </trkpt>
          <trkpt lon="8.05448723" lat="50.39036179">
            <ele>162.084</ele>
            <time>2010-08-05T12:23:07+02:00</time>
          </trkpt>
          <trkpt lon="8.05446625" lat="50.39039993">
            <ele>163.12</ele>
            <time>2010-08-05T12:23:12+02:00</time>
          </trkpt>
          <trkpt lon="8.05440998" lat="50.39043808">
            <ele>164.645</ele>
            <time>2010-08-05T12:23:17+02:00</time>
          </trkpt>
          <trkpt lon="8.05430984" lat="50.39046097">
            <ele>163.568</ele>
            <time>2010-08-05T12:23:22+02:00</time>
          </trkpt>
          <trkpt lon="8.05425644" lat="50.39047623">
            <ele>164.882</ele>
            <time>2010-08-05T12:23:27+02:00</time>
          </trkpt>
          <trkpt lon="8.05421257" lat="50.39050674">
            <ele>166.343</ele>
            <time>2010-08-05T12:23:32+02:00</time>
          </trkpt>
          <trkpt lon="8.05419636" lat="50.39051437">
            <ele>165.984</ele>
            <time>2010-08-05T12:23:37+02:00</time>
          </trkpt>
          <trkpt lon="8.05422306" lat="50.39053345">
            <ele>166.496</ele>
            <time>2010-08-05T12:23:42+02:00</time>
          </trkpt>
          <trkpt lon="8.05423832" lat="50.39057541">
            <ele>165.963</ele>
            <time>2010-08-05T12:23:47+02:00</time>
          </trkpt>
          <trkpt lon="8.05425358" lat="50.39064789">
            <ele>165.283</ele>
            <time>2010-08-05T12:23:52+02:00</time>
          </trkpt>
          <trkpt lon="8.0543499" lat="50.39070892">
            <ele>168.591</ele>
            <time>2010-08-05T12:23:57+02:00</time>
          </trkpt>
          <trkpt lon="8.05435562" lat="50.39076996">
            <ele>168.8</ele>
            <time>2010-08-05T12:24:02+02:00</time>
          </trkpt>
          <trkpt lon="8.05435371" lat="50.39078903">
            <ele>169.28</ele>
            <time>2010-08-05T12:24:07+02:00</time>
          </trkpt>
          <trkpt lon="8.05432892" lat="50.39081573">
            <ele>169.227</ele>
            <time>2010-08-05T12:24:12+02:00</time>
          </trkpt>
        </trkseg>
      </trk>
  </gpx>